Time,TemperatureF,DewpointF,PressureIn,WindDirection,WindDirectionDegrees,WindSpeedMPH,WindSpeedGustMPH,Humidity,HourlyPrecipIn,Conditions,Clouds,dailyrainin,SolarRadiationWatts/m^2,SoftwareType,DateUTC
2013-11-13 00:00:00,77.8,72.6,30.00,NNE,28,3.0,10.0,84,0.00,,FEW,0.00,0.00,VWS V14.01,2013-11-13 05:00:00,
2013-11-13 00:01:00,77.8,72.6,30.00,NE,34,2.0,2.0,84,0.00,,FEW,0.00,0.00,VWS V14.01,2013-11-13 05:01:00,
2013-11-13 00:06:00,77.8,72.6,30.00,NNE,31,3.0,9.0,84,0.00,,FEW,0.00,0.00,VWS V14.01,2013-11-13 05:06:00,
2013-11-13 00:07:00,77.8,72.6,30.00,NE,42,3.0,9.0,84,0.00,,FEW,0.00,0.00,VWS V14.01,2013-11-13 05:07:00,
2013-11-13 00:10:00,77.7,72.5,30.00,NE,40,9.0,9.0,84,0.00,,FEW,0.00,0.00,VWS V14.01,2013-11-13 05:10:00,
2013-11-13 00:11:00,77.7,72.5,30.00,NE,41,8.0,9.0,84,0.00,,FEW,0.00,0.00,VWS V14.01,2013-11-13 05:11:00,
2013-11-13 00:12:00,77.7,72.5,30.00,NE,44,4.0,9.0,84,0.00,,FEW,0.00,0.00,VWS V14.01,2013-11-13 05:12:00,
2013-11-13 00:16:00,77.7,72.5,29.99,NNE,32,4.0,9.0,84,0.00,,FEW,0.00,0.00,VWS V14.01,2013-11-13 05:16:00,
2013-11-13 00:17:00,77.7,72.5,29.99,NNE,31,2.0,9.0,84,0.00,,FEW,0.00,0.00,VWS V14.01,2013-11-13 05:17:00,
2013-11-13 00:18:00,77.7,72.5,29.99,NNE,32,3.0,9.0,84,0.00,,FEW,0.00,0.00,VWS V14.01,2013-11-13 05:18:00,
2013-11-13 00:20:00,77.7,72.5,29.99,NE,46,5.0,11.0,84,0.00,,FEW,0.00,0.00,VWS V14.01,2013-11-13 05:20:00,
2013-11-13 00:21:00,77.6,72.0,29.99,NE,39,5.0,15.0,83,0.00,,FEW,0.00,0.00,VWS V14.01,2013-11-13 05:21:00,
2013-11-13 00:22:00,77.6,72.0,29.99,NE,38,4.0,15.0,83,0.00,,FEW,0.00,0.00,VWS V14.01,2013-11-13 05:22:00,
2013-11-13 00:23:00,77.6,72.0,29.99,NE,55,8.0,15.0,83,0.00,,FEW,0.00,0.00,VWS V14.01,2013-11-13 05:23:00,
2013-11-13 00:26:00,77.6,72.4,29.99,NE,46,7.0,15.0,84,0.00,,FEW,0.00,0.00,VWS V14.01,2013-11-13 05:26:00,
2013-11-13 00:27:00,77.6,72.4,29.99,NNE,15,4.0,15.0,84,0.00,,FEW,0.00,0.00,VWS V14.01,2013-11-13 05:27:00,
2013-11-13 00:28:00,77.6,72.0,29.99,NNE,29,5.0,15.0,83,0.00,,FEW,0.00,0.00,VWS V14.01,2013-11-13 05:28:00,
2013-11-13 00:29:00,77.6,72.0,29.99,NE,34,8.0,15.0,83,0.00,,FEW,0.00,0.00,VWS V14.01,2013-11-13 05:29:00,
2013-11-13 00:30:00,77.5,71.9,29.99,NNE,16,6.0,15.0,83,0.00,,FEW,0.00,0.00,VWS V14.01,2013-11-13 05:30:00,
2013-11-13 00:32:00,77.6,72.0,29.99,NE,46,5.0,10.0,83,0.00,,FEW,0.00,0.00,VWS V14.01,2013-11-13 05:32:00,
2013-11-13 00:33:00,77.6,72.0,29.99,ENE,61,3.0,10.0,83,0.00,,FEW,0.00,0.00,VWS V14.01,2013-11-13 05:33:00,
2013-11-13 00:34:00,77.6,72.0,29.99,NE,40,3.0,10.0,83,0.00,,FEW,0.00,0.00,VWS V14.01,2013-11-13 05:34:00,
2013-11-13 00:37:00,77.6,72.0,29.99,NE,45,4.0,10.0,83,0.00,,FEW,0.00,0.00,VWS V14.01,2013-11-13 05:37:00,
2013-11-13 00:38:00,77.5,72.3,29.99,NE,47,5.0,10.0,84,0.00,,FEW,0.00,0.00,VWS V14.01,2013-11-13 05:38:00,
2013-11-13 00:39:00,77.6,72.4,29.99,North,5,4.0,10.0,84,0.00,,FEW,0.00,0.00,VWS V14.01,2013-11-13 05:39:00,
2013-11-13 00:40:00,77.6,72.4,29.99,NNE,28,3.0,10.0,84,0.00,,FEW,0.00,0.00,VWS V14.01,2013-11-13 05:40:00,
2013-11-13 00:42:00,77.6,72.4,29.99,NNE,27,3.0,7.0,84,0.00,,FEW,0.00,0.00,VWS V14.01,2013-11-13 05:42:00,
2013-11-13 00:43:00,77.5,72.3,29.99,North,10,3.0,8.0,84,0.00,,FEW,0.00,0.00,VWS V14.01,2013-11-13 05:43:00,
2013-11-13 00:44:00,77.5,72.3,29.99,NNE,12,6.0,11.0,84,0.00,,FEW,0.00,0.00,VWS V14.01,2013-11-13 05:44:00,
2013-11-13 00:47:00,77.4,72.2,29.99,NE,51,7.0,11.0,84,0.00,,FEW,0.00,0.00,VWS V14.01,2013-11-13 05:47:00,
2013-11-13 00:48:00,77.4,72.2,29.99,NE,41,3.0,11.0,84,0.00,,FEW,0.00,0.00,VWS V14.01,2013-11-13 05:48:00,
2013-11-13 00:49:00,77.4,72.2,29.99,NNE,24,11.0,11.0,84,0.00,,FEW,0.00,0.00,VWS V14.01,2013-11-13 05:49:00,
2013-11-13 00:50:00,77.4,71.8,29.99,North,11,8.0,11.0,83,0.00,,FEW,0.00,0.00,VWS V14.01,2013-11-13 05:50:00,
2013-11-13 00:52:00,77.4,71.8,29.99,NNE,24,6.0,12.0,83,0.00,,FEW,0.00,0.00,VWS V14.01,2013-11-13 05:52:00,
2013-11-13 00:53:00,77.4,71.8,29.99,North,350,7.0,12.0,83,0.00,,FEW,0.00,0.00,VWS V14.01,2013-11-13 05:53:00,
2013-11-13 00:54:00,77.4,71.8,29.99,NE,39,6.0,13.0,83,0.00,,FEW,0.00,0.00,VWS V14.01,2013-11-13 05:54:00,
2013-11-13 00:57:00,77.4,71.8,29.99,NE,53,5.0,13.0,83,0.00,,FEW,0.00,0.00,VWS V14.01,2013-11-13 05:57:00,
2013-11-13 00:58:00,77.4,71.8,29.99,NNE,15,5.0,13.0,83,0.00,,FEW,0.00,0.00,VWS V14.01,2013-11-13 05:58:00,
2013-11-13 00:59:00,77.4,71.8,29.99,NNE,29,5.0,13.0,83,0.00,,FEW,0.00,0.00,VWS V14.01,2013-11-13 05:59:00,
2013-11-13 01:00:00,77.4,71.8,29.98,NNE,24,10.0,13.0,83,0.00,,FEW,0.00,0.00,VWS V14.01,2013-11-13 06:00:00,
2013-11-13 01:02:00,77.4,71.8,29.98,NE,34,4.0,9.0,83,0.00,,FEW,0.00,0.00,VWS V14.01,2013-11-13 06:02:00,
2013-11-13 01:03:00,77.4,71.8,29.98,NE,36,8.0,9.0,83,0.00,,FEW,0.00,0.00,VWS V14.01,2013-11-13 06:03:00,
2013-11-13 01:04:00,77.4,71.8,29.98,NE,42,2.0,9.0,83,0.00,,FEW,0.00,0.00,VWS V14.01,2013-11-13 06:04:00,
2013-11-13 01:05:00,77.4,71.8,29.98,NNE,28,4.0,9.0,83,0.00,,FEW,0.00,0.00,VWS V14.01,2013-11-13 06:05:00,
2013-11-13 01:07:00,77.4,71.8,29.98,North,360,4.0,12.0,83,0.00,,FEW,0.00,0.00,VWS V14.01,2013-11-13 06:07:00,
2013-11-13 01:08:00,77.4,71.8,29.98,NE,49,6.0,12.0,83,0.00,,FEW,0.00,0.00,VWS V14.01,2013-11-13 06:08:00,
2013-11-13 01:09:00,77.4,71.8,29.98,NNE,28,9.0,12.0,83,0.00,,FEW,0.00,0.00,VWS V14.01,2013-11-13 06:09:00,
2013-11-13 01:10:00,77.4,71.8,29.98,NE,49,2.0,12.0,83,0.00,,FEW,0.00,0.00,VWS V14.01,2013-11-13 06:10:00,
2013-11-13 01:13:00,77.4,71.8,29.98,NNE,31,5.0,11.0,83,0.00,,FEW,0.00,0.00,VWS V14.01,2013-11-13 06:13:00,
2013-11-13 01:14:00,77.4,71.8,29.98,NE,40,9.0,11.0,83,0.00,,FEW,0.00,0.00,VWS V14.01,2013-11-13 06:14:00,
2013-11-13 01:15:00,77.3,71.7,29.98,NNW,333,6.0,11.0,83,0.00,,FEW,0.00,0.00,VWS V14.01,2013-11-13 06:15:00,
2013-11-13 01:18:00,77.4,71.8,29.98,NE,42,3.0,11.0,83,0.00,,FEW,0.00,0.00,VWS V14.01,2013-11-13 06:18:00,
2013-11-13 01:20:00,77.4,71.5,29.98,NNE,22,5.0,12.0,82,0.00,,FEW,0.00,0.00,VWS V14.01,2013-11-13 06:20:00,
2013-11-13 01:23:00,77.3,71.4,29.98,NNE,32,3.0,8.0,82,0.00,,FEW,0.00,0.00,VWS V14.01,2013-11-13 06:23:00,
2013-11-13 01:24:00,77.4,71.8,29.98,NNE,12,9.0,9.0,83,0.00,,FEW,0.00,0.00,VWS V14.01,2013-11-13 06:24:00,
2013-11-13 01:25:00,77.4,71.8,29.98,NE,46,3.0,13.0,83,0.00,,FEW,0.00,0.00,VWS V14.01,2013-11-13 06:25:00,
2013-11-13 01:28:00,77.4,71.8,29.98,NE,38,3.0,13.0,83,0.00,,FEW,0.00,0.00,VWS V14.01,2013-11-13 06:28:00,
2013-11-13 01:29:00,77.4,71.8,29.98,NNE,26,4.0,13.0,83,0.00,,FEW,0.00,0.00,VWS V14.01,2013-11-13 06:29:00,
2013-11-13 01:30:00,77.4,71.8,29.97,NNE,32,6.0,13.0,83,0.00,,FEW,0.00,0.00,VWS V14.01,2013-11-13 06:30:00,
2013-11-13 01:33:00,77.2,71.6,29.97,NNW,347,5.0,7.0,83,0.00,,FEW,0.00,0.00,VWS V14.01,2013-11-13 06:33:00,
2013-11-13 01:34:00,77.2,71.6,29.97,North,350,5.0,7.0,83,0.00,,FEW,0.00,0.00,VWS V14.01,2013-11-13 06:34:00,
2013-11-13 01:35:00,77.2,71.6,29.97,NE,40,5.0,7.0,83,0.00,,FEW,0.00,0.00,VWS V14.01,2013-11-13 06:35:00,
2013-11-13 01:36:00,77.2,71.6,29.97,NE,36,4.0,7.0,83,0.00,,FEW,0.00,0.00,VWS V14.01,2013-11-13 06:36:00,
2013-11-13 01:38:00,77.2,71.6,29.97,NNE,30,3.0,7.0,83,0.00,,FEW,0.00,0.00,VWS V14.01,2013-11-13 06:38:00,
2013-11-13 01:39:00,77.2,71.6,29.97,NNE,24,7.0,7.0,83,0.00,,FEW,0.00,0.00,VWS V14.01,2013-11-13 06:39:00,
2013-11-13 01:40:00,77.1,71.5,29.97,North,5,5.0,9.0,83,0.00,,FEW,0.00,0.00,VWS V14.01,2013-11-13 06:40:00,
2013-11-13 01:41:00,77.2,71.6,29.97,NNE,13,8.0,11.0,83,0.00,,FEW,0.00,0.00,VWS V14.01,2013-11-13 06:41:00,
2013-11-13 01:43:00,77.1,71.5,29.97,NNE,26,7.0,11.0,83,0.00,,FEW,0.00,0.00,VWS V14.01,2013-11-13 06:43:00,
2013-11-13 01:44:00,77.1,71.5,29.97,NNE,26,7.0,11.0,83,0.00,,FEW,0.00,0.00,VWS V14.01,2013-11-13 06:44:00,
2013-11-13 01:45:00,77.1,71.9,29.97,NE,36,5.0,11.0,84,0.00,,FEW,0.00,0.00,VWS V14.01,2013-11-13 06:45:00,
2013-11-13 01:46:00,77.1,71.5,29.97,NNE,23,3.0,11.0,83,0.00,,FEW,0.00,0.00,VWS V14.01,2013-11-13 06:46:00,
2013-11-13 01:49:00,77.0,71.4,29.97,NNE,15,10.0,11.0,83,0.00,,FEW,0.00,0.00,VWS V14.01,2013-11-13 06:49:00,
2013-11-13 01:50:00,77.0,71.8,29.97,NNE,15,4.0,11.0,84,0.00,,FEW,0.00,0.00,VWS V14.01,2013-11-13 06:50:00,
2013-11-13 01:51:00,77.0,71.8,29.97,NNE,20,4.0,5.0,84,0.00,,FEW,0.00,0.00,VWS V14.01,2013-11-13 06:51:00,
2013-11-13 01:54:00,77.0,71.8,29.97,NE,34,2.0,6.0,84,0.00,,FEW,0.00,0.00,VWS V14.01,2013-11-13 06:54:00,
2013-11-13 01:55:00,77.0,71.8,29.97,NE,53,5.0,6.0,84,0.00,,FEW,0.00,0.00,VWS V14.01,2013-11-13 06:55:00,
2013-11-13 01:56:00,77.0,71.8,29.97,NNE,30,8.0,9.0,84,0.00,,FEW,0.00,0.00,VWS V14.01,2013-11-13 06:56:00,
2013-11-13 01:59:00,76.9,71.7,29.97,NNE,24,9.0,9.0,84,0.00,,FEW,0.00,0.00,VWS V14.01,2013-11-13 06:59:00,
2013-11-13 02:00:00,76.9,71.7,29.97,NNE,29,6.0,9.0,84,0.00,,FEW,0.00,0.00,VWS V14.01,2013-11-13 07:00:00,
2013-11-13 02:01:00,76.9,71.7,29.97,North,5,3.0,6.0,84,0.00,,FEW,0.00,0.00,VWS V14.01,2013-11-13 07:01:00,
2013-11-13 02:04:00,76.8,71.6,29.97,NE,36,6.0,10.0,84,0.00,,FEW,0.00,0.00,VWS V14.01,2013-11-13 07:04:00,
2013-11-13 02:06:00,76.8,71.6,29.97,NNE,32,5.0,11.0,84,0.00,,FEW,0.00,0.00,VWS V14.01,2013-11-13 07:06:00,
2013-11-13 02:07:00,76.8,71.6,29.97,NE,34,3.0,11.0,84,0.00,,FEW,0.00,0.00,VWS V14.01,2013-11-13 07:07:00,
2013-11-13 02:09:00,76.8,71.6,29.97,NE,44,3.0,11.0,84,0.00,,FEW,0.00,0.00,VWS V14.01,2013-11-13 07:09:00,
2013-11-13 02:10:00,76.8,71.6,29.97,NNE,12,7.0,11.0,84,0.00,,FEW,0.00,0.00,VWS V14.01,2013-11-13 07:10:00,
2013-11-13 02:11:00,76.8,71.6,29.97,NNE,32,3.0,7.0,84,0.00,,FEW,0.00,0.00,VWS V14.01,2013-11-13 07:11:00,
2013-11-13 02:12:00,76.8,71.6,29.97,NNE,31,4.0,7.0,84,0.00,,FEW,0.00,0.00,VWS V14.01,2013-11-13 07:12:00,
2013-11-13 02:14:00,76.8,71.6,29.97,NNE,33,4.0,10.0,84,0.00,,FEW,0.00,0.00,VWS V14.01,2013-11-13 07:14:00,
2013-11-13 02:16:00,76.8,71.6,29.96,NE,42,3.0,10.0,84,0.00,,FEW,0.00,0.00,VWS V14.01,2013-11-13 07:16:00,
2013-11-13 02:17:00,76.8,71.6,29.96,NNE,24,2.0,10.0,84,0.00,,FEW,0.00,0.00,VWS V14.01,2013-11-13 07:17:00,
2013-11-13 02:19:00,76.8,71.6,29.96,North,5,3.0,10.0,84,0.00,,FEW,0.00,0.00,VWS V14.01,2013-11-13 07:19:00,
2013-11-13 02:20:00,76.8,71.6,29.96,NNE,23,5.0,11.0,84,0.00,,FEW,0.00,0.00,VWS V14.01,2013-11-13 07:20:00,
2013-11-13 02:21:00,76.8,71.6,29.96,NE,46,5.0,7.0,84,0.00,,FEW,0.00,0.00,VWS V14.01,2013-11-13 07:21:00,
2013-11-13 02:22:00,76.8,71.6,29.96,ENE,58,5.0,11.0,84,0.00,,FEW,0.00,0.00,VWS V14.01,2013-11-13 07:22:00,
2013-11-13 02:24:00,76.8,71.6,29.96,NNE,18,8.0,11.0,84,0.00,,FEW,0.00,0.00,VWS V14.01,2013-11-13 07:24:00,
2013-11-13 02:26:00,76.7,71.5,29.96,North,11,9.0,11.0,84,0.00,,FEW,0.00,0.00,VWS V14.01,2013-11-13 07:26:00,
2013-11-13 02:27:00,76.7,71.5,29.96,NE,47,5.0,11.0,84,0.00,,FEW,0.00,0.00,VWS V14.01,2013-11-13 07:27:00,
2013-11-13 02:28:00,76.7,71.9,29.96,NE,36,3.0,11.0,85,0.00,,FEW,0.00,0.00,VWS V14.01,2013-11-13 07:28:00,
2013-11-13 02:29:00,76.7,71.9,29.96,NNE,20,4.0,11.0,85,0.00,,FEW,0.00,0.00,VWS V14.01,2013-11-13 07:29:00,
2013-11-13 02:30:00,76.7,71.9,29.96,NNE,32,3.0,11.0,85,0.00,,FEW,0.00,0.00,VWS V14.01,2013-11-13 07:30:00,
2013-11-13 02:31:00,76.7,71.9,29.96,NNE,33,2.0,5.0,85,0.00,,FEW,0.00,0.00,VWS V14.01,2013-11-13 07:31:00,
2013-11-13 02:32:00,76.7,71.9,29.96,North,11,5.0,5.0,85,0.00,,FEW,0.00,0.00,VWS V14.01,2013-11-13 07:32:00,
2013-11-13 02:34:00,76.6,71.8,29.96,NNE,19,6.0,10.0,85,0.00,,FEW,0.00,0.00,VWS V14.01,2013-11-13 07:34:00,
2013-11-13 02:35:00,76.6,71.8,29.96,NE,51,2.0,10.0,85,0.00,,FEW,0.00,0.00,VWS V14.01,2013-11-13 07:35:00,
2013-11-13 02:37:00,76.6,71.8,29.96,NE,40,6.0,10.0,85,0.00,,FEW,0.00,0.00,VWS V14.01,2013-11-13 07:37:00,
2013-11-13 02:39:00,76.6,71.8,29.96,NNE,25,4.0,10.0,85,0.00,,FEW,0.00,0.00,VWS V14.01,2013-11-13 07:39:00,
2013-11-13 02:40:00,76.5,71.7,29.96,NE,37,5.0,10.0,85,0.00,,FEW,0.00,0.00,VWS V14.01,2013-11-13 07:40:00,
2013-11-13 02:42:00,76.5,71.7,29.96,NNE,20,4.0,10.0,85,0.00,,FEW,0.00,0.00,VWS V14.01,2013-11-13 07:42:00,
2013-11-13 02:44:00,76.4,71.9,29.96,NE,35,4.0,10.0,86,0.00,,FEW,0.00,0.00,VWS V14.01,2013-11-13 07:44:00,
2013-11-13 02:45:00,76.4,71.9,29.96,NNE,26,4.0,10.0,86,0.00,,FEW,0.00,0.00,VWS V14.01,2013-11-13 07:45:00,
2013-11-13 02:47:00,76.4,71.9,29.96,NNE,30,3.0,10.0,86,0.00,,FEW,0.00,0.00,VWS V14.01,2013-11-13 07:47:00,
2013-11-13 02:50:00,76.3,71.8,29.96,NE,35,9.0,10.0,86,0.00,,FEW,0.00,0.00,VWS V14.01,2013-11-13 07:50:00,
2013-11-13 02:52:00,76.3,71.8,29.96,NNW,346,4.0,9.0,86,0.00,,FEW,0.00,0.00,VWS V14.01,2013-11-13 07:52:00,
2013-11-13 02:53:00,76.2,71.7,29.96,NE,41,4.0,9.0,86,0.00,,FEW,0.00,0.00,VWS V14.01,2013-11-13 07:53:00,
2013-11-13 02:55:00,76.2,71.7,29.96,NNE,32,3.0,9.0,86,0.00,,FEW,0.00,0.00,VWS V14.01,2013-11-13 07:55:00,
2013-11-13 02:57:00,76.2,71.7,29.96,NE,36,4.0,9.0,86,0.00,,FEW,0.00,0.00,VWS V14.01,2013-11-13 07:57:00,
2013-11-13 02:58:00,76.2,71.7,29.96,NE,34,6.0,9.0,86,0.00,,FEW,0.00,0.00,VWS V14.01,2013-11-13 07:58:00,
2013-11-13 03:00:00,76.2,71.7,29.96,NE,34,5.0,9.0,86,0.00,,FEW,0.00,0.00,VWS V14.01,2013-11-13 08:00:00,
2013-11-13 03:01:00,76.2,71.7,29.96,NNE,26,3.0,3.0,86,0.00,,FEW,0.00,0.00,VWS V14.01,2013-11-13 08:01:00,
2013-11-13 03:02:00,76.2,71.7,29.96,NNE,32,4.0,6.0,86,0.00,,FEW,0.00,0.00,VWS V14.01,2013-11-13 08:02:00,
2013-11-13 03:03:00,76.2,71.7,29.96,NNE,33,3.0,7.0,86,0.00,,FEW,0.00,0.00,VWS V14.01,2013-11-13 08:03:00,
2013-11-13 03:05:00,76.1,71.6,29.96,NNE,18,6.0,7.0,86,0.00,,FEW,0.00,0.00,VWS V14.01,2013-11-13 08:05:00,
2013-11-13 03:06:00,76.1,71.6,29.96,NNE,33,6.0,7.0,86,0.00,,FEW,0.00,0.00,VWS V14.01,2013-11-13 08:06:00,
2013-11-13 03:07:00,76.1,71.6,29.96,NNE,26,8.0,10.0,86,0.00,,FEW,0.00,0.00,VWS V14.01,2013-11-13 08:07:00,
2013-11-13 03:08:00,76.1,71.6,29.96,NNE,31,6.0,10.0,86,0.00,,FEW,0.00,0.00,VWS V14.01,2013-11-13 08:08:00,
2013-11-13 03:10:00,76.1,71.6,29.96,NE,42,7.0,10.0,86,0.00,,FEW,0.00,0.00,VWS V14.01,2013-11-13 08:10:00,
2013-11-13 03:11:00,76.1,71.6,29.96,NE,43,4.0,4.0,86,0.00,,FEW,0.00,0.00,VWS V14.01,2013-11-13 08:11:00,
2013-11-13 03:12:00,76.1,71.6,29.96,NE,35,9.0,9.0,86,0.00,,FEW,0.00,0.00,VWS V14.01,2013-11-13 08:12:00,
2013-11-13 03:13:00,76.1,71.6,29.96,NE,40,6.0,9.0,86,0.00,,FEW,0.00,0.00,VWS V14.01,2013-11-13 08:13:00,
2013-11-13 03:14:00,76.1,71.6,29.96,NNE,15,7.0,9.0,86,0.00,,FEW,0.00,0.00,VWS V14.01,2013-11-13 08:14:00,
2013-11-13 03:15:00,76.1,71.6,29.96,NNE,28,6.0,9.0,86,0.00,,FEW,0.00,0.00,VWS V14.01,2013-11-13 08:15:00,
2013-11-13 03:16:00,76.1,71.6,29.96,NE,53,4.0,9.0,86,0.00,,FEW,0.00,0.00,VWS V14.01,2013-11-13 08:16:00,
2013-11-13 03:17:00,76.1,71.6,29.96,NE,54,10.0,10.0,86,0.00,,FEW,0.00,0.00,VWS V14.01,2013-11-13 08:17:00,
2013-11-13 03:18:00,76.1,71.6,29.96,NE,47,4.0,10.0,86,0.00,,FEW,0.00,0.00,VWS V14.01,2013-11-13 08:18:00,
2013-11-13 03:19:00,76.1,71.6,29.96,NE,47,7.0,10.0,86,0.00,,FEW,0.00,0.00,VWS V14.01,2013-11-13 08:19:00,
2013-11-13 03:20:00,76.1,71.6,29.96,North,11,7.0,11.0,86,0.00,,FEW,0.00,0.00,VWS V14.01,2013-11-13 08:20:00,
2013-11-13 03:22:00,76.1,71.6,29.96,NNE,29,5.0,8.0,86,0.00,,FEW,0.00,0.00,VWS V14.01,2013-11-13 08:22:00,
2013-11-13 03:23:00,76.0,71.5,29.96,NNE,26,5.0,8.0,86,0.00,,FEW,0.00,0.00,VWS V14.01,2013-11-13 08:23:00,
2013-11-13 03:24:00,76.1,71.6,29.96,NE,49,3.0,8.0,86,0.00,,FEW,0.00,0.00,VWS V14.01,2013-11-13 08:24:00,
2013-11-13 03:25:00,76.0,71.5,29.96,North,355,9.0,9.0,86,0.00,,FEW,0.00,0.00,VWS V14.01,2013-11-13 08:25:00,
2013-11-13 03:27:00,76.1,71.6,29.96,North,11,8.0,9.0,86,0.00,,FEW,0.00,0.00,VWS V14.01,2013-11-13 08:27:00,
2013-11-13 03:28:00,76.1,71.6,29.96,NE,37,5.0,9.0,86,0.00,,FEW,0.00,0.00,VWS V14.01,2013-11-13 08:28:00,
2013-11-13 03:29:00,76.1,71.6,29.96,North,355,6.0,9.0,86,0.00,,FEW,0.00,0.00,VWS V14.01,2013-11-13 08:29:00,
2013-11-13 03:30:00,76.1,71.6,29.96,NNE,22,8.0,9.0,86,0.00,,FEW,0.00,0.00,VWS V14.01,2013-11-13 08:30:00,
2013-11-13 03:32:00,76.1,71.6,29.96,North,10,3.0,7.0,86,0.00,,FEW,0.00,0.00,VWS V14.01,2013-11-13 08:32:00,
2013-11-13 03:33:00,76.1,71.6,29.96,NNE,27,3.0,7.0,86,0.00,,FEW,0.00,0.00,VWS V14.01,2013-11-13 08:33:00,
2013-11-13 03:34:00,76.1,71.6,29.96,North,11,7.0,7.0,86,0.00,,FEW,0.00,0.00,VWS V14.01,2013-11-13 08:34:00,
2013-11-13 03:35:00,76.1,71.6,29.96,NE,46,5.0,7.0,86,0.00,,FEW,0.00,0.00,VWS V14.01,2013-11-13 08:35:00,
2013-11-13 03:37:00,76.1,71.6,29.96,NE,49,8.0,8.0,86,0.00,,FEW,0.00,0.00,VWS V14.01,2013-11-13 08:37:00,
2013-11-13 03:38:00,76.1,71.6,29.96,NE,40,7.0,8.0,86,0.00,,FEW,0.00,0.00,VWS V14.01,2013-11-13 08:38:00,
2013-11-13 03:39:00,76.1,71.6,29.96,NE,34,5.0,8.0,86,0.00,,FEW,0.00,0.00,VWS V14.01,2013-11-13 08:39:00,
2013-11-13 03:40:00,76.1,71.6,29.96,NE,42,1.0,8.0,86,0.00,,FEW,0.00,0.00,VWS V14.01,2013-11-13 08:40:00,
2013-11-13 03:42:00,76.1,71.6,29.96,NE,35,7.0,8.0,86,0.00,,FEW,0.00,0.00,VWS V14.01,2013-11-13 08:42:00,
2013-11-13 03:43:00,76.1,71.6,29.96,North,10,4.0,8.0,86,0.00,,FEW,0.00,0.00,VWS V14.01,2013-11-13 08:43:00,
2013-11-13 03:44:00,76.1,71.6,29.96,NNE,30,7.0,10.0,86,0.00,,FEW,0.00,0.00,VWS V14.01,2013-11-13 08:44:00,
2013-11-13 03:45:00,76.1,71.6,29.97,NNE,26,2.0,10.0,86,0.00,,FEW,0.00,0.00,VWS V14.01,2013-11-13 08:45:00,
2013-11-13 03:47:00,76.0,71.5,29.97,NE,40,6.0,10.0,86,0.00,,FEW,0.00,0.00,VWS V14.01,2013-11-13 08:47:00,
2013-11-13 03:48:00,76.0,71.5,29.97,NNE,30,3.0,10.0,86,0.00,,FEW,0.00,0.00,VWS V14.01,2013-11-13 08:48:00,
2013-11-13 03:49:00,76.0,71.5,29.97,NNE,26,5.0,10.0,86,0.00,,FEW,0.00,0.00,VWS V14.01,2013-11-13 08:49:00,
2013-11-13 03:50:00,76.0,71.5,29.97,NE,42,6.0,6.0,86,0.00,,FEW,0.00,0.00,VWS V14.01,2013-11-13 08:50:00,
2013-11-13 03:52:00,76.0,71.9,29.97,NNE,31,5.0,8.0,87,0.00,,FEW,0.00,0.00,VWS V14.01,2013-11-13 08:52:00,
2013-11-13 03:53:00,76.0,71.9,29.97,NNE,16,7.0,8.0,87,0.00,,FEW,0.00,0.00,VWS V14.01,2013-11-13 08:53:00,
2013-11-13 03:54:00,76.0,71.9,29.97,NNE,16,7.0,8.0,87,0.00,,FEW,0.00,0.00,VWS V14.01,2013-11-13 08:54:00,
2013-11-13 03:55:00,76.0,71.9,29.97,NE,46,4.0,8.0,87,0.00,,FEW,0.00,0.00,VWS V14.01,2013-11-13 08:55:00,
2013-11-13 03:56:00,76.0,71.9,29.97,NNE,13,7.0,8.0,87,0.00,,FEW,0.00,0.00,VWS V14.01,2013-11-13 08:56:00,
2013-11-13 03:57:00,76.0,71.9,29.97,NNE,13,7.0,8.0,87,0.00,,FEW,0.00,0.00,VWS V14.01,2013-11-13 08:57:00,
2013-11-13 03:58:00,76.0,71.9,29.97,NE,34,5.0,8.0,87,0.00,,FEW,0.00,0.00,VWS V14.01,2013-11-13 08:58:00,
2013-11-13 04:00:00,75.9,71.8,29.97,NE,34,6.0,8.0,87,0.00,,FEW,0.00,0.00,VWS V14.01,2013-11-13 09:00:00,
2013-11-13 04:01:00,75.9,71.8,29.97,NNE,28,2.0,3.0,87,0.00,,FEW,0.00,0.00,VWS V14.01,2013-11-13 09:01:00,
2013-11-13 04:03:00,75.9,71.8,29.97,NNE,18,3.0,11.0,87,0.00,,FEW,0.00,0.00,VWS V14.01,2013-11-13 09:03:00,
2013-11-13 04:05:00,75.9,71.8,29.97,NE,52,3.0,12.0,87,0.00,,FEW,0.00,0.00,VWS V14.01,2013-11-13 09:05:00,
2013-11-13 04:06:00,75.8,71.7,29.97,NE,51,8.0,12.0,87,0.00,,FEW,0.00,0.00,VWS V14.01,2013-11-13 09:06:00,
2013-11-13 04:08:00,75.8,71.7,29.97,NNE,26,3.0,12.0,87,0.00,,FEW,0.00,0.00,VWS V14.01,2013-11-13 09:08:00,
2013-11-13 04:10:00,75.8,71.7,29.97,NNE,30,4.0,12.0,87,0.00,,FEW,0.00,0.00,VWS V14.01,2013-11-13 09:10:00,
2013-11-13 04:11:00,75.8,71.7,29.97,NE,54,9.0,9.0,87,0.00,,FEW,0.00,0.00,VWS V14.01,2013-11-13 09:11:00,
2013-11-13 04:13:00,75.8,71.7,29.97,NNE,21,5.0,9.0,87,0.00,,FEW,0.00,0.00,VWS V14.01,2013-11-13 09:13:00,
2013-11-13 04:14:00,75.8,71.7,29.97,North,5,5.0,9.0,87,0.00,,FEW,0.00,0.00,VWS V14.01,2013-11-13 09:14:00,
2013-11-13 04:15:00,75.8,71.7,29.97,NNE,24,4.0,9.0,87,0.00,,FEW,0.00,0.00,VWS V14.01,2013-11-13 09:15:00,
2013-11-13 04:16:00,75.8,71.7,29.97,NNE,28,5.0,9.0,87,0.00,,FEW,0.00,0.00,VWS V14.01,2013-11-13 09:16:00,
2013-11-13 04:18:00,75.7,71.6,29.97,NE,43,9.0,12.0,87,0.00,,FEW,0.00,0.00,VWS V14.01,2013-11-13 09:18:00,
2013-11-13 04:19:00,75.7,71.6,29.97,NNE,27,3.0,12.0,87,0.00,,FEW,0.00,0.00,VWS V14.01,2013-11-13 09:19:00,
2013-11-13 04:20:00,75.7,71.6,29.97,NNW,344,3.0,6.0,87,0.00,,FEW,0.00,0.00,VWS V14.01,2013-11-13 09:20:00,
2013-11-13 04:21:00,75.7,71.6,29.97,North,9,7.0,7.0,87,0.00,,FEW,0.00,0.00,VWS V14.01,2013-11-13 09:21:00,
2013-11-13 04:23:00,75.7,71.6,29.97,NNE,32,8.0,11.0,87,0.00,,FEW,0.00,0.00,VWS V14.01,2013-11-13 09:23:00,
2013-11-13 04:25:00,75.7,71.6,29.97,NNE,18,4.0,12.0,87,0.00,,FEW,0.00,0.00,VWS V14.01,2013-11-13 09:25:00,
2013-11-13 04:26:00,75.6,71.5,29.97,NE,46,10.0,13.0,87,0.00,,FEW,0.00,0.00,VWS V14.01,2013-11-13 09:26:00,
2013-11-13 04:29:00,75.6,71.5,29.97,North,355,10.0,13.0,87,0.00,,FEW,0.00,0.00,VWS V14.01,2013-11-13 09:29:00,
2013-11-13 04:30:00,75.6,71.5,29.97,NE,37,10.0,13.0,87,0.00,,FEW,0.00,0.00,VWS V14.01,2013-11-13 09:30:00,
2013-11-13 04:31:00,75.6,71.5,29.97,NNE,32,4.0,10.0,87,0.00,,FEW,0.00,0.00,VWS V14.01,2013-11-13 09:31:00,
2013-11-13 04:34:00,75.5,71.4,29.97,North,5,12.0,12.0,87,0.00,,FEW,0.00,0.00,VWS V14.01,2013-11-13 09:34:00,
2013-11-13 04:35:00,75.4,71.3,29.97,NNE,22,6.0,13.0,87,0.00,,FEW,0.00,0.00,VWS V14.01,2013-11-13 09:35:00,
2013-11-13 04:36:00,75.4,71.3,29.97,NNE,14,6.0,13.0,87,0.00,,FEW,0.00,0.00,VWS V14.01,2013-11-13 09:36:00,
2013-11-13 04:39:00,75.4,71.3,29.97,NE,40,6.0,13.0,87,0.00,,FEW,0.00,0.00,VWS V14.01,2013-11-13 09:39:00,
2013-11-13 04:40:00,75.4,71.3,29.97,NE,55,7.0,13.0,87,0.00,,FEW,0.00,0.00,VWS V14.01,2013-11-13 09:40:00,
2013-11-13 04:41:00,75.4,71.3,29.97,NE,40,5.0,7.0,87,0.00,,FEW,0.00,0.00,VWS V14.01,2013-11-13 09:41:00,
2013-11-13 04:44:00,75.3,71.2,29.97,NNE,26,4.0,11.0,87,0.00,,FEW,0.00,0.00,VWS V14.01,2013-11-13 09:44:00,
2013-11-13 04:46:00,75.2,70.7,29.97,NNE,28,3.0,11.0,86,0.00,,FEW,0.00,0.00,VWS V14.01,2013-11-13 09:46:00,
2013-11-13 04:47:00,75.2,70.7,29.97,North,350,6.0,14.0,86,0.00,,FEW,0.00,0.00,VWS V14.01,2013-11-13 09:47:00,
2013-11-13 04:50:00,75.3,70.8,29.97,NNE,26,6.0,14.0,86,0.00,,FEW,0.00,0.00,VWS V14.01,2013-11-13 09:50:00,
2013-11-13 04:51:00,75.2,70.7,29.97,NNE,12,6.0,10.0,86,0.00,,FEW,0.00,0.00,VWS V14.01,2013-11-13 09:51:00,
2013-11-13 04:52:00,75.3,70.8,29.97,NNE,22,6.0,11.0,86,0.00,,FEW,0.00,0.00,VWS V14.01,2013-11-13 09:52:00,
2013-11-13 04:53:00,75.2,70.7,29.97,NNE,26,7.0,11.0,86,0.00,,FEW,0.00,0.00,VWS V14.01,2013-11-13 09:53:00,
2013-11-13 04:55:00,75.2,70.7,29.97,NNE,17,5.0,11.0,86,0.00,,FEW,0.00,0.00,VWS V14.01,2013-11-13 09:55:00,
2013-11-13 04:56:00,75.2,70.7,29.97,NNE,16,9.0,11.0,86,0.00,,FEW,0.00,0.00,VWS V14.01,2013-11-13 09:56:00,
2013-11-13 04:57:00,75.2,70.7,29.97,ENE,62,7.0,11.0,86,0.00,,FEW,0.00,0.00,VWS V14.01,2013-11-13 09:57:00,
2013-11-13 04:58:00,75.2,70.7,29.97,NE,46,9.0,11.0,86,0.00,,FEW,0.00,0.00,VWS V14.01,2013-11-13 09:58:00,
2013-11-13 05:00:00,75.2,70.7,29.97,North,9,7.0,11.0,86,0.00,,FEW,0.00,0.00,VWS V14.01,2013-11-13 10:00:00,
2013-11-13 05:01:00,75.2,70.7,29.97,NNE,13,6.0,7.0,86,0.00,,FEW,0.00,0.00,VWS V14.01,2013-11-13 10:01:00,
2013-11-13 05:02:00,75.3,70.8,29.97,NNE,27,8.0,15.0,86,0.00,,FEW,0.00,0.00,VWS V14.01,2013-11-13 10:02:00,
2013-11-13 05:03:00,75.3,70.8,29.97,North,5,12.0,15.0,86,0.00,,FEW,0.00,0.00,VWS V14.01,2013-11-13 10:03:00,
2013-11-13 05:04:00,75.3,70.8,29.97,NNW,346,7.0,15.0,86,0.00,,FEW,0.00,0.00,VWS V14.01,2013-11-13 10:04:00,
2013-11-13 05:06:00,75.3,70.8,29.97,North,351,9.0,15.0,86,0.00,,FEW,0.00,0.00,VWS V14.01,2013-11-13 10:06:00,
2013-11-13 05:07:00,75.2,70.7,29.97,NE,35,7.0,15.0,86,0.00,,FEW,0.00,0.00,VWS V14.01,2013-11-13 10:07:00,
2013-11-13 05:08:00,75.1,70.6,29.97,NNE,19,8.0,15.0,86,0.00,,FEW,0.00,0.00,VWS V14.01,2013-11-13 10:08:00,
2013-11-13 05:09:00,75.1,70.6,29.97,NNE,15,9.0,15.0,86,0.00,,FEW,0.00,0.00,VWS V14.01,2013-11-13 10:09:00,
2013-11-13 05:10:00,75.1,70.6,29.97,NE,40,8.0,15.0,86,0.00,,FEW,0.00,0.00,VWS V14.01,2013-11-13 10:10:00,
2013-11-13 05:11:00,75.1,70.6,29.97,North,10,12.0,12.0,86,0.00,,FEW,0.00,0.00,VWS V14.01,2013-11-13 10:11:00,
2013-11-13 05:12:00,75.1,70.6,29.97,ENE,66,9.0,12.0,86,0.00,,FEW,0.00,0.00,VWS V14.01,2013-11-13 10:12:00,
2013-11-13 05:13:00,75.1,70.6,29.97,NE,44,11.0,12.0,86,0.00,,FEW,0.00,0.00,VWS V14.01,2013-11-13 10:13:00,
2013-11-13 05:14:00,75.0,70.5,29.97,NNE,16,6.0,12.0,86,0.00,,FEW,0.00,0.00,VWS V14.01,2013-11-13 10:14:00,
2013-11-13 05:16:00,74.9,70.4,29.98,NE,53,9.0,14.0,86,0.00,,FEW,0.00,0.00,VWS V14.01,2013-11-13 10:16:00,
2013-11-13 05:17:00,74.9,70.4,29.98,NE,34,14.0,14.0,86,0.00,,FEW,0.00,0.00,VWS V14.01,2013-11-13 10:17:00,
2013-11-13 05:19:00,74.9,70.1,29.98,NNE,30,9.0,14.0,85,0.00,,FEW,0.00,0.00,VWS V14.01,2013-11-13 10:19:00,
2013-11-13 05:20:00,74.8,70.0,29.98,NNE,19,8.0,14.0,85,0.00,,FEW,0.00,0.00,VWS V14.01,2013-11-13 10:20:00,
2013-11-13 05:21:00,74.8,70.0,29.98,NNE,25,4.0,8.0,85,0.00,,FEW,0.00,0.00,VWS V14.01,2013-11-13 10:21:00,
2013-11-13 05:22:00,74.8,70.0,29.98,NNW,346,12.0,13.0,85,0.00,,FEW,0.00,0.00,VWS V14.01,2013-11-13 10:22:00,
2013-11-13 05:24:00,74.8,70.0,29.98,NE,51,5.0,13.0,85,0.00,,FEW,0.00,0.00,VWS V14.01,2013-11-13 10:24:00,
2013-11-13 05:26:00,74.9,70.1,29.98,NNE,32,6.0,13.0,85,0.00,,FEW,0.00,0.00,VWS V14.01,2013-11-13 10:26:00,
2013-11-13 05:27:00,74.9,70.1,29.98,NNE,19,11.0,13.0,85,0.00,,FEW,0.00,0.00,VWS V14.01,2013-11-13 10:27:00,
2013-11-13 05:29:00,74.8,70.0,29.98,NNE,32,8.0,13.0,85,0.00,,FEW,0.00,0.00,VWS V14.01,2013-11-13 10:29:00,
2013-11-13 05:30:00,74.8,70.0,29.98,NE,39,6.0,13.0,85,0.00,,FEW,0.00,0.00,VWS V14.01,2013-11-13 10:30:00,
2013-11-13 05:31:00,74.8,70.0,29.98,NNE,24,6.0,16.0,85,0.00,,FEW,0.00,0.00,VWS V14.01,2013-11-13 10:31:00,
2013-11-13 05:32:00,74.8,70.0,29.98,NE,46,4.0,16.0,85,0.00,,FEW,0.00,0.00,VWS V14.01,2013-11-13 10:32:00,
2013-11-13 05:33:00,74.8,70.0,29.98,North,360,9.0,16.0,85,0.00,,FEW,0.00,0.00,VWS V14.01,2013-11-13 10:33:00,
2013-11-13 05:34:00,74.8,70.0,29.98,NE,38,6.0,16.0,85,0.00,,FEW,0.00,0.00,VWS V14.01,2013-11-13 10:34:00,
2013-11-13 05:35:00,74.7,69.9,29.98,NE,34,14.0,16.0,85,0.00,,FEW,0.00,0.00,VWS V14.01,2013-11-13 10:35:00,
2013-11-13 05:36:00,74.7,69.9,29.98,NNE,26,6.0,16.0,85,0.00,,FEW,0.00,0.00,VWS V14.01,2013-11-13 10:36:00,
2013-11-13 05:37:00,74.6,69.8,29.98,NNE,18,12.0,16.0,85,0.00,,FEW,0.00,0.00,VWS V14.01,2013-11-13 10:37:00,
2013-11-13 05:38:00,74.6,69.8,29.98,ENE,68,8.0,16.0,85,0.00,,FEW,0.00,0.00,VWS V14.01,2013-11-13 10:38:00,
2013-11-13 05:39:00,74.6,69.4,29.98,North,11,5.0,16.0,84,0.00,,FEW,0.00,0.00,VWS V14.01,2013-11-13 10:39:00,
2013-11-13 05:40:00,74.5,69.3,29.98,NNE,23,8.0,16.0,84,0.00,,FEW,0.00,0.00,VWS V14.01,2013-11-13 10:40:00,
2013-11-13 05:42:00,74.5,69.3,29.98,NE,41,8.0,13.0,84,0.00,,FEW,0.00,0.00,VWS V14.01,2013-11-13 10:42:00,
2013-11-13 05:43:00,74.5,69.3,29.98,NNE,17,7.0,13.0,84,0.00,,FEW,0.00,0.00,VWS V14.01,2013-11-13 10:43:00,
2013-11-13 05:44:00,74.5,69.3,29.98,NE,39,8.0,15.0,84,0.00,,FEW,0.00,0.00,VWS V14.01,2013-11-13 10:44:00,
2013-11-13 05:45:00,74.5,69.3,29.99,North,5,6.0,15.0,84,0.00,,FEW,0.00,0.00,VWS V14.01,2013-11-13 10:45:00,
2013-11-13 05:47:00,74.5,69.3,29.99,NNE,28,7.0,15.0,84,0.00,,FEW,0.00,0.00,VWS V14.01,2013-11-13 10:47:00,
2013-11-13 05:48:00,74.5,69.3,29.99,NE,44,7.0,15.0,84,0.00,,FEW,0.00,0.00,VWS V14.01,2013-11-13 10:48:00,
2013-11-13 05:50:00,74.5,69.3,29.99,North,349,8.0,15.0,84,0.00,,FEW,0.00,0.00,VWS V14.01,2013-11-13 10:50:00,
2013-11-13 05:51:00,74.4,69.3,29.99,NE,49,12.0,12.0,84,0.00,,FEW,0.00,0.00,VWS V14.01,2013-11-13 10:51:00,
2013-11-13 05:52:00,74.4,69.3,29.99,ENE,66,7.0,12.0,84,0.00,,FEW,0.00,0.00,VWS V14.01,2013-11-13 10:52:00,
2013-11-13 05:53:00,74.4,69.3,29.99,NNE,30,5.0,12.0,84,0.00,,FEW,0.00,0.00,VWS V14.01,2013-11-13 10:53:00,
2013-11-13 05:54:00,74.4,69.3,29.99,NE,45,3.0,14.0,84,0.00,,FEW,0.00,0.00,VWS V14.01,2013-11-13 10:54:00,
2013-11-13 05:55:00,74.4,69.3,29.99,NE,38,4.0,14.0,84,0.00,,FEW,0.00,0.00,VWS V14.01,2013-11-13 10:55:00,
2013-11-13 05:56:00,74.4,69.3,29.99,NE,35,8.0,14.0,84,0.00,,FEW,0.00,0.00,VWS V14.01,2013-11-13 10:56:00,
2013-11-13 05:57:00,74.4,69.3,29.99,NNE,15,7.0,14.0,84,0.00,,FEW,0.00,0.00,VWS V14.01,2013-11-13 10:57:00,
2013-11-13 05:58:00,74.4,69.3,29.99,NE,55,4.0,14.0,84,0.00,,FEW,0.00,0.00,VWS V14.01,2013-11-13 10:58:00,
2013-11-13 05:59:00,74.4,69.3,29.99,NE,42,3.0,14.0,84,0.00,,FEW,0.00,0.00,VWS V14.01,2013-11-13 10:59:00,
2013-11-13 06:00:00,74.4,69.3,29.99,NE,46,7.0,14.0,84,0.00,,FEW,0.00,0.00,VWS V14.01,2013-11-13 11:00:00,
2013-11-13 06:01:00,74.4,69.3,29.99,NE,47,7.0,10.0,84,0.00,,FEW,0.00,0.00,VWS V14.01,2013-11-13 11:01:00,
2013-11-13 06:02:00,74.4,69.3,29.99,NNE,24,10.0,12.0,84,0.00,,FEW,0.00,0.00,VWS V14.01,2013-11-13 11:02:00,
2013-11-13 06:03:00,74.3,69.2,29.99,North,360,4.0,12.0,84,0.00,,FEW,0.00,0.00,VWS V14.01,2013-11-13 11:03:00,
2013-11-13 06:04:00,74.4,69.3,29.99,North,9,6.0,12.0,84,0.00,,FEW,0.00,0.00,VWS V14.01,2013-11-13 11:04:00,
2013-11-13 06:05:00,74.4,69.3,29.99,North,349,8.0,13.0,84,0.00,,FEW,0.00,0.00,VWS V14.01,2013-11-13 11:05:00,
2013-11-13 06:06:00,74.4,68.9,29.99,North,11,5.0,14.0,83,0.00,,FEW,0.00,0.00,VWS V14.01,2013-11-13 11:06:00,
2013-11-13 06:08:00,74.3,68.8,29.99,NNE,32,7.0,14.0,83,0.00,,FEW,0.00,0.00,VWS V14.01,2013-11-13 11:08:00,
2013-11-13 06:09:00,74.3,68.8,29.99,NE,53,8.0,14.0,83,0.00,,FEW,0.00,0.00,VWS V14.01,2013-11-13 11:09:00,
2013-11-13 06:10:00,74.3,68.8,29.99,North,9,11.0,14.0,83,0.00,,FEW,0.00,0.00,VWS V14.01,2013-11-13 11:10:00,
2013-11-13 06:11:00,74.3,68.8,29.99,NNE,20,16.0,16.0,83,0.00,,FEW,0.00,0.00,VWS V14.01,2013-11-13 11:11:00,
2013-11-13 06:12:00,74.3,68.8,29.99,NE,38,8.0,16.0,83,0.00,,FEW,0.00,0.00,VWS V14.01,2013-11-13 11:12:00,
2013-11-13 06:13:00,74.4,68.9,29.99,ENE,74,7.0,16.0,83,0.00,,FEW,0.00,0.00,VWS V14.01,2013-11-13 11:13:00,
2013-11-13 06:14:00,74.4,69.3,29.99,NNW,331,9.0,16.0,84,0.00,,FEW,0.00,0.00,VWS V14.01,2013-11-13 11:14:00,
2013-11-13 06:16:00,74.4,69.3,30.00,ENE,65,8.0,16.0,84,0.00,,FEW,0.00,0.00,VWS V14.01,2013-11-13 11:16:00,
2013-11-13 06:17:00,74.4,69.3,30.00,North,5,16.0,16.0,84,0.00,,FEW,0.00,0.00,VWS V14.01,2013-11-13 11:17:00,
2013-11-13 06:18:00,74.4,69.3,30.00,NE,49,15.0,16.0,84,0.00,,FEW,0.00,0.00,VWS V14.01,2013-11-13 11:18:00,
2013-11-13 06:19:00,74.3,69.2,30.00,ENE,60,16.0,16.0,84,0.00,,FEW,0.00,0.00,VWS V14.01,2013-11-13 11:19:00,
2013-11-13 06:20:00,74.3,69.2,30.00,NNW,347,11.0,16.0,84,0.00,,FEW,0.00,0.00,VWS V14.01,2013-11-13 11:20:00,
2013-11-13 06:21:00,74.3,69.2,30.00,NNE,31,12.0,14.0,84,0.00,,FEW,0.00,0.00,VWS V14.01,2013-11-13 11:21:00,
2013-11-13 06:22:00,74.2,69.1,30.00,NNE,28,6.0,17.0,84,0.00,,FEW,0.00,0.00,VWS V14.01,2013-11-13 11:22:00,
2013-11-13 06:23:00,74.2,69.1,30.00,ENE,57,4.0,17.0,84,0.00,,FEW,0.00,0.00,VWS V14.01,2013-11-13 11:23:00,
2013-11-13 06:24:00,74.2,69.1,30.00,NNE,17,9.0,17.0,84,0.00,,FEW,0.00,0.00,VWS V14.01,2013-11-13 11:24:00,
2013-11-13 06:25:00,74.2,69.1,30.00,NNE,29,4.0,17.0,84,0.00,,FEW,0.00,0.00,VWS V14.01,2013-11-13 11:25:00,
2013-11-13 06:26:00,74.2,69.1,30.00,NNE,22,5.0,17.0,84,0.00,,FEW,0.00,0.00,VWS V14.01,2013-11-13 11:26:00,
2013-11-13 06:28:00,74.2,69.1,30.00,NNE,31,9.0,17.0,84,0.00,,FEW,0.00,0.00,VWS V14.01,2013-11-13 11:28:00,
2013-11-13 06:29:00,74.2,69.1,30.00,NNE,27,5.0,17.0,84,0.00,,FEW,0.00,0.00,VWS V14.01,2013-11-13 11:29:00,
2013-11-13 06:30:00,74.2,69.1,30.01,NNE,25,4.0,17.0,84,0.00,,FEW,0.00,0.00,VWS V14.01,2013-11-13 11:30:00,
2013-11-13 06:31:00,74.1,69.0,30.01,NE,34,5.0,10.0,84,0.00,,FEW,0.00,0.00,VWS V14.01,2013-11-13 11:31:00,
2013-11-13 06:33:00,74.0,68.9,30.01,NNE,29,8.0,13.0,84,0.00,,FEW,0.00,0.00,VWS V14.01,2013-11-13 11:33:00,
2013-11-13 06:34:00,74.0,68.9,30.01,NNE,32,12.0,13.0,84,0.00,,FEW,0.00,0.00,VWS V14.01,2013-11-13 11:34:00,
2013-11-13 06:35:00,74.0,68.9,30.01,North,355,11.0,15.0,84,0.00,,FEW,0.00,0.00,VWS V14.01,2013-11-13 11:35:00,
2013-11-13 06:36:00,74.0,68.9,30.01,NNW,344,6.0,15.0,84,0.00,,FEW,0.00,0.00,VWS V14.01,2013-11-13 11:36:00,
2013-11-13 06:38:00,73.9,68.8,30.01,NE,42,6.0,15.0,84,0.00,,FEW,0.00,0.00,VWS V14.01,2013-11-13 11:38:00,
2013-11-13 06:39:00,74.0,68.9,30.01,NNE,13,9.0,15.0,84,0.00,,FEW,0.00,0.00,VWS V14.01,2013-11-13 11:39:00,
2013-11-13 06:40:00,73.9,68.8,30.01,North,10,4.0,16.0,84,0.00,,FEW,0.00,0.00,VWS V14.01,2013-11-13 11:40:00,
2013-11-13 06:41:00,73.9,68.8,30.01,NE,38,5.0,10.0,84,0.00,,FEW,0.00,0.00,VWS V14.01,2013-11-13 11:41:00,
2013-11-13 06:43:00,73.8,68.7,30.01,NNE,32,6.0,14.0,84,0.00,,FEW,0.00,0.00,VWS V14.01,2013-11-13 11:43:00,
2013-11-13 06:44:00,73.8,68.7,30.01,NNE,21,6.0,14.0,84,0.00,,FEW,0.00,0.00,VWS V14.01,2013-11-13 11:44:00,
2013-11-13 06:45:00,73.8,68.7,30.02,North,5,4.0,14.0,84,0.00,,FEW,0.00,5.00,VWS V14.01,2013-11-13 11:45:00,
2013-11-13 06:46:00,73.8,68.7,30.02,NE,53,12.0,14.0,84,0.00,,FEW,0.00,5.00,VWS V14.01,2013-11-13 11:46:00,
2013-11-13 06:49:00,73.7,68.6,30.02,NNE,21,5.0,17.0,84,0.00,,FEW,0.00,5.00,VWS V14.01,2013-11-13 11:49:00,
2013-11-13 06:50:00,73.7,68.6,30.02,NE,52,12.0,17.0,84,0.00,,FEW,0.00,7.00,VWS V14.01,2013-11-13 11:50:00,
2013-11-13 06:51:00,73.7,68.6,30.02,NNE,26,10.0,10.0,84,0.00,,FEW,0.00,7.00,VWS V14.01,2013-11-13 11:51:00,
2013-11-13 06:54:00,73.7,68.9,30.02,NNE,16,7.0,13.0,85,0.00,,FEW,0.00,9.00,VWS V14.01,2013-11-13 11:54:00,
2013-11-13 06:55:00,73.8,69.0,30.02,NNE,21,6.0,13.0,85,0.00,,FEW,0.00,11.00,VWS V14.01,2013-11-13 11:55:00,
2013-11-13 06:56:00,73.7,68.9,30.02,NE,37,4.0,13.0,85,0.00,,FEW,0.00,11.00,VWS V14.01,2013-11-13 11:56:00,
2013-11-13 06:57:00,73.7,68.9,30.02,NNE,18,5.0,13.0,85,0.00,,FEW,0.00,14.00,VWS V14.01,2013-11-13 11:57:00,
2013-11-13 06:59:00,73.6,68.8,30.02,NNE,25,9.0,15.0,85,0.00,,FEW,0.00,18.00,VWS V14.01,2013-11-13 11:59:00,
2013-11-13 07:00:00,73.6,68.8,30.02,ENE,66,5.0,15.0,85,0.00,,FEW,0.00,18.00,VWS V14.01,2013-11-13 12:00:00,
2013-11-13 07:01:00,73.6,68.8,30.02,NNE,30,4.0,6.0,85,0.00,,FEW,0.00,19.00,VWS V14.01,2013-11-13 12:01:00,
2013-11-13 07:02:00,73.6,68.8,30.02,NE,36,5.0,14.0,85,0.00,,FEW,0.00,19.00,VWS V14.01,2013-11-13 12:02:00,
2013-11-13 07:04:00,73.5,68.7,30.02,NE,45,10.0,14.0,85,0.00,,FEW,0.00,26.00,VWS V14.01,2013-11-13 12:04:00,
2013-11-13 07:05:00,73.5,68.7,30.02,NNE,19,8.0,14.0,85,0.00,,FEW,0.00,26.00,VWS V14.01,2013-11-13 12:05:00,
2013-11-13 07:06:00,73.5,68.7,30.02,NNE,29,6.0,14.0,85,0.00,,FEW,0.00,26.00,VWS V14.01,2013-11-13 12:06:00,
2013-11-13 07:08:00,73.5,68.7,30.02,NNE,24,9.0,14.0,85,0.00,,FEW,0.00,32.00,VWS V14.01,2013-11-13 12:08:00,
2013-11-13 07:10:00,73.5,68.7,30.02,NE,44,13.0,15.0,85,0.00,,FEW,0.00,28.00,VWS V14.01,2013-11-13 12:10:00,
2013-11-13 07:11:00,73.4,68.6,30.02,NE,54,6.0,9.0,85,0.00,,FEW,0.00,30.00,VWS V14.01,2013-11-13 12:11:00,
2013-11-13 07:12:00,73.4,68.6,30.02,NNE,31,8.0,11.0,85,0.00,,FEW,0.00,32.00,VWS V14.01,2013-11-13 12:12:00,
2013-11-13 07:13:00,73.4,69.0,30.02,NE,48,12.0,12.0,86,0.00,,FEW,0.00,35.00,VWS V14.01,2013-11-13 12:13:00,
2013-11-13 07:15:00,73.5,69.1,30.02,NNE,28,13.0,13.0,86,0.00,,FEW,0.00,39.00,VWS V14.01,2013-11-13 12:15:00,
2013-11-13 07:16:00,73.5,69.1,30.02,NE,36,9.0,13.0,86,0.00,,FEW,0.00,46.00,VWS V14.01,2013-11-13 12:16:00,
2013-11-13 07:17:00,73.6,69.2,30.02,NE,44,7.0,13.0,86,0.00,,FEW,0.00,49.00,VWS V14.01,2013-11-13 12:17:00,
2013-11-13 07:18:00,73.6,69.2,30.02,NNE,28,11.0,14.0,86,0.00,,FEW,0.00,47.00,VWS V14.01,2013-11-13 12:18:00,
2013-11-13 07:20:00,73.6,69.2,30.02,NE,38,5.0,14.0,86,0.00,,FEW,0.00,63.00,VWS V14.01,2013-11-13 12:20:00,
2013-11-13 07:21:00,73.7,69.3,30.02,ENE,57,8.0,12.0,86,0.00,,FEW,0.00,74.00,VWS V14.01,2013-11-13 12:21:00,
2013-11-13 07:22:00,73.6,69.2,30.02,North,5,9.0,12.0,86,0.00,,FEW,0.00,86.00,VWS V14.01,2013-11-13 12:22:00,
2013-11-13 07:23:00,73.6,69.2,30.02,North,349,8.0,13.0,86,0.00,,FEW,0.00,76.00,VWS V14.01,2013-11-13 12:23:00,
2013-11-13 07:25:00,73.7,69.3,30.02,North,9,10.0,13.0,86,0.00,,FEW,0.00,63.00,VWS V14.01,2013-11-13 12:25:00,
2013-11-13 07:26:00,73.7,69.3,30.02,North,9,6.0,13.0,86,0.00,,FEW,0.00,67.00,VWS V14.01,2013-11-13 12:26:00,
2013-11-13 07:28:00,73.8,69.3,30.02,NE,34,8.0,16.0,86,0.00,,FEW,0.00,65.00,VWS V14.01,2013-11-13 12:28:00,
2013-11-13 07:29:00,73.7,69.3,30.02,NNE,15,8.0,16.0,86,0.00,,FEW,0.00,62.00,VWS V14.01,2013-11-13 12:29:00,
2013-11-13 07:30:00,73.7,68.9,30.02,NE,38,8.0,16.0,85,0.00,,FEW,0.00,69.00,VWS V14.01,2013-11-13 12:30:00,
2013-11-13 07:31:00,73.6,68.8,30.02,North,351,16.0,16.0,85,0.00,,FEW,0.00,74.00,VWS V14.01,2013-11-13 12:31:00,
2013-11-13 07:33:00,73.5,68.7,30.02,NNE,29,8.0,16.0,85,0.00,,FEW,0.00,107.00,VWS V14.01,2013-11-13 12:33:00,
2013-11-13 07:34:00,73.5,68.7,30.02,NNE,15,7.0,16.0,85,0.00,,FEW,0.00,111.00,VWS V14.01,2013-11-13 12:34:00,
2013-11-13 07:35:00,73.6,69.2,30.02,NNE,26,7.0,16.0,86,0.00,,FEW,0.00,81.00,VWS V14.01,2013-11-13 12:35:00,
2013-11-13 07:36:00,73.6,68.8,30.02,NNE,21,7.0,16.0,85,0.00,,FEW,0.00,81.00,VWS V14.01,2013-11-13 12:36:00,
2013-11-13 07:37:00,73.6,69.2,30.02,NNE,31,11.0,16.0,86,0.00,,FEW,0.00,121.00,VWS V14.01,2013-11-13 12:37:00,
2013-11-13 07:38:00,73.7,69.3,30.02,NNE,29,6.0,16.0,86,0.00,,FEW,0.00,141.00,VWS V14.01,2013-11-13 12:38:00,
2013-11-13 07:39:00,73.7,68.9,30.02,ENE,59,14.0,16.0,85,0.00,,FEW,0.00,142.00,VWS V14.01,2013-11-13 12:39:00,
2013-11-13 07:40:00,73.7,68.9,30.02,ENE,61,15.0,18.0,85,0.00,,FEW,0.00,149.00,VWS V14.01,2013-11-13 12:40:00,
2013-11-13 07:41:00,73.7,68.9,30.02,NE,36,9.0,9.0,85,0.00,,FEW,0.00,97.00,VWS V14.01,2013-11-13 12:41:00,
2013-11-13 07:42:00,73.8,69.0,30.02,NNE,25,14.0,14.0,85,0.00,,FEW,0.00,90.00,VWS V14.01,2013-11-13 12:42:00,
2013-11-13 07:43:00,73.8,69.0,30.02,NNE,24,8.0,14.0,85,0.00,,FEW,0.00,90.00,VWS V14.01,2013-11-13 12:43:00,
2013-11-13 07:44:00,73.9,69.1,30.02,NE,56,4.0,14.0,85,0.00,,FEW,0.00,127.00,VWS V14.01,2013-11-13 12:44:00,
2013-11-13 07:45:00,73.9,69.1,30.03,NE,34,11.0,15.0,85,0.00,,FEW,0.00,107.00,VWS V14.01,2013-11-13 12:45:00,
2013-11-13 07:46:00,73.8,69.0,30.03,NNE,23,13.0,16.0,85,0.00,,FEW,0.00,74.00,VWS V14.01,2013-11-13 12:46:00,
2013-11-13 07:47:00,73.8,68.7,30.03,North,5,10.0,16.0,84,0.00,,FEW,0.00,58.00,VWS V14.01,2013-11-13 12:47:00,
2013-11-13 07:48:00,73.8,69.0,30.03,NE,43,5.0,16.0,85,0.00,,FEW,0.00,54.00,VWS V14.01,2013-11-13 12:48:00,
2013-11-13 07:50:00,73.9,69.1,30.03,NNE,24,7.0,16.0,85,0.00,,FEW,0.00,90.00,VWS V14.01,2013-11-13 12:50:00,
2013-11-13 07:51:00,73.9,69.1,30.03,NNE,25,20.0,20.0,85,0.00,,FEW,0.00,135.00,VWS V14.01,2013-11-13 12:51:00,
2013-11-13 07:52:00,73.9,69.1,30.03,NE,42,4.0,20.0,85,0.00,,FEW,0.00,181.00,VWS V14.01,2013-11-13 12:52:00,
2013-11-13 07:53:00,73.9,69.1,30.03,NNE,29,3.0,20.0,85,0.00,,FEW,0.00,183.00,VWS V14.01,2013-11-13 12:53:00,
2013-11-13 07:55:00,74.0,69.2,30.03,NE,55,8.0,20.0,85,0.00,,FEW,0.00,155.00,VWS V14.01,2013-11-13 12:55:00,
2013-11-13 07:56:00,74.1,69.3,30.03,NNE,19,12.0,20.0,85,0.00,,FEW,0.00,155.00,VWS V14.01,2013-11-13 12:56:00,
2013-11-13 07:58:00,74.1,69.3,30.03,NNE,27,8.0,20.0,85,0.00,,FEW,0.00,181.00,VWS V14.01,2013-11-13 12:58:00,
2013-11-13 07:59:00,74.2,69.4,30.03,NNE,32,9.0,20.0,85,0.00,,FEW,0.00,202.00,VWS V14.01,2013-11-13 12:59:00,
2013-11-13 08:00:00,74.2,69.4,30.03,NNE,15,9.0,20.0,85,0.00,,FEW,0.00,207.00,VWS V14.01,2013-11-13 13:00:00,
2013-11-13 08:01:00,74.2,69.1,30.03,NNE,28,8.0,10.0,84,0.00,,FEW,0.00,206.00,VWS V14.01,2013-11-13 13:01:00,
2013-11-13 08:03:00,74.2,69.1,30.03,NNE,19,11.0,20.0,84,0.00,,FEW,0.00,218.00,VWS V14.01,2013-11-13 13:03:00,
2013-11-13 08:05:00,74.2,69.1,30.03,NNE,31,6.0,20.0,84,0.00,,FEW,0.00,225.00,VWS V14.01,2013-11-13 13:05:00,
2013-11-13 08:06:00,74.2,69.1,30.03,NE,42,3.0,20.0,84,0.00,,FEW,0.00,230.00,VWS V14.01,2013-11-13 13:06:00,
2013-11-13 08:07:00,74.3,69.2,30.03,NNE,15,9.0,20.0,84,0.00,,FEW,0.00,237.00,VWS V14.01,2013-11-13 13:07:00,
2013-11-13 08:08:00,74.4,69.6,30.03,NNE,19,11.0,20.0,85,0.00,,FEW,0.00,213.00,VWS V14.01,2013-11-13 13:08:00,
2013-11-13 08:10:00,74.3,69.2,30.03,NNE,27,12.0,20.0,84,0.00,,FEW,0.00,213.00,VWS V14.01,2013-11-13 13:10:00,
2013-11-13 08:11:00,74.3,69.2,30.03,NE,56,10.0,11.0,84,0.00,,FEW,0.00,74.00,VWS V14.01,2013-11-13 13:11:00,
2013-11-13 08:12:00,74.3,69.2,30.03,NNE,16,7.0,17.0,84,0.00,,FEW,0.00,76.00,VWS V14.01,2013-11-13 13:12:00,
2013-11-13 08:14:00,74.2,69.1,30.03,NE,44,12.0,20.0,84,0.00,,FEW,0.00,63.00,VWS V14.01,2013-11-13 13:14:00,
2013-11-13 08:15:00,74.1,69.0,30.03,NE,38,10.0,20.0,84,0.00,,FEW,0.00,62.00,VWS V14.01,2013-11-13 13:15:00,
2013-11-13 08:16:00,74.0,68.9,30.03,NNE,25,11.0,20.0,84,0.00,,FEW,0.00,63.00,VWS V14.01,2013-11-13 13:16:00,
2013-11-13 08:17:00,73.9,68.8,30.03,NNE,20,16.0,20.0,84,0.00,,FEW,0.00,84.00,VWS V14.01,2013-11-13 13:17:00,
2013-11-13 08:19:00,73.9,69.1,30.03,NNE,19,12.0,20.0,85,0.00,,FEW,0.00,297.00,VWS V14.01,2013-11-13 13:19:00,
2013-11-13 08:20:00,73.9,69.1,30.03,NE,40,10.0,20.0,85,0.00,,FEW,0.00,287.00,VWS V14.01,2013-11-13 13:20:00,
2013-11-13 08:21:00,73.9,69.1,30.03,NE,34,5.0,9.0,85,0.00,,FEW,0.00,287.00,VWS V14.01,2013-11-13 13:21:00,
2013-11-13 08:22:00,73.9,68.8,30.03,NNE,27,19.0,19.0,84,0.00,,FEW,0.00,283.00,VWS V14.01,2013-11-13 13:22:00,
2013-11-13 08:24:00,74.0,69.2,30.03,North,355,8.0,19.0,85,0.00,,FEW,0.00,308.00,VWS V14.01,2013-11-13 13:24:00,
2013-11-13 08:25:00,74.0,69.2,30.03,NE,41,7.0,19.0,85,0.00,,FEW,0.00,301.00,VWS V14.01,2013-11-13 13:25:00,
2013-11-13 08:26:00,74.0,68.9,30.03,NE,51,9.0,19.0,84,0.00,,FEW,0.00,288.00,VWS V14.01,2013-11-13 13:26:00,
2013-11-13 08:28:00,74.2,69.4,30.03,ENE,63,10.0,19.0,85,0.00,,FEW,0.00,288.00,VWS V14.01,2013-11-13 13:28:00,
2013-11-13 08:29:00,74.2,69.4,30.03,North,355,15.0,19.0,85,0.00,,FEW,0.00,244.00,VWS V14.01,2013-11-13 13:29:00,
2013-11-13 08:30:00,74.1,69.0,30.03,North,351,6.0,19.0,84,0.00,,FEW,0.00,218.00,VWS V14.01,2013-11-13 13:30:00,
2013-11-13 08:31:00,74.0,68.9,30.03,NNE,32,8.0,12.0,84,0.00,,FEW,0.00,195.00,VWS V14.01,2013-11-13 13:31:00,
2013-11-13 08:33:00,74.0,69.2,30.03,NE,47,8.0,16.0,85,0.00,,FEW,0.00,174.00,VWS V14.01,2013-11-13 13:33:00,
2013-11-13 08:34:00,74.0,69.2,30.03,NNE,32,9.0,16.0,85,0.00,,FEW,0.00,218.00,VWS V14.01,2013-11-13 13:34:00,
2013-11-13 08:36:00,74.0,69.2,30.03,NE,36,6.0,16.0,85,0.00,,FEW,0.00,213.00,VWS V14.01,2013-11-13 13:36:00,
2013-11-13 08:37:00,74.0,69.2,30.03,NE,42,12.0,16.0,85,0.00,,FEW,0.00,213.00,VWS V14.01,2013-11-13 13:37:00,
2013-11-13 08:38:00,74.0,69.2,30.03,North,360,12.0,16.0,85,0.00,,FEW,0.00,271.00,VWS V14.01,2013-11-13 13:38:00,
2013-11-13 08:39:00,74.1,69.3,30.03,NNE,17,8.0,16.0,85,0.00,,FEW,0.00,373.00,VWS V14.01,2013-11-13 13:39:00,
2013-11-13 08:40:00,74.2,69.4,30.03,NNE,32,14.0,16.0,85,0.00,,FEW,0.00,383.00,VWS V14.01,2013-11-13 13:40:00,
2013-11-13 08:41:00,74.2,69.1,30.03,NNE,22,15.0,15.0,84,0.00,,FEW,0.00,383.00,VWS V14.01,2013-11-13 13:41:00,
2013-11-13 08:42:00,74.1,69.0,30.03,NE,36,9.0,15.0,84,0.00,,FEW,0.00,371.00,VWS V14.01,2013-11-13 13:42:00,
2013-11-13 08:43:00,74.2,69.1,30.03,NNE,23,7.0,15.0,84,0.00,,FEW,0.00,371.00,VWS V14.01,2013-11-13 13:43:00,
2013-11-13 08:44:00,74.3,69.2,30.03,NNE,13,14.0,15.0,84,0.00,,FEW,0.00,411.00,VWS V14.01,2013-11-13 13:44:00,
2013-11-13 08:46:00,74.4,69.3,30.05,NNE,20,10.0,20.0,84,0.00,,FEW,0.00,446.00,VWS V14.01,2013-11-13 13:46:00,
2013-11-13 08:47:00,74.4,68.9,30.05,NNE,32,11.0,20.0,83,0.00,,FEW,0.00,446.00,VWS V14.01,2013-11-13 13:47:00,
2013-11-13 08:49:00,74.6,69.4,30.05,NNE,16,7.0,20.0,84,0.00,,FEW,0.00,471.00,VWS V14.01,2013-11-13 13:49:00,
2013-11-13 08:50:00,74.7,69.6,30.05,NNE,29,5.0,20.0,84,0.00,,FEW,0.00,494.00,VWS V14.01,2013-11-13 13:50:00,
2013-11-13 08:51:00,74.8,69.3,30.05,NNE,12,8.0,8.0,83,0.00,,FEW,0.00,501.00,VWS V14.01,2013-11-13 13:51:00,
2013-11-13 08:52:00,74.9,69.7,30.05,North,351,7.0,11.0,84,0.00,,FEW,0.00,517.00,VWS V14.01,2013-11-13 13:52:00,
2013-11-13 08:54:00,75.1,69.2,30.05,NE,38,6.0,13.0,82,0.00,,FEW,0.00,531.00,VWS V14.01,2013-11-13 13:54:00,
2013-11-13 08:55:00,75.1,69.2,30.05,NNW,342,16.0,17.0,82,0.00,,FEW,0.00,541.00,VWS V14.01,2013-11-13 13:55:00,
2013-11-13 08:56:00,75.0,68.8,30.05,NNE,28,13.0,17.0,81,0.00,,FEW,0.00,527.00,VWS V14.01,2013-11-13 13:56:00,
2013-11-13 08:57:00,75.0,68.8,30.05,NNE,24,10.0,17.0,81,0.00,,FEW,0.00,527.00,VWS V14.01,2013-11-13 13:57:00,
2013-11-13 08:59:00,75.0,69.1,30.05,NNE,14,9.0,17.0,82,0.00,,FEW,0.00,438.00,VWS V14.01,2013-11-13 13:59:00,
2013-11-13 09:00:00,75.0,68.8,30.05,North,5,7.0,17.0,81,0.00,,FEW,0.00,403.00,VWS V14.01,2013-11-13 14:00:00,
2013-11-13 09:01:00,75.0,69.1,30.05,North,5,12.0,12.0,82,0.00,,FEW,0.00,403.00,VWS V14.01,2013-11-13 14:01:00,
2013-11-13 09:02:00,75.0,69.1,30.05,NNE,13,8.0,12.0,82,0.00,,FEW,0.00,420.00,VWS V14.01,2013-11-13 14:02:00,
2013-11-13 09:04:00,74.9,68.7,30.05,NE,48,10.0,16.0,81,0.00,,FEW,0.00,299.00,VWS V14.01,2013-11-13 14:04:00,
2013-11-13 09:06:00,74.8,68.6,30.05,North,355,7.0,17.0,81,0.00,,FEW,0.00,297.00,VWS V14.01,2013-11-13 14:06:00,
2013-11-13 09:07:00,74.7,68.5,30.05,NNE,33,6.0,17.0,81,0.00,,FEW,0.00,283.00,VWS V14.01,2013-11-13 14:07:00,
2013-11-13 09:09:00,74.6,68.4,30.05,NNE,21,15.0,18.0,81,0.00,,FEW,0.00,288.00,VWS V14.01,2013-11-13 14:09:00,
2013-11-13 09:10:00,74.6,68.4,30.05,NNE,15,10.0,18.0,81,0.00,,FEW,0.00,290.00,VWS V14.01,2013-11-13 14:10:00,
2013-11-13 09:11:00,74.6,68.4,30.05,North,360,7.0,17.0,81,0.00,,FEW,0.00,292.00,VWS V14.01,2013-11-13 14:11:00,
2013-11-13 09:12:00,74.7,68.8,30.05,NE,34,12.0,20.0,82,0.00,,FEW,0.00,294.00,VWS V14.01,2013-11-13 14:12:00,
2013-11-13 09:15:00,74.7,68.5,30.05,NNE,15,7.0,20.0,81,0.00,,FEW,0.00,278.00,VWS V14.01,2013-11-13 14:15:00,
2013-11-13 09:16:00,74.7,68.5,30.05,NNE,15,7.0,20.0,81,0.00,,FEW,0.00,267.00,VWS V14.01,2013-11-13 14:16:00,
2013-11-13 09:17:00,74.6,68.4,30.05,NE,41,9.0,20.0,81,0.00,,FEW,0.00,237.00,VWS V14.01,2013-11-13 14:17:00,
2013-11-13 09:20:00,74.6,68.4,30.05,NE,36,11.0,20.0,81,0.00,,FEW,0.00,172.00,VWS V14.01,2013-11-13 14:20:00,
2013-11-13 09:21:00,74.6,68.4,30.05,NE,43,5.0,11.0,81,0.00,,FEW,0.00,160.00,VWS V14.01,2013-11-13 14:21:00,
2013-11-13 09:22:00,74.6,68.4,30.05,NNE,13,8.0,13.0,81,0.00,,FEW,0.00,160.00,VWS V14.01,2013-11-13 14:22:00,
2013-11-13 09:23:00,74.6,68.4,30.05,NE,36,7.0,13.0,81,0.00,,FEW,0.00,160.00,VWS V14.01,2013-11-13 14:23:00,
2013-11-13 09:25:00,74.5,68.3,30.05,NNE,15,6.0,18.0,81,0.00,,FEW,0.00,171.00,VWS V14.01,2013-11-13 14:25:00,
2013-11-13 09:26:00,74.5,68.3,30.05,North,360,12.0,18.0,81,0.00,,FEW,0.00,181.00,VWS V14.01,2013-11-13 14:26:00,
2013-11-13 09:27:00,74.5,68.3,30.05,NE,42,5.0,19.0,81,0.00,,FEW,0.00,200.00,VWS V14.01,2013-11-13 14:27:00,
2013-11-13 09:28:00,74.4,68.2,30.05,NNE,19,8.0,19.0,81,0.00,,FEW,0.00,200.00,VWS V14.01,2013-11-13 14:28:00,
2013-11-13 09:30:00,74.4,67.8,30.06,NE,47,11.0,19.0,80,0.00,,FEW,0.00,253.00,VWS V14.01,2013-11-13 14:30:00,
2013-11-13 09:31:00,74.4,67.8,30.06,NNE,24,10.0,11.0,80,0.00,,FEW,0.00,253.00,VWS V14.01,2013-11-13 14:31:00,
2013-11-13 09:32:00,74.5,67.9,30.06,NNE,26,7.0,15.0,80,0.00,,FEW,0.00,241.00,VWS V14.01,2013-11-13 14:32:00,
2013-11-13 09:33:00,74.5,67.9,30.06,NE,34,5.0,15.0,80,0.00,,FEW,0.00,241.00,VWS V14.01,2013-11-13 14:33:00,
2013-11-13 09:36:00,74.6,68.0,30.06,NE,45,4.0,17.0,80,0.00,,FEW,0.00,200.00,VWS V14.01,2013-11-13 14:36:00,
2013-11-13 09:37:00,74.6,67.7,30.06,NNE,14,18.0,18.0,79,0.00,,FEW,0.00,206.00,VWS V14.01,2013-11-13 14:37:00,
2013-11-13 09:38:00,74.6,67.7,30.06,NNE,28,15.0,18.0,79,0.00,,FEW,0.00,209.00,VWS V14.01,2013-11-13 14:38:00,
2013-11-13 09:40:00,74.6,67.7,30.06,NE,34,8.0,18.0,79,0.00,,FEW,0.00,211.00,VWS V14.01,2013-11-13 14:40:00,
2013-11-13 09:41:00,74.6,67.7,30.06,NNE,29,8.0,13.0,79,0.00,,FEW,0.00,204.00,VWS V14.01,2013-11-13 14:41:00,
2013-11-13 09:42:00,74.7,67.8,30.06,NNE,23,11.0,13.0,79,0.00,,FEW,0.00,195.00,VWS V14.01,2013-11-13 14:42:00,
2013-11-13 09:43:00,74.7,67.8,30.06,North,5,10.0,17.0,79,0.00,,FEW,0.00,188.00,VWS V14.01,2013-11-13 14:43:00,
2013-11-13 09:47:00,74.8,67.9,30.07,NE,45,11.0,17.0,79,0.00,,FEW,0.00,169.00,VWS V14.01,2013-11-13 14:47:00,
2013-11-13 09:48:00,74.8,67.9,30.07,NNE,28,15.0,17.0,79,0.00,,FEW,0.00,167.00,VWS V14.01,2013-11-13 14:48:00,
2013-11-13 09:49:00,74.7,67.4,30.07,NNE,19,13.0,17.0,78,0.00,,FEW,0.00,169.00,VWS V14.01,2013-11-13 14:49:00,
2013-11-13 09:50:00,74.7,67.4,30.07,NE,42,3.0,17.0,78,0.00,,FEW,0.00,185.00,VWS V14.01,2013-11-13 14:50:00,
2013-11-13 09:52:00,74.8,67.9,30.07,NNE,22,10.0,10.0,79,0.00,,FEW,0.00,193.00,VWS V14.01,2013-11-13 14:52:00,
2013-11-13 09:53:00,74.8,67.9,30.07,NE,45,10.0,11.0,79,0.00,,FEW,0.00,197.00,VWS V14.01,2013-11-13 14:53:00,
2013-11-13 09:54:00,74.8,67.9,30.07,NNE,18,10.0,11.0,79,0.00,,FEW,0.00,193.00,VWS V14.01,2013-11-13 14:54:00,
2013-11-13 09:57:00,74.9,67.6,30.07,North,5,7.0,14.0,78,0.00,,FEW,0.00,169.00,VWS V14.01,2013-11-13 14:57:00,
2013-11-13 09:58:00,74.8,67.5,30.07,NNE,33,4.0,14.0,78,0.00,,FEW,0.00,167.00,VWS V14.01,2013-11-13 14:58:00,
2013-11-13 09:59:00,74.8,67.1,30.07,NE,34,4.0,14.0,77,0.00,,FEW,0.00,169.00,VWS V14.01,2013-11-13 14:59:00,
2013-11-13 10:00:00,74.8,67.1,30.07,ENE,57,18.0,18.0,77,0.00,,FEW,0.00,169.00,VWS V14.01,2013-11-13 15:00:00,
2013-11-13 10:02:00,74.7,67.0,30.07,NE,49,13.0,19.0,77,0.00,,FEW,0.00,178.00,VWS V14.01,2013-11-13 15:02:00,
2013-11-13 10:03:00,74.7,67.0,30.07,NNE,24,9.0,19.0,77,0.00,,FEW,0.00,179.00,VWS V14.01,2013-11-13 15:03:00,
2013-11-13 10:04:00,74.7,67.0,30.07,NE,35,9.0,19.0,77,0.00,,FEW,0.00,181.00,VWS V14.01,2013-11-13 15:04:00,
2013-11-13 10:05:00,74.7,67.0,30.07,NNE,16,14.0,19.0,77,0.00,,FEW,0.00,179.00,VWS V14.01,2013-11-13 15:05:00,
2013-11-13 10:07:00,74.6,66.9,30.07,NNE,15,11.0,19.0,77,0.00,,FEW,0.00,185.00,VWS V14.01,2013-11-13 15:07:00,
2013-11-13 10:08:00,74.6,66.9,30.07,NNE,17,16.0,19.0,77,0.00,,FEW,0.00,188.00,VWS V14.01,2013-11-13 15:08:00,
2013-11-13 10:10:00,74.5,66.8,30.07,NNE,26,9.0,19.0,77,0.00,,FEW,0.00,162.00,VWS V14.01,2013-11-13 15:10:00,
2013-11-13 10:12:00,74.5,66.8,30.07,NNE,26,8.0,10.0,77,0.00,,FEW,0.00,134.00,VWS V14.01,2013-11-13 15:12:00,
2013-11-13 10:13:00,74.6,66.9,30.07,NNE,33,13.0,13.0,77,0.00,,FEW,0.00,123.00,VWS V14.01,2013-11-13 15:13:00,
2013-11-13 10:14:00,74.6,66.9,30.07,NE,53,10.0,13.0,77,0.00,,FEW,0.00,123.00,VWS V14.01,2013-11-13 15:14:00,
2013-11-13 10:15:00,74.5,66.8,30.07,North,355,7.0,15.0,77,0.00,,FEW,0.00,121.00,VWS V14.01,2013-11-13 15:15:00,
2013-11-13 10:17:00,74.3,66.2,30.07,NNE,15,6.0,17.0,76,0.00,,FEW,0.00,151.00,VWS V14.01,2013-11-13 15:17:00,
2013-11-13 10:18:00,74.2,66.2,30.07,NE,36,8.0,17.0,76,0.00,,FEW,0.00,162.00,VWS V14.01,2013-11-13 15:18:00,
2013-11-13 10:19:00,74.2,66.2,30.07,NE,38,6.0,17.0,76,0.00,,FEW,0.00,162.00,VWS V14.01,2013-11-13 15:19:00,
2013-11-13 10:20:00,74.3,66.2,30.07,NE,45,13.0,17.0,76,0.00,,FEW,0.00,178.00,VWS V14.01,2013-11-13 15:20:00,
2013-11-13 10:22:00,74.3,66.2,30.07,NNE,32,12.0,12.0,76,0.00,,FEW,0.00,188.00,VWS V14.01,2013-11-13 15:22:00,
2013-11-13 10:23:00,74.3,66.2,30.07,NNE,17,10.0,14.0,76,0.00,,FEW,0.00,199.00,VWS V14.01,2013-11-13 15:23:00,
2013-11-13 10:24:00,74.2,66.2,30.07,NNE,30,7.0,14.0,76,0.00,,FEW,0.00,204.00,VWS V14.01,2013-11-13 15:24:00,
2013-11-13 10:25:00,74.3,66.2,30.07,NNE,14,9.0,14.0,76,0.00,,FEW,0.00,209.00,VWS V14.01,2013-11-13 15:25:00,
2013-11-13 10:27:00,74.4,66.7,30.07,NE,40,11.0,16.0,77,0.00,,FEW,0.00,197.00,VWS V14.01,2013-11-13 15:27:00,
2013-11-13 10:28:00,74.4,66.7,30.07,North,5,9.0,16.0,77,0.00,,FEW,0.00,188.00,VWS V14.01,2013-11-13 15:28:00,
2013-11-13 10:29:00,74.4,66.7,30.07,NE,51,7.0,16.0,77,0.00,,FEW,0.00,181.00,VWS V14.01,2013-11-13 15:29:00,
2013-11-13 10:30:00,74.4,66.7,30.07,NE,38,10.0,16.0,77,0.00,,FEW,0.00,176.00,VWS V14.01,2013-11-13 15:30:00,
2013-11-13 10:32:00,74.4,66.7,30.07,NE,43,11.0,18.0,77,0.00,,FEW,0.00,165.00,VWS V14.01,2013-11-13 15:32:00,
2013-11-13 10:33:00,74.4,66.7,30.07,North,9,5.0,18.0,77,0.00,,FEW,0.00,162.00,VWS V14.01,2013-11-13 15:33:00,
2013-11-13 10:34:00,74.5,67.2,30.07,NNE,33,12.0,18.0,78,0.00,,FEW,0.00,160.00,VWS V14.01,2013-11-13 15:34:00,
2013-11-13 10:35:00,74.4,67.1,30.07,NE,44,9.0,18.0,78,0.00,,FEW,0.00,165.00,VWS V14.01,2013-11-13 15:35:00,
2013-11-13 10:37:00,74.3,66.6,30.07,NNW,336,8.0,18.0,77,0.00,,FEW,0.00,179.00,VWS V14.01,2013-11-13 15:37:00,
2013-11-13 10:38:00,74.3,66.6,30.07,NNW,335,8.0,18.0,77,0.00,,FEW,0.00,179.00,VWS V14.01,2013-11-13 15:38:00,
2013-11-13 10:39:00,74.2,66.5,30.07,NNE,23,11.0,18.0,77,0.00,,FEW,0.00,176.00,VWS V14.01,2013-11-13 15:39:00,
2013-11-13 10:40:00,74.2,66.5,30.07,NE,36,7.0,18.0,77,0.00,,FEW,0.00,153.00,VWS V14.01,2013-11-13 15:40:00,
2013-11-13 10:41:00,74.2,66.5,30.07,NNE,19,11.0,11.0,77,0.00,,FEW,0.00,153.00,VWS V14.01,2013-11-13 15:41:00,
2013-11-13 10:43:00,74.1,66.8,30.07,NNW,348,9.0,20.0,78,0.00,,FEW,0.00,149.00,VWS V14.01,2013-11-13 15:43:00,
2013-11-13 10:44:00,74.0,66.3,30.07,NNE,23,13.0,20.0,77,0.00,,FEW,0.00,160.00,VWS V14.01,2013-11-13 15:44:00,
2013-11-13 10:46:00,74.0,66.3,30.07,NE,45,4.0,20.0,77,0.00,,FEW,0.00,185.00,VWS V14.01,2013-11-13 15:46:00,
2013-11-13 10:48:00,73.9,66.6,30.07,NNE,32,15.0,20.0,78,0.00,,FEW,0.00,199.00,VWS V14.01,2013-11-13 15:48:00,
2013-11-13 10:49:00,74.0,66.7,30.07,NNW,345,9.0,20.0,78,0.00,,FEW,0.00,197.00,VWS V14.01,2013-11-13 15:49:00,
2013-11-13 10:50:00,74.0,67.1,30.07,NNW,346,10.0,20.0,79,0.00,,FEW,0.00,206.00,VWS V14.01,2013-11-13 15:50:00,
2013-11-13 10:51:00,74.0,67.1,30.07,North,5,4.0,12.0,79,0.00,,FEW,0.00,206.00,VWS V14.01,2013-11-13 15:51:00,
2013-11-13 10:53:00,74.1,66.8,30.07,ENE,62,7.0,16.0,78,0.00,,FEW,0.00,257.00,VWS V14.01,2013-11-13 15:53:00,
2013-11-13 10:54:00,74.1,66.8,30.07,NNE,15,10.0,16.0,78,0.00,,FEW,0.00,257.00,VWS V14.01,2013-11-13 15:54:00,
2013-11-13 10:55:00,74.1,66.8,30.07,NE,40,10.0,16.0,78,0.00,,FEW,0.00,251.00,VWS V14.01,2013-11-13 15:55:00,
2013-11-13 10:56:00,74.1,66.8,30.07,NNE,19,12.0,16.0,78,0.00,,FEW,0.00,239.00,VWS V14.01,2013-11-13 15:56:00,
2013-11-13 10:58:00,74.1,66.8,30.07,NE,42,10.0,16.0,78,0.00,,FEW,0.00,272.00,VWS V14.01,2013-11-13 15:58:00,
2013-11-13 10:59:00,74.2,66.9,30.07,NE,34,9.0,16.0,78,0.00,,FEW,0.00,272.00,VWS V14.01,2013-11-13 15:59:00,
2013-11-13 11:00:00,74.2,67.3,30.07,NE,34,7.0,18.0,79,0.00,,FEW,0.00,279.00,VWS V14.01,2013-11-13 16:00:00,
2013-11-13 11:01:00,74.3,67.4,30.07,NNE,32,16.0,16.0,79,0.00,,FEW,0.00,258.00,VWS V14.01,2013-11-13 16:01:00,
2013-11-13 11:04:00,74.4,67.1,30.07,North,5,8.0,16.0,78,0.00,,FEW,0.00,220.00,VWS V14.01,2013-11-13 16:04:00,
2013-11-13 11:05:00,74.4,67.1,30.07,NNE,32,8.0,16.0,78,0.00,,FEW,0.00,220.00,VWS V14.01,2013-11-13 16:05:00,
2013-11-13 11:06:00,74.4,67.1,30.07,North,5,11.0,18.0,78,0.00,,FEW,0.00,220.00,VWS V14.01,2013-11-13 16:06:00,
2013-11-13 11:09:00,74.4,67.5,30.07,NNE,24,7.0,18.0,79,0.00,,FEW,0.00,260.00,VWS V14.01,2013-11-13 16:09:00,
2013-11-13 11:10:00,74.4,67.1,30.07,North,5,10.0,18.0,78,0.00,,FEW,0.00,265.00,VWS V14.01,2013-11-13 16:10:00,
2013-11-13 11:11:00,74.4,67.1,30.07,NNE,19,14.0,19.0,78,0.00,,FEW,0.00,283.00,VWS V14.01,2013-11-13 16:11:00,
2013-11-13 11:14:00,74.5,67.6,30.07,NNE,13,11.0,19.0,79,0.00,,FEW,0.00,366.00,VWS V14.01,2013-11-13 16:14:00,
2013-11-13 11:15:00,74.7,67.8,30.06,NNE,22,16.0,19.0,79,0.00,,FEW,0.00,387.00,VWS V14.01,2013-11-13 16:15:00,
2013-11-13 11:16:00,74.9,67.9,30.06,NNE,30,13.0,19.0,79,0.00,,FEW,0.00,392.00,VWS V14.01,2013-11-13 16:16:00,
2013-11-13 11:17:00,74.9,67.9,30.06,NE,40,14.0,19.0,79,0.00,,FEW,0.00,399.00,VWS V14.01,2013-11-13 16:17:00,
2013-11-13 11:19:00,75.1,67.8,30.06,North,9,6.0,19.0,78,0.00,,FEW,0.00,399.00,VWS V14.01,2013-11-13 16:19:00,
2013-11-13 11:20:00,75.3,68.0,30.06,NNE,17,9.0,19.0,78,0.00,,FEW,0.00,452.00,VWS V14.01,2013-11-13 16:20:00,
2013-11-13 11:21:00,75.5,68.5,30.06,NE,55,8.0,12.0,79,0.00,,FEW,0.00,452.00,VWS V14.01,2013-11-13 16:21:00,
2013-11-13 11:22:00,75.5,68.5,30.06,NNE,27,9.0,22.0,79,0.00,,FEW,0.00,506.00,VWS V14.01,2013-11-13 16:22:00,
2013-11-13 11:24:00,75.6,67.9,30.06,NNE,29,12.0,22.0,77,0.00,,FEW,0.00,522.00,VWS V14.01,2013-11-13 16:24:00,
2013-11-13 11:25:00,75.7,68.0,30.06,NE,49,6.0,22.0,77,0.00,,FEW,0.00,522.00,VWS V14.01,2013-11-13 16:25:00,
2013-11-13 11:26:00,75.8,68.1,30.06,NNE,26,10.0,22.0,77,0.00,,FEW,0.00,403.00,VWS V14.01,2013-11-13 16:26:00,
2013-11-13 11:27:00,75.8,68.1,30.06,NE,34,15.0,22.0,77,0.00,,FEW,0.00,403.00,VWS V14.01,2013-11-13 16:27:00,
2013-11-13 11:29:00,75.8,67.7,30.06,NNE,29,7.0,22.0,76,0.00,,FEW,0.00,387.00,VWS V14.01,2013-11-13 16:29:00,
2013-11-13 11:30:00,75.8,67.7,30.05,North,5,7.0,22.0,76,0.00,,FEW,0.00,387.00,VWS V14.01,2013-11-13 16:30:00,
2013-11-13 11:31:00,75.9,67.8,30.05,NNE,26,10.0,19.0,76,0.00,,FEW,0.00,403.00,VWS V14.01,2013-11-13 16:31:00,
2013-11-13 11:32:00,75.8,67.7,30.05,NNE,32,11.0,19.0,76,0.00,,FEW,0.00,457.00,VWS V14.01,2013-11-13 16:32:00,
2013-11-13 11:34:00,75.9,67.8,30.05,NNE,19,8.0,19.0,76,0.00,,FEW,0.00,461.00,VWS V14.01,2013-11-13 16:34:00,
2013-11-13 11:35:00,75.9,67.8,30.05,NE,42,6.0,19.0,76,0.00,,FEW,0.00,492.00,VWS V14.01,2013-11-13 16:35:00,
2013-11-13 11:36:00,76.0,67.9,30.05,NE,46,17.0,19.0,76,0.00,,FEW,0.00,533.00,VWS V14.01,2013-11-13 16:36:00,
2013-11-13 11:37:00,76.0,67.9,30.05,ENE,76,15.0,19.0,76,0.00,,FEW,0.00,582.00,VWS V14.01,2013-11-13 16:37:00,
2013-11-13 11:38:00,76.0,67.9,30.05,North,355,8.0,19.0,76,0.00,,FEW,0.00,582.00,VWS V14.01,2013-11-13 16:38:00,
2013-11-13 11:39:00,76.2,68.1,30.05,NNE,30,16.0,19.0,76,0.00,,FEW,0.00,561.00,VWS V14.01,2013-11-13 16:39:00,
2013-11-13 11:40:00,76.3,68.2,30.05,NNE,28,9.0,19.0,76,0.00,,FEW,0.00,561.00,VWS V14.01,2013-11-13 16:40:00,
2013-11-13 11:41:00,76.3,68.2,30.05,NNE,30,10.0,21.0,76,0.00,,FEW,0.00,712.00,VWS V14.01,2013-11-13 16:41:00,
2013-11-13 11:42:00,76.4,68.3,30.05,NE,43,5.0,21.0,76,0.00,,FEW,0.00,712.00,VWS V14.01,2013-11-13 16:42:00,
2013-11-13 11:43:00,76.4,68.7,30.05,North,355,11.0,21.0,77,0.00,,FEW,0.00,712.00,VWS V14.01,2013-11-13 16:43:00,
2013-11-13 11:44:00,76.5,68.4,30.05,NNE,17,13.0,21.0,76,0.00,,FEW,0.00,512.00,VWS V14.01,2013-11-13 16:44:00,
2013-11-13 11:45:00,76.5,68.4,30.05,NNE,28,8.0,21.0,76,0.00,,FEW,0.00,545.00,VWS V14.01,2013-11-13 16:45:00,
2013-11-13 11:46:00,76.5,68.8,30.05,NE,34,10.0,21.0,77,0.00,,FEW,0.00,592.00,VWS V14.01,2013-11-13 16:46:00,
2013-11-13 11:48:00,76.6,68.9,30.05,NNE,27,11.0,21.0,77,0.00,,FEW,0.00,626.00,VWS V14.01,2013-11-13 16:48:00,
2013-11-13 11:50:00,76.5,68.0,30.05,NE,46,2.0,22.0,75,0.00,,FEW,0.00,461.00,VWS V14.01,2013-11-13 16:50:00,
2013-11-13 11:52:00,76.5,68.0,30.05,ENE,58,5.0,18.0,75,0.00,,FEW,0.00,462.00,VWS V14.01,2013-11-13 16:52:00,
2013-11-13 11:53:00,76.3,67.8,30.05,North,10,6.0,18.0,75,0.00,,FEW,0.00,483.00,VWS V14.01,2013-11-13 16:53:00,
2013-11-13 11:55:00,76.2,68.1,30.05,NNW,344,9.0,19.0,76,0.00,,FEW,0.00,422.00,VWS V14.01,2013-11-13 16:55:00,
2013-11-13 11:57:00,76.1,68.0,30.05,NE,34,15.0,19.0,76,0.00,,FEW,0.00,380.00,VWS V14.01,2013-11-13 16:57:00,
2013-11-13 11:58:00,76.0,67.5,30.05,NNE,23,10.0,19.0,75,0.00,,FEW,0.00,362.00,VWS V14.01,2013-11-13 16:58:00,
2013-11-13 11:59:00,75.9,67.8,30.05,NNE,22,13.0,19.0,76,0.00,,FEW,0.00,355.00,VWS V14.01,2013-11-13 16:59:00,
2013-11-13 12:00:00,75.8,67.7,30.05,NE,34,5.0,19.0,76,0.00,,FEW,0.00,362.00,VWS V14.01,2013-11-13 17:00:00,
2013-11-13 12:02:00,76.0,68.3,30.05,NNE,14,14.0,16.0,77,0.00,,FEW,0.00,366.00,VWS V14.01,2013-11-13 17:02:00,
2013-11-13 12:03:00,76.0,68.3,30.05,North,355,15.0,16.0,77,0.00,,FEW,0.00,371.00,VWS V14.01,2013-11-13 17:03:00,
2013-11-13 12:04:00,75.9,68.2,30.05,NE,43,8.0,19.0,77,0.00,,FEW,0.00,443.00,VWS V14.01,2013-11-13 17:04:00,
2013-11-13 12:05:00,75.9,68.2,30.05,NE,40,11.0,19.0,77,0.00,,FEW,0.00,332.00,VWS V14.01,2013-11-13 17:05:00,
2013-11-13 12:06:00,75.9,68.2,30.05,NE,44,9.0,19.0,77,0.00,,FEW,0.00,332.00,VWS V14.01,2013-11-13 17:06:00,
2013-11-13 12:07:00,75.9,68.2,30.05,NE,38,6.0,19.0,77,0.00,,FEW,0.00,301.00,VWS V14.01,2013-11-13 17:07:00,
2013-11-13 12:08:00,75.8,68.1,30.05,NNE,19,13.0,19.0,77,0.00,,FEW,0.00,290.00,VWS V14.01,2013-11-13 17:08:00,
2013-11-13 12:09:00,75.8,68.1,30.05,NNE,17,5.0,19.0,77,0.00,,FEW,0.00,278.00,VWS V14.01,2013-11-13 17:09:00,
2013-11-13 12:10:00,75.8,68.1,30.05,North,9,6.0,10.0,77,0.00,,FEW,0.00,260.00,VWS V14.01,2013-11-13 17:10:00,
2013-11-13 12:11:00,75.8,67.7,30.05,NE,49,6.0,10.0,76,0.00,,FEW,0.00,260.00,VWS V14.01,2013-11-13 17:11:00,
2013-11-13 12:12:00,75.7,67.6,30.05,NE,39,5.0,13.0,76,0.00,,FEW,0.00,253.00,VWS V14.01,2013-11-13 17:12:00,
2013-11-13 12:13:00,75.7,67.6,30.05,NNE,15,6.0,13.0,76,0.00,,FEW,0.00,283.00,VWS V14.01,2013-11-13 17:13:00,
2013-11-13 12:15:00,75.7,67.6,30.04,NNE,24,9.0,16.0,76,0.00,,FEW,0.00,348.00,VWS V14.01,2013-11-13 17:15:00,
2013-11-13 12:16:00,75.8,68.1,30.04,NE,42,5.0,16.0,77,0.00,,FEW,0.00,316.00,VWS V14.01,2013-11-13 17:16:00,
2013-11-13 12:17:00,75.9,68.2,30.04,NNE,28,4.0,16.0,77,0.00,,FEW,0.00,362.00,VWS V14.01,2013-11-13 17:17:00,
2013-11-13 12:18:00,76.0,68.3,30.04,NNE,33,11.0,16.0,77,0.00,,FEW,0.00,306.00,VWS V14.01,2013-11-13 17:18:00,
2013-11-13 12:20:00,76.0,68.3,30.04,North,5,8.0,16.0,77,0.00,,FEW,0.00,383.00,VWS V14.01,2013-11-13 17:20:00,
2013-11-13 12:21:00,76.1,68.4,30.04,NNE,18,18.0,18.0,77,0.00,,FEW,0.00,339.00,VWS V14.01,2013-11-13 17:21:00,
2013-11-13 12:22:00,76.2,68.5,30.04,NNE,19,5.0,18.0,77,0.00,,FEW,0.00,527.00,VWS V14.01,2013-11-13 17:22:00,
2013-11-13 12:23:00,76.2,68.5,30.04,NE,52,6.0,18.0,77,0.00,,FEW,0.00,527.00,VWS V14.01,2013-11-13 17:23:00,
2013-11-13 12:25:00,76.5,68.4,30.04,NE,39,13.0,18.0,76,0.00,,FEW,0.00,527.00,VWS V14.01,2013-11-13 17:25:00,
2013-11-13 12:26:00,76.6,68.5,30.04,NNE,21,12.0,18.0,76,0.00,,FEW,0.00,527.00,VWS V14.01,2013-11-13 17:26:00,
2013-11-13 12:27:00,76.9,68.8,30.04,NE,44,19.0,19.0,76,0.00,,FEW,0.00,810.00,VWS V14.01,2013-11-13 17:27:00,
2013-11-13 12:28:00,77.0,68.5,30.04,NNE,24,10.0,19.0,75,0.00,,FEW,0.00,810.00,VWS V14.01,2013-11-13 17:28:00,
2013-11-13 12:30:00,77.2,68.7,30.03,NNE,22,15.0,19.0,75,0.00,,FEW,0.00,810.00,VWS V14.01,2013-11-13 17:30:00,
2013-11-13 12:31:00,77.2,68.3,30.03,NE,46,6.0,12.0,74,0.00,,FEW,0.00,538.00,VWS V14.01,2013-11-13 17:31:00,
2013-11-13 12:32:00,77.3,68.4,30.03,NE,43,11.0,12.0,74,0.00,,FEW,0.00,538.00,VWS V14.01,2013-11-13 17:32:00,
2013-11-13 12:34:00,77.6,69.1,30.03,NNE,24,10.0,15.0,75,0.00,,FEW,0.00,682.00,VWS V14.01,2013-11-13 17:34:00,
2013-11-13 12:35:00,77.7,69.2,30.03,NNW,339,12.0,17.0,75,0.00,,FEW,0.00,682.00,VWS V14.01,2013-11-13 17:35:00,
2013-11-13 12:36:00,77.7,68.8,30.03,NE,38,13.0,17.0,74,0.00,,FEW,0.00,828.00,VWS V14.01,2013-11-13 17:36:00,
2013-11-13 12:37:00,77.7,68.8,30.03,ENE,57,8.0,17.0,74,0.00,,FEW,0.00,828.00,VWS V14.01,2013-11-13 17:37:00,
2013-11-13 12:38:00,77.9,68.9,30.03,NNE,22,13.0,17.0,74,0.00,,FEW,0.00,809.00,VWS V14.01,2013-11-13 17:38:00,
2013-11-13 12:39:00,78.2,69.2,30.03,NNW,344,9.0,17.0,74,0.00,,FEW,0.00,911.00,VWS V14.01,2013-11-13 17:39:00,
2013-11-13 12:40:00,78.4,69.0,30.03,NE,51,13.0,18.0,73,0.00,,FEW,0.00,911.00,VWS V14.01,2013-11-13 17:40:00,
2013-11-13 12:41:00,78.4,69.0,30.03,NE,53,9.0,13.0,73,0.00,,FEW,0.00,911.00,VWS V14.01,2013-11-13 17:41:00,
2013-11-13 12:42:00,78.3,68.9,30.03,NNE,30,14.0,14.0,73,0.00,,FEW,0.00,911.00,VWS V14.01,2013-11-13 17:42:00,
2013-11-13 12:43:00,78.0,68.2,30.03,North,9,12.0,20.0,72,0.00,,FEW,0.00,376.00,VWS V14.01,2013-11-13 17:43:00,
2013-11-13 12:45:00,77.7,68.4,30.02,NE,45,10.0,20.0,73,0.00,,FEW,0.00,297.00,VWS V14.01,2013-11-13 17:45:00,
2013-11-13 12:46:00,77.6,68.3,30.02,NNE,22,6.0,20.0,73,0.00,,FEW,0.00,283.00,VWS V14.01,2013-11-13 17:46:00,
2013-11-13 12:47:00,77.5,68.2,30.02,NE,44,6.0,20.0,73,0.00,,FEW,0.00,348.00,VWS V14.01,2013-11-13 17:47:00,
2013-11-13 12:48:00,77.4,68.5,30.02,NNE,20,15.0,20.0,74,0.00,,FEW,0.00,381.00,VWS V14.01,2013-11-13 17:48:00,
2013-11-13 12:50:00,77.4,68.9,30.02,NNE,30,5.0,20.0,75,0.00,,FEW,0.00,417.00,VWS V14.01,2013-11-13 17:50:00,
2013-11-13 12:51:00,77.6,69.1,30.02,NNE,13,6.0,8.0,75,0.00,,FEW,0.00,417.00,VWS V14.01,2013-11-13 17:51:00,
2013-11-13 12:52:00,77.7,68.8,30.02,NE,38,10.0,15.0,74,0.00,,FEW,0.00,417.00,VWS V14.01,2013-11-13 17:52:00,
2013-11-13 12:53:00,77.7,68.4,30.02,NNE,29,11.0,15.0,73,0.00,,FEW,0.00,766.00,VWS V14.01,2013-11-13 17:53:00,
2013-11-13 12:55:00,77.7,68.4,30.02,North,355,11.0,15.0,73,0.00,,FEW,0.00,503.00,VWS V14.01,2013-11-13 17:55:00,
2013-11-13 12:56:00,77.6,68.3,30.02,NNE,30,18.0,18.0,73,0.00,,FEW,0.00,415.00,VWS V14.01,2013-11-13 17:56:00,
2013-11-13 12:57:00,77.6,68.3,30.02,NNE,30,6.0,18.0,73,0.00,,FEW,0.00,387.00,VWS V14.01,2013-11-13 17:57:00,
2013-11-13 12:59:00,77.5,68.2,30.02,NE,46,11.0,20.0,73,0.00,,FEW,0.00,364.00,VWS V14.01,2013-11-13 17:59:00,
2013-11-13 13:00:00,77.4,68.1,30.02,North,355,9.0,20.0,73,0.00,,FEW,0.00,329.00,VWS V14.01,2013-11-13 18:00:00,
2013-11-13 13:01:00,77.3,68.4,30.02,NNE,14,7.0,17.0,74,0.00,,FEW,0.00,313.00,VWS V14.01,2013-11-13 18:01:00,
2013-11-13 13:02:00,77.3,68.4,30.02,NNE,32,9.0,17.0,74,0.00,,FEW,0.00,313.00,VWS V14.01,2013-11-13 18:02:00,
2013-11-13 13:03:00,77.1,68.2,30.02,NE,48,13.0,17.0,74,0.00,,FEW,0.00,295.00,VWS V14.01,2013-11-13 18:03:00,
2013-11-13 13:04:00,77.0,68.1,30.02,NE,36,12.0,17.0,74,0.00,,FEW,0.00,294.00,VWS V14.01,2013-11-13 18:04:00,
2013-11-13 13:05:00,76.8,67.9,30.02,NE,48,5.0,17.0,74,0.00,,FEW,0.00,285.00,VWS V14.01,2013-11-13 18:05:00,
2013-11-13 13:06:00,76.8,68.3,30.02,NE,38,12.0,17.0,75,0.00,,FEW,0.00,285.00,VWS V14.01,2013-11-13 18:06:00,
2013-11-13 13:07:00,76.8,68.3,30.02,NE,53,10.0,17.0,75,0.00,,FEW,0.00,285.00,VWS V14.01,2013-11-13 18:07:00,
2013-11-13 13:08:00,76.8,68.3,30.02,NNE,30,8.0,17.0,75,0.00,,FEW,0.00,288.00,VWS V14.01,2013-11-13 18:08:00,
2013-11-13 13:09:00,76.7,68.2,30.02,ENE,62,12.0,17.0,75,0.00,,FEW,0.00,292.00,VWS V14.01,2013-11-13 18:09:00,
2013-11-13 13:10:00,76.6,68.1,30.02,NE,48,4.0,17.0,75,0.00,,FEW,0.00,272.00,VWS V14.01,2013-11-13 18:10:00,
2013-11-13 13:11:00,76.6,68.1,30.02,NNE,16,6.0,10.0,75,0.00,,FEW,0.00,272.00,VWS V14.01,2013-11-13 18:11:00,
2013-11-13 13:12:00,76.6,68.1,30.02,North,360,7.0,15.0,75,0.00,,FEW,0.00,260.00,VWS V14.01,2013-11-13 18:12:00,
2013-11-13 13:13:00,76.7,68.2,30.02,NE,36,5.0,15.0,75,0.00,,FEW,0.00,255.00,VWS V14.01,2013-11-13 18:13:00,
2013-11-13 13:14:00,76.6,67.7,30.02,NE,39,7.0,15.0,74,0.00,,FEW,0.00,253.00,VWS V14.01,2013-11-13 18:14:00,
2013-11-13 13:16:00,76.6,68.1,30.02,NNE,26,11.0,16.0,75,0.00,,FEW,0.00,260.00,VWS V14.01,2013-11-13 18:16:00,
2013-11-13 13:17:00,76.6,67.7,30.02,NE,44,14.0,19.0,74,0.00,,FEW,0.00,271.00,VWS V14.01,2013-11-13 18:17:00,
2013-11-13 13:18:00,76.6,67.7,30.02,NE,46,7.0,19.0,74,0.00,,FEW,0.00,271.00,VWS V14.01,2013-11-13 18:18:00,
2013-11-13 13:19:00,76.6,68.1,30.02,NE,55,5.0,19.0,75,0.00,,FEW,0.00,287.00,VWS V14.01,2013-11-13 18:19:00,
2013-11-13 13:20:00,76.6,68.1,30.02,ENE,74,10.0,19.0,75,0.00,,FEW,0.00,292.00,VWS V14.01,2013-11-13 18:20:00,
2013-11-13 13:21:00,76.6,68.1,30.02,NNE,20,12.0,13.0,75,0.00,,FEW,0.00,292.00,VWS V14.01,2013-11-13 18:21:00,
2013-11-13 13:22:00,76.6,68.1,30.02,NNE,28,12.0,15.0,75,0.00,,FEW,0.00,292.00,VWS V14.01,2013-11-13 18:22:00,
2013-11-13 13:23:00,76.6,68.1,30.02,NE,47,6.0,15.0,75,0.00,,FEW,0.00,292.00,VWS V14.01,2013-11-13 18:23:00,
2013-11-13 13:24:00,76.6,68.1,30.02,North,355,5.0,18.0,75,0.00,,FEW,0.00,306.00,VWS V14.01,2013-11-13 18:24:00,
2013-11-13 13:26:00,76.8,68.3,30.02,NNE,28,7.0,18.0,75,0.00,,FEW,0.00,350.00,VWS V14.01,2013-11-13 18:26:00,
2013-11-13 13:27:00,76.8,68.3,30.02,NNE,21,7.0,18.0,75,0.00,,FEW,0.00,376.00,VWS V14.01,2013-11-13 18:27:00,
2013-11-13 13:28:00,76.9,68.4,30.02,NNE,14,7.0,18.0,75,0.00,,FEW,0.00,397.00,VWS V14.01,2013-11-13 18:28:00,
2013-11-13 13:29:00,77.0,68.5,30.02,NNE,15,7.0,18.0,75,0.00,,FEW,0.00,411.00,VWS V14.01,2013-11-13 18:29:00,
2013-11-13 13:30:00,77.1,68.2,30.02,NNE,33,6.0,18.0,74,0.00,,FEW,0.00,425.00,VWS V14.01,2013-11-13 18:30:00,
2013-11-13 13:32:00,77.1,68.2,30.02,NNE,14,12.0,14.0,74,0.00,,FEW,0.00,452.00,VWS V14.01,2013-11-13 18:32:00,
2013-11-13 13:33:00,77.1,67.8,30.02,NNE,19,9.0,18.0,73,0.00,,FEW,0.00,464.00,VWS V14.01,2013-11-13 18:33:00,
2013-11-13 13:34:00,77.1,67.8,30.02,NNE,30,7.0,18.0,73,0.00,,FEW,0.00,443.00,VWS V14.01,2013-11-13 18:34:00,
2013-11-13 13:37:00,77.3,68.4,30.02,NNE,22,11.0,18.0,74,0.00,,FEW,0.00,410.00,VWS V14.01,2013-11-13 18:37:00,
2013-11-13 13:38:00,77.3,68.0,30.02,NW,322,6.0,18.0,73,0.00,,FEW,0.00,450.00,VWS V14.01,2013-11-13 18:38:00,
2013-11-13 13:39:00,77.3,68.4,30.02,NNE,19,8.0,18.0,74,0.00,,FEW,0.00,450.00,VWS V14.01,2013-11-13 18:39:00,
2013-11-13 13:40:00,77.4,68.5,30.02,NNE,31,6.0,18.0,74,0.00,,FEW,0.00,450.00,VWS V14.01,2013-11-13 18:40:00,
2013-11-13 13:42:00,77.4,68.1,30.02,NNE,24,6.0,10.0,73,0.00,,FEW,0.00,420.00,VWS V14.01,2013-11-13 18:42:00,
2013-11-13 13:43:00,77.4,68.1,30.02,ENE,59,9.0,15.0,73,0.00,,FEW,0.00,422.00,VWS V14.01,2013-11-13 18:43:00,
2013-11-13 13:44:00,77.4,68.1,30.02,NNE,19,8.0,15.0,73,0.00,,FEW,0.00,424.00,VWS V14.01,2013-11-13 18:44:00,
2013-11-13 13:45:00,77.4,68.1,30.01,NE,43,10.0,19.0,73,0.00,,FEW,0.00,424.00,VWS V14.01,2013-11-13 18:45:00,
2013-11-13 13:47:00,77.3,68.0,30.01,NNE,32,14.0,19.0,73,0.00,,FEW,0.00,833.00,VWS V14.01,2013-11-13 18:47:00,
2013-11-13 13:49:00,77.6,68.3,30.01,North,11,10.0,19.0,73,0.00,,FEW,0.00,805.00,VWS V14.01,2013-11-13 18:49:00,
2013-11-13 13:50:00,77.9,68.6,30.01,NE,50,6.0,19.0,73,0.00,,FEW,0.00,805.00,VWS V14.01,2013-11-13 18:50:00,
2013-11-13 13:52:00,78.0,68.2,30.01,NE,41,3.0,21.0,72,0.00,,FEW,0.00,455.00,VWS V14.01,2013-11-13 18:52:00,
2013-11-13 13:54:00,78.0,68.2,30.01,NE,49,7.0,21.0,72,0.00,,FEW,0.00,508.00,VWS V14.01,2013-11-13 18:54:00,
2013-11-13 13:55:00,78.0,68.7,30.01,NE,38,14.0,21.0,73,0.00,,FEW,0.00,606.00,VWS V14.01,2013-11-13 18:55:00,
2013-11-13 13:57:00,78.0,68.7,30.01,NE,37,6.0,21.0,73,0.00,,FEW,0.00,668.00,VWS V14.01,2013-11-13 18:57:00,
2013-11-13 13:58:00,78.1,68.8,30.01,ENE,59,14.0,21.0,73,0.00,,FEW,0.00,615.00,VWS V14.01,2013-11-13 18:58:00,
2013-11-13 13:59:00,78.0,68.7,30.01,NE,39,6.0,21.0,73,0.00,,FEW,0.00,483.00,VWS V14.01,2013-11-13 18:59:00,
2013-11-13 14:00:00,78.1,68.8,30.01,NE,44,10.0,21.0,73,0.00,,FEW,0.00,483.00,VWS V14.01,2013-11-13 19:00:00,
2013-11-13 14:01:00,78.0,68.7,30.01,North,9,8.0,13.0,73,0.00,,FEW,0.00,383.00,VWS V14.01,2013-11-13 19:01:00,
2013-11-13 14:02:00,77.8,68.5,30.01,NE,49,11.0,13.0,73,0.00,,FEW,0.00,315.00,VWS V14.01,2013-11-13 19:02:00,
2013-11-13 14:03:00,77.7,68.4,30.01,NE,56,8.0,15.0,73,0.00,,FEW,0.00,274.00,VWS V14.01,2013-11-13 19:03:00,
2013-11-13 14:04:00,77.5,68.2,30.01,NNE,26,10.0,15.0,73,0.00,,FEW,0.00,230.00,VWS V14.01,2013-11-13 19:04:00,
2013-11-13 14:05:00,77.4,68.1,30.01,NNE,25,7.0,15.0,73,0.00,,FEW,0.00,230.00,VWS V14.01,2013-11-13 19:05:00,
2013-11-13 14:06:00,77.3,68.4,30.01,NE,34,8.0,15.0,74,0.00,,FEW,0.00,220.00,VWS V14.01,2013-11-13 19:06:00,
2013-11-13 14:07:00,77.1,68.2,30.01,NE,52,6.0,15.0,74,0.00,,FEW,0.00,207.00,VWS V14.01,2013-11-13 19:07:00,
2013-11-13 14:08:00,77.0,68.1,30.01,NE,38,3.0,15.0,74,0.00,,FEW,0.00,204.00,VWS V14.01,2013-11-13 19:08:00,
2013-11-13 14:09:00,76.9,68.4,30.01,NNE,31,7.0,15.0,75,0.00,,FEW,0.00,202.00,VWS V14.01,2013-11-13 19:09:00,
2013-11-13 14:10:00,76.9,68.4,30.01,NNE,17,12.0,15.0,75,0.00,,FEW,0.00,204.00,VWS V14.01,2013-11-13 19:10:00,
2013-11-13 14:11:00,76.7,68.2,30.01,North,5,20.0,20.0,75,0.00,,FEW,0.00,206.00,VWS V14.01,2013-11-13 19:11:00,
2013-11-13 14:12:00,76.6,68.1,30.01,NNE,27,9.0,20.0,75,0.00,,FEW,0.00,207.00,VWS V14.01,2013-11-13 19:12:00,
2013-11-13 14:13:00,76.5,68.0,30.01,NW,321,8.0,20.0,75,0.00,,FEW,0.00,209.00,VWS V14.01,2013-11-13 19:13:00,
2013-11-13 14:14:00,76.4,67.9,30.01,North,360,12.0,20.0,75,0.00,,FEW,0.00,211.00,VWS V14.01,2013-11-13 19:14:00,
2013-11-13 14:15:00,76.3,67.8,30.00,NE,46,8.0,20.0,75,0.00,,FEW,0.00,211.00,VWS V14.01,2013-11-13 19:15:00,
2013-11-13 14:16:00,76.2,67.7,30.00,NE,35,13.0,20.0,75,0.00,,FEW,0.00,213.00,VWS V14.01,2013-11-13 19:16:00,
2013-11-13 14:17:00,76.2,67.7,30.00,NE,36,5.0,20.0,75,0.00,,FEW,0.00,216.00,VWS V14.01,2013-11-13 19:17:00,
2013-11-13 14:19:00,76.1,67.6,30.00,ENE,63,7.0,20.0,75,0.00,,FEW,0.00,223.00,VWS V14.01,2013-11-13 19:19:00,
2013-11-13 14:20:00,76.1,68.0,30.00,NNE,28,17.0,20.0,76,0.00,,FEW,0.00,229.00,VWS V14.01,2013-11-13 19:20:00,
2013-11-13 14:21:00,76.1,68.0,30.00,NNE,21,11.0,17.0,76,0.00,,FEW,0.00,229.00,VWS V14.01,2013-11-13 19:21:00,
2013-11-13 14:22:00,76.1,68.0,30.00,NE,37,7.0,22.0,76,0.00,,FEW,0.00,241.00,VWS V14.01,2013-11-13 19:22:00,
2013-11-13 14:24:00,76.1,67.6,30.00,NE,40,12.0,22.0,75,0.00,,FEW,0.00,250.00,VWS V14.01,2013-11-13 19:24:00,
2013-11-13 14:25:00,76.0,67.5,30.00,NNE,28,7.0,22.0,75,0.00,,FEW,0.00,258.00,VWS V14.01,2013-11-13 19:25:00,
2013-11-13 14:26:00,76.1,67.6,30.00,NE,40,3.0,22.0,75,0.00,,FEW,0.00,262.00,VWS V14.01,2013-11-13 19:26:00,
2013-11-13 14:27:00,76.2,68.1,30.00,NE,45,3.0,22.0,76,0.00,,FEW,0.00,260.00,VWS V14.01,2013-11-13 19:27:00,
2013-11-13 14:29:00,76.4,68.7,30.00,NNE,15,4.0,22.0,77,0.00,,FEW,0.00,253.00,VWS V14.01,2013-11-13 19:29:00,
2013-11-13 14:30:00,76.4,68.3,30.00,NE,53,5.0,22.0,76,0.00,,FEW,0.00,248.00,VWS V14.01,2013-11-13 19:30:00,
2013-11-13 14:31:00,76.4,68.3,30.00,NNE,28,12.0,12.0,76,0.00,,FEW,0.00,251.00,VWS V14.01,2013-11-13 19:31:00,
2013-11-13 14:33:00,76.5,68.8,30.00,NNE,33,15.0,19.0,77,0.00,,FEW,0.00,274.00,VWS V14.01,2013-11-13 19:33:00,
2013-11-13 14:34:00,76.4,68.3,30.00,NE,34,8.0,19.0,76,0.00,,FEW,0.00,279.00,VWS V14.01,2013-11-13 19:34:00,
2013-11-13 14:35:00,76.4,68.3,30.00,North,360,7.0,19.0,76,0.00,,FEW,0.00,262.00,VWS V14.01,2013-11-13 19:35:00,
2013-11-13 14:36:00,76.3,68.2,30.00,NE,42,4.0,19.0,76,0.00,,FEW,0.00,246.00,VWS V14.01,2013-11-13 19:36:00,
2013-11-13 14:38:00,76.2,68.1,30.00,NE,54,11.0,19.0,76,0.00,,FEW,0.00,216.00,VWS V14.01,2013-11-13 19:38:00,
2013-11-13 14:39:00,76.2,68.5,30.00,NNE,27,8.0,19.0,77,0.00,,FEW,0.00,206.00,VWS V14.01,2013-11-13 19:39:00,
2013-11-13 14:40:00,76.2,68.5,30.00,NE,35,8.0,19.0,77,0.00,,FEW,0.00,214.00,VWS V14.01,2013-11-13 19:40:00,
2013-11-13 14:41:00,76.2,68.5,30.00,NE,40,13.0,13.0,77,0.00,,FEW,0.00,214.00,VWS V14.01,2013-11-13 19:41:00,
2013-11-13 14:43:00,76.2,68.5,30.00,NNE,16,6.0,15.0,77,0.00,,FEW,0.00,246.00,VWS V14.01,2013-11-13 19:43:00,
2013-11-13 14:44:00,76.1,68.8,30.00,NE,41,11.0,17.0,78,0.00,,FEW,0.00,274.00,VWS V14.01,2013-11-13 19:44:00,
2013-11-13 14:45:00,76.1,68.8,30.01,NNE,20,5.0,17.0,78,0.00,,FEW,0.00,285.00,VWS V14.01,2013-11-13 19:45:00,
2013-11-13 14:46:00,76.1,68.8,30.01,NNE,33,9.0,17.0,78,0.00,,FEW,0.00,285.00,VWS V14.01,2013-11-13 19:46:00,
2013-11-13 14:47:00,76.2,68.8,30.01,NNW,343,10.0,17.0,78,0.00,,FEW,0.00,294.00,VWS V14.01,2013-11-13 19:47:00,
2013-11-13 14:48:00,76.1,68.4,30.01,NNE,17,8.0,17.0,77,0.00,,FEW,0.00,294.00,VWS V14.01,2013-11-13 19:48:00,
2013-11-13 14:50:00,76.2,68.8,30.01,NE,41,13.0,17.0,78,0.00,,FEW,0.00,279.00,VWS V14.01,2013-11-13 19:50:00,
2013-11-13 14:51:00,76.2,68.8,30.01,NE,38,6.0,8.0,78,0.00,,FEW,0.00,276.00,VWS V14.01,2013-11-13 19:51:00,
2013-11-13 14:52:00,76.3,68.9,30.01,NNE,23,18.0,18.0,78,0.00,,FEW,0.00,265.00,VWS V14.01,2013-11-13 19:52:00,
2013-11-13 14:54:00,76.3,68.9,30.01,NE,39,16.0,18.0,78,0.00,,FEW,0.00,257.00,VWS V14.01,2013-11-13 19:54:00,
2013-11-13 14:55:00,76.2,68.5,30.01,NNW,342,8.0,18.0,77,0.00,,FEW,0.00,260.00,VWS V14.01,2013-11-13 19:55:00,
2013-11-13 14:56:00,76.2,68.5,30.01,NE,52,12.0,18.0,77,0.00,,FEW,0.00,260.00,VWS V14.01,2013-11-13 19:56:00,
2013-11-13 14:57:00,76.1,68.4,30.01,NE,39,9.0,18.0,77,0.00,,FEW,0.00,290.00,VWS V14.01,2013-11-13 19:57:00,
2013-11-13 14:58:00,76.1,68.4,30.01,ENE,57,13.0,18.0,77,0.00,,FEW,0.00,320.00,VWS V14.01,2013-11-13 19:58:00,
2013-11-13 14:59:00,76.2,68.8,30.01,NNE,19,15.0,18.0,78,0.00,,FEW,0.00,336.00,VWS V14.01,2013-11-13 19:59:00,
2013-11-13 15:00:00,76.2,68.8,30.00,NNE,15,14.0,18.0,78,0.00,,FEW,0.00,297.00,VWS V14.01,2013-11-13 20:00:00,
2013-11-13 15:01:00,76.3,68.9,30.00,NE,53,10.0,13.0,78,0.00,,FEW,0.00,269.00,VWS V14.01,2013-11-13 20:01:00,
2013-11-13 15:02:00,76.3,68.9,30.00,NE,48,8.0,15.0,78,0.00,,FEW,0.00,243.00,VWS V14.01,2013-11-13 20:02:00,
2013-11-13 15:03:00,76.3,68.9,30.00,NNE,28,10.0,15.0,78,0.00,,FEW,0.00,220.00,VWS V14.01,2013-11-13 20:03:00,
2013-11-13 15:04:00,76.3,68.9,30.00,NE,38,10.0,15.0,78,0.00,,FEW,0.00,202.00,VWS V14.01,2013-11-13 20:04:00,
2013-11-13 15:05:00,76.3,68.6,30.00,NNE,15,18.0,18.0,77,0.00,,FEW,0.00,188.00,VWS V14.01,2013-11-13 20:05:00,
2013-11-13 15:06:00,76.2,68.5,30.00,NE,50,11.0,18.0,77,0.00,,FEW,0.00,178.00,VWS V14.01,2013-11-13 20:06:00,
2013-11-13 15:07:00,76.2,68.8,30.00,NNE,25,10.0,20.0,78,0.00,,FEW,0.00,165.00,VWS V14.01,2013-11-13 20:07:00,
2013-11-13 15:08:00,76.2,68.8,30.00,NNE,13,10.0,20.0,78,0.00,,FEW,0.00,165.00,VWS V14.01,2013-11-13 20:08:00,
2013-11-13 15:09:00,76.1,68.8,30.00,NNE,26,5.0,20.0,78,0.00,,FEW,0.00,153.00,VWS V14.01,2013-11-13 20:09:00,
2013-11-13 15:10:00,76.1,68.8,30.00,NE,48,5.0,20.0,78,0.00,,FEW,0.00,146.00,VWS V14.01,2013-11-13 20:10:00,
2013-11-13 15:11:00,76.1,68.8,30.00,North,355,14.0,16.0,78,0.00,,FEW,0.00,144.00,VWS V14.01,2013-11-13 20:11:00,
2013-11-13 15:12:00,76.1,69.1,30.00,NE,42,7.0,16.0,79,0.00,,FEW,0.00,144.00,VWS V14.01,2013-11-13 20:12:00,
2013-11-13 15:13:00,76.1,69.1,30.00,NNE,31,8.0,16.0,79,0.00,,FEW,0.00,151.00,VWS V14.01,2013-11-13 20:13:00,
2013-11-13 15:14:00,76.1,69.1,30.00,NNE,28,6.0,16.0,79,0.00,,FEW,0.00,176.00,VWS V14.01,2013-11-13 20:14:00,
2013-11-13 15:16:00,76.1,69.1,30.00,North,5,17.0,24.0,79,0.00,,FEW,0.00,160.00,VWS V14.01,2013-11-13 20:16:00,
2013-11-13 15:17:00,76.0,68.7,30.00,NE,34,9.0,24.0,78,0.00,,FEW,0.00,165.00,VWS V14.01,2013-11-13 20:17:00,
2013-11-13 15:18:00,76.1,69.1,30.00,NNE,27,13.0,24.0,79,0.00,,FEW,0.00,174.00,VWS V14.01,2013-11-13 20:18:00,
2013-11-13 15:19:00,76.1,69.1,30.00,NNE,24,8.0,24.0,79,0.00,,FEW,0.00,171.00,VWS V14.01,2013-11-13 20:19:00,
2013-11-13 15:20:00,76.2,69.2,30.00,NE,39,12.0,24.0,79,0.00,,FEW,0.00,200.00,VWS V14.01,2013-11-13 20:20:00,
2013-11-13 15:21:00,76.2,69.2,30.00,North,5,7.0,16.0,79,0.00,,FEW,0.00,199.00,VWS V14.01,2013-11-13 20:21:00,
2013-11-13 15:22:00,76.2,69.2,30.00,NE,38,23.0,23.0,79,0.00,,FEW,0.00,262.00,VWS V14.01,2013-11-13 20:22:00,
2013-11-13 15:23:00,76.2,68.8,30.00,NE,36,13.0,23.0,78,0.00,,FEW,0.00,350.00,VWS V14.01,2013-11-13 20:23:00,
2013-11-13 15:24:00,76.2,69.2,30.00,NE,46,8.0,23.0,79,0.00,,FEW,0.00,251.00,VWS V14.01,2013-11-13 20:24:00,
2013-11-13 15:26:00,76.4,69.4,30.00,NNE,19,10.0,23.0,79,0.00,,FEW,0.00,178.00,VWS V14.01,2013-11-13 20:26:00,
2013-11-13 15:27:00,76.4,69.4,30.00,NE,39,5.0,23.0,79,0.00,,FEW,0.00,178.00,VWS V14.01,2013-11-13 20:27:00,
2013-11-13 15:29:00,76.5,69.5,30.00,NNE,17,15.0,23.0,79,0.00,,FEW,0.00,160.00,VWS V14.01,2013-11-13 20:29:00,
2013-11-13 15:30:00,76.4,69.0,30.01,NE,47,7.0,23.0,78,0.00,,FEW,0.00,149.00,VWS V14.01,2013-11-13 20:30:00,
2013-11-13 15:32:00,76.3,68.9,30.01,NNE,21,9.0,19.0,78,0.00,,FEW,0.00,146.00,VWS V14.01,2013-11-13 20:32:00,
2013-11-13 15:33:00,76.3,68.9,30.01,NE,49,8.0,19.0,78,0.00,,FEW,0.00,148.00,VWS V14.01,2013-11-13 20:33:00,
2013-11-13 15:34:00,76.3,68.9,30.01,NE,51,9.0,19.0,78,0.00,,FEW,0.00,148.00,VWS V14.01,2013-11-13 20:34:00,
2013-11-13 15:35:00,76.3,68.9,30.01,NE,46,11.0,19.0,78,0.00,,FEW,0.00,149.00,VWS V14.01,2013-11-13 20:35:00,
2013-11-13 15:37:00,76.3,69.3,30.01,NNE,30,9.0,19.0,79,0.00,,FEW,0.00,134.00,VWS V14.01,2013-11-13 20:37:00,
2013-11-13 15:38:00,76.3,69.3,30.01,NE,42,10.0,19.0,79,0.00,,FEW,0.00,134.00,VWS V14.01,2013-11-13 20:38:00,
2013-11-13 15:39:00,76.4,69.4,30.01,NE,47,20.0,20.0,79,0.00,,FEW,0.00,132.00,VWS V14.01,2013-11-13 20:39:00,
2013-11-13 15:40:00,76.4,69.0,30.01,NE,42,9.0,20.0,78,0.00,,FEW,0.00,116.00,VWS V14.01,2013-11-13 20:40:00,
2013-11-13 15:42:00,76.3,68.9,30.01,ENE,69,10.0,15.0,78,0.00,,FEW,0.00,100.00,VWS V14.01,2013-11-13 20:42:00,
2013-11-13 15:43:00,76.4,69.0,30.01,NNE,33,9.0,17.0,78,0.00,,FEW,0.00,100.00,VWS V14.01,2013-11-13 20:43:00,
2013-11-13 15:44:00,76.3,68.9,30.01,NE,51,4.0,17.0,78,0.00,,FEW,0.00,93.00,VWS V14.01,2013-11-13 20:44:00,
2013-11-13 15:45:00,76.4,69.4,30.02,NE,41,18.0,18.0,79,0.00,,FEW,0.00,97.00,VWS V14.01,2013-11-13 20:45:00,
2013-11-13 15:47:00,76.4,69.4,30.02,NNE,20,15.0,18.0,79,0.00,,FEW,0.00,102.00,VWS V14.01,2013-11-13 20:47:00,
2013-11-13 15:48:00,76.4,69.4,30.02,NE,46,11.0,18.0,79,0.00,,FEW,0.00,109.00,VWS V14.01,2013-11-13 20:48:00,
2013-11-13 15:49:00,76.4,69.4,30.02,NE,41,10.0,18.0,79,0.00,,FEW,0.00,121.00,VWS V14.01,2013-11-13 20:49:00,
2013-11-13 15:50:00,76.5,69.5,30.02,NE,39,5.0,18.0,79,0.00,,FEW,0.00,134.00,VWS V14.01,2013-11-13 20:50:00,
2013-11-13 15:52:00,76.5,69.5,30.02,NE,51,12.0,16.0,79,0.00,,FEW,0.00,162.00,VWS V14.01,2013-11-13 20:52:00,
2013-11-13 15:53:00,76.5,69.5,30.02,ENE,74,5.0,16.0,79,0.00,,FEW,0.00,172.00,VWS V14.01,2013-11-13 20:53:00,
2013-11-13 15:54:00,76.5,69.5,30.02,NE,44,12.0,16.0,79,0.00,,FEW,0.00,178.00,VWS V14.01,2013-11-13 20:54:00,
2013-11-13 15:55:00,76.6,69.6,30.02,NNE,17,9.0,18.0,79,0.00,,FEW,0.00,176.00,VWS V14.01,2013-11-13 20:55:00,
2013-11-13 15:57:00,76.7,69.7,30.02,ENE,69,9.0,18.0,79,0.00,,FEW,0.00,146.00,VWS V14.01,2013-11-13 20:57:00,
2013-11-13 15:58:00,76.7,69.7,30.02,NE,55,9.0,18.0,79,0.00,,FEW,0.00,148.00,VWS V14.01,2013-11-13 20:58:00,
2013-11-13 15:59:00,76.7,69.7,30.02,NNE,28,12.0,18.0,79,0.00,,FEW,0.00,137.00,VWS V14.01,2013-11-13 20:59:00,
2013-11-13 16:00:00,76.7,69.3,30.02,NE,55,9.0,18.0,78,0.00,,FEW,0.00,137.00,VWS V14.01,2013-11-13 21:00:00,
2013-11-13 16:02:00,76.7,69.7,30.02,NE,40,9.0,15.0,79,0.00,,FEW,0.00,113.00,VWS V14.01,2013-11-13 21:02:00,
2013-11-13 16:03:00,76.7,69.7,30.02,NNE,17,11.0,15.0,79,0.00,,FEW,0.00,111.00,VWS V14.01,2013-11-13 21:03:00,
2013-11-13 16:04:00,76.7,69.7,30.02,NE,40,5.0,15.0,79,0.00,,FEW,0.00,107.00,VWS V14.01,2013-11-13 21:04:00,
2013-11-13 16:05:00,76.7,69.7,30.02,NE,43,6.0,15.0,79,0.00,,FEW,0.00,114.00,VWS V14.01,2013-11-13 21:05:00,
2013-11-13 16:06:00,76.7,69.7,30.02,NE,38,4.0,15.0,79,0.00,,FEW,0.00,104.00,VWS V14.01,2013-11-13 21:06:00,
2013-11-13 16:07:00,76.8,69.8,30.02,NE,36,11.0,15.0,79,0.00,,FEW,0.00,79.00,VWS V14.01,2013-11-13 21:07:00,
2013-11-13 16:08:00,76.8,69.8,30.02,NE,34,12.0,16.0,79,0.00,,FEW,0.00,76.00,VWS V14.01,2013-11-13 21:08:00,
2013-11-13 16:10:00,76.7,69.7,30.02,NNE,22,9.0,16.0,79,0.00,,FEW,0.00,70.00,VWS V14.01,2013-11-13 21:10:00,
2013-11-13 16:11:00,76.8,69.8,30.02,NNE,31,11.0,15.0,79,0.00,,FEW,0.00,65.00,VWS V14.01,2013-11-13 21:11:00,
2013-11-13 16:12:00,76.7,69.7,30.02,NNE,29,6.0,15.0,79,0.00,,FEW,0.00,70.00,VWS V14.01,2013-11-13 21:12:00,
2013-11-13 16:13:00,76.7,69.7,30.02,NE,46,9.0,15.0,79,0.00,,FEW,0.00,70.00,VWS V14.01,2013-11-13 21:13:00,
2013-11-13 16:15:00,76.7,69.7,30.02,NNE,27,13.0,19.0,79,0.00,,FEW,0.00,51.00,VWS V14.01,2013-11-13 21:15:00,
2013-11-13 16:16:00,76.7,69.7,30.02,NE,46,12.0,19.0,79,0.00,,FEW,0.00,51.00,VWS V14.01,2013-11-13 21:16:00,
2013-11-13 16:18:00,76.8,70.2,30.02,NNE,19,10.0,19.0,80,0.00,,FEW,0.00,53.00,VWS V14.01,2013-11-13 21:18:00,
2013-11-13 16:20:00,76.9,69.9,30.02,NE,53,8.0,19.0,79,0.00,,FEW,0.00,60.00,VWS V14.01,2013-11-13 21:20:00,
2013-11-13 16:21:00,76.8,69.4,30.02,NNE,21,8.0,14.0,78,0.00,,FEW,0.00,67.00,VWS V14.01,2013-11-13 21:21:00,
2013-11-13 16:23:00,76.8,69.8,30.02,NE,44,17.0,18.0,79,0.00,,FEW,0.00,65.00,VWS V14.01,2013-11-13 21:23:00,
2013-11-13 16:25:00,76.8,69.8,30.02,NE,42,16.0,18.0,79,0.00,,FEW,0.00,76.00,VWS V14.01,2013-11-13 21:25:00,
2013-11-13 16:26:00,76.8,69.4,30.02,NNE,30,10.0,18.0,78,0.00,,FEW,0.00,67.00,VWS V14.01,2013-11-13 21:26:00,
2013-11-13 16:30:00,76.7,69.3,30.03,NNE,33,14.0,18.0,78,0.00,,FEW,0.00,77.00,VWS V14.01,2013-11-13 21:30:00,
2013-11-13 16:31:00,76.7,69.3,30.03,NNE,31,11.0,16.0,78,0.00,,FEW,0.00,58.00,VWS V14.01,2013-11-13 21:31:00,
2013-11-13 16:32:00,76.8,69.8,30.03,NE,41,9.0,16.0,79,0.00,,FEW,0.00,54.00,VWS V14.01,2013-11-13 21:32:00,
2013-11-13 16:35:00,76.8,69.8,30.03,NE,39,15.0,20.0,79,0.00,,FEW,0.00,18.00,VWS V14.01,2013-11-13 21:35:00,
2013-11-13 16:36:00,76.8,69.8,30.03,NE,42,16.0,20.0,79,0.00,,FEW,0.00,16.00,VWS V14.01,2013-11-13 21:36:00,
2013-11-13 16:37:00,76.8,69.8,30.03,NNE,25,17.0,20.0,79,0.00,,FEW,0.00,16.00,VWS V14.01,2013-11-13 21:37:00,
2013-11-13 16:40:00,76.7,69.7,30.03,NNE,21,14.0,20.0,79,0.00,,FEW,0.00,26.00,VWS V14.01,2013-11-13 21:40:00,
2013-11-13 16:41:00,76.6,69.6,30.03,North,5,18.0,21.0,79,0.00,,FEW,0.00,35.00,VWS V14.01,2013-11-13 21:41:00,
2013-11-13 16:42:00,76.6,70.0,30.03,NE,40,15.0,21.0,80,0.00,,FEW,0.00,35.00,VWS V14.01,2013-11-13 21:42:00,
2013-11-13 16:45:00,76.4,69.4,30.03,NNE,31,11.0,22.0,79,0.00,,FEW,0.00,49.00,VWS V14.01,2013-11-13 21:45:00,
2013-11-13 16:47:00,76.4,70.1,30.03,ENE,57,5.0,22.0,81,0.00,,FEW,0.00,56.00,VWS V14.01,2013-11-13 21:47:00,
2013-11-13 16:50:00,76.1,69.5,30.03,NE,42,14.0,22.0,80,0.00,,FEW,0.00,42.00,VWS V14.01,2013-11-13 21:50:00,
2013-11-13 16:52:00,75.9,68.9,30.03,NE,35,7.0,16.0,79,0.00,,FEW,0.00,39.00,VWS V14.01,2013-11-13 21:52:00,
2013-11-13 16:55:00,75.8,69.2,30.03,NE,43,5.0,18.0,80,0.00,,FEW,0.00,35.00,VWS V14.01,2013-11-13 21:55:00,
2013-11-13 16:56:00,75.8,69.2,30.03,North,5,9.0,18.0,80,0.00,,FEW,0.00,33.00,VWS V14.01,2013-11-13 21:56:00,
2013-11-13 16:57:00,75.7,69.1,30.03,North,11,8.0,18.0,80,0.00,,FEW,0.00,30.00,VWS V14.01,2013-11-13 21:57:00,
2013-11-13 16:58:00,75.7,69.1,30.03,NNE,32,6.0,18.0,80,0.00,,FEW,0.00,26.00,VWS V14.01,2013-11-13 21:58:00,
2013-11-13 17:00:00,75.6,69.0,30.04,ENE,57,19.0,21.0,80,0.00,,FEW,0.00,21.00,VWS V14.01,2013-11-13 22:00:00,
2013-11-13 17:01:00,75.6,68.6,30.04,NE,52,10.0,22.0,79,0.00,,FEW,0.00,14.00,VWS V14.01,2013-11-13 22:01:00,
2013-11-13 17:02:00,75.6,69.0,30.04,NE,49,15.0,22.0,80,0.00,,FEW,0.00,12.00,VWS V14.01,2013-11-13 22:02:00,
2013-11-13 17:03:00,75.6,69.0,30.04,NNE,31,20.0,22.0,80,0.00,,FEW,0.00,12.00,VWS V14.01,2013-11-13 22:03:00,
2013-11-13 17:05:00,75.6,68.6,30.04,NNE,28,11.0,24.0,79,0.00,,FEW,0.00,11.00,VWS V14.01,2013-11-13 22:05:00,
2013-11-13 17:06:00,75.5,68.5,30.04,NNE,19,19.0,24.0,79,0.00,,FEW,0.00,11.00,VWS V14.01,2013-11-13 22:06:00,
2013-11-13 17:07:00,75.6,68.6,30.04,NNE,19,15.0,24.0,79,0.00,,FEW,0.00,11.00,VWS V14.01,2013-11-13 22:07:00,
2013-11-13 17:08:00,75.6,69.0,30.04,NNE,28,17.0,24.0,80,0.00,,FEW,0.00,11.00,VWS V14.01,2013-11-13 22:08:00,
2013-11-13 17:10:00,75.6,69.0,30.04,NE,34,16.0,24.0,80,0.00,,FEW,0.00,9.00,VWS V14.01,2013-11-13 22:10:00,
2013-11-13 17:11:00,75.6,69.0,30.04,NE,38,7.0,13.0,80,0.00,,FEW,0.00,9.00,VWS V14.01,2013-11-13 22:11:00,
2013-11-13 17:12:00,75.6,69.0,30.04,NE,36,12.0,14.0,80,0.00,,FEW,0.00,7.00,VWS V14.01,2013-11-13 22:12:00,
2013-11-13 17:13:00,75.7,69.1,30.04,NE,39,17.0,22.0,80,0.00,,FEW,0.00,7.00,VWS V14.01,2013-11-13 22:13:00,
2013-11-13 17:15:00,75.6,69.0,30.04,ENE,64,14.0,25.0,80,0.00,,FEW,0.00,7.00,VWS V14.01,2013-11-13 22:15:00,
2013-11-13 17:16:00,75.5,68.9,30.04,NNE,31,5.0,25.0,80,0.00,,FEW,0.00,7.00,VWS V14.01,2013-11-13 22:16:00,
2013-11-13 17:17:00,75.5,68.9,30.04,NE,44,14.0,25.0,80,0.00,,FEW,0.00,7.00,VWS V14.01,2013-11-13 22:17:00,
2013-11-13 17:18:00,75.5,68.9,30.04,NNE,30,12.0,25.0,80,0.00,,FEW,0.00,9.00,VWS V14.01,2013-11-13 22:18:00,
2013-11-13 17:19:00,75.5,68.9,30.04,NNE,23,12.0,25.0,80,0.00,,FEW,0.00,9.00,VWS V14.01,2013-11-13 22:19:00,
2013-11-13 17:20:00,75.5,68.9,30.04,NE,37,18.0,25.0,80,0.00,,FEW,0.00,7.00,VWS V14.01,2013-11-13 22:20:00,
2013-11-13 17:21:00,75.5,68.9,30.04,NNE,25,13.0,18.0,80,0.00,,FEW,0.00,7.00,VWS V14.01,2013-11-13 22:21:00,
2013-11-13 17:22:00,75.5,69.3,30.04,NE,37,6.0,18.0,81,0.00,,FEW,0.00,7.00,VWS V14.01,2013-11-13 22:22:00,
2013-11-13 17:23:00,75.5,69.3,30.04,NNE,28,5.0,18.0,81,0.00,,FEW,0.00,7.00,VWS V14.01,2013-11-13 22:23:00,
2013-11-13 17:25:00,75.5,69.3,30.04,NNE,25,10.0,20.0,81,0.00,,FEW,0.00,7.00,VWS V14.01,2013-11-13 22:25:00,
2013-11-13 17:26:00,75.4,69.2,30.04,NNW,337,6.0,20.0,81,0.00,,FEW,0.00,7.00,VWS V14.01,2013-11-13 22:26:00,
2013-11-13 17:27:00,75.4,69.2,30.04,NE,41,6.0,20.0,81,0.00,,FEW,0.00,5.00,VWS V14.01,2013-11-13 22:27:00,
2013-11-13 17:28:00,75.3,69.1,30.04,NE,44,17.0,20.0,81,0.00,,FEW,0.00,5.00,VWS V14.01,2013-11-13 22:28:00,
2013-11-13 17:29:00,75.3,69.1,30.04,NNE,26,8.0,23.0,81,0.00,,FEW,0.00,5.00,VWS V14.01,2013-11-13 22:29:00,
2013-11-13 17:30:00,75.3,69.1,30.05,NE,38,12.0,23.0,81,0.00,,FEW,0.00,0.00,VWS V14.01,2013-11-13 22:30:00,
2013-11-13 17:31:00,75.2,69.0,30.05,NE,35,12.0,16.0,81,0.00,,FEW,0.00,0.00,VWS V14.01,2013-11-13 22:31:00,
2013-11-13 17:32:00,75.1,68.9,30.05,ENE,59,9.0,16.0,81,0.00,,FEW,0.00,0.00,VWS V14.01,2013-11-13 22:32:00,
2013-11-13 17:33:00,75.1,69.2,30.05,NE,49,17.0,18.0,82,0.00,,FEW,0.00,0.00,VWS V14.01,2013-11-13 22:33:00,
2013-11-13 17:34:00,75.1,69.2,30.05,NE,51,9.0,18.0,82,0.00,,FEW,0.00,0.00,VWS V14.01,2013-11-13 22:34:00,
2013-11-13 17:35:00,75.0,69.1,30.05,NNE,18,13.0,18.0,82,0.00,,FEW,0.00,0.00,VWS V14.01,2013-11-13 22:35:00,
2013-11-13 17:36:00,75.0,69.1,30.05,NE,53,8.0,22.0,82,0.00,,FEW,0.00,0.00,VWS V14.01,2013-11-13 22:36:00,
2013-11-13 17:37:00,74.9,69.0,30.05,ENE,76,12.0,22.0,82,0.00,,FEW,0.00,0.00,VWS V14.01,2013-11-13 22:37:00,
2013-11-13 17:38:00,74.8,68.9,30.05,NNE,29,18.0,22.0,82,0.00,,FEW,0.00,0.00,VWS V14.01,2013-11-13 22:38:00,
2013-11-13 17:39:00,74.8,68.9,30.05,ENE,63,21.0,22.0,82,0.00,,FEW,0.00,0.00,VWS V14.01,2013-11-13 22:39:00,
2013-11-13 17:40:00,74.8,69.3,30.05,NNE,16,21.0,25.0,83,0.00,,FEW,0.00,0.00,VWS V14.01,2013-11-13 22:40:00,
2013-11-13 17:41:00,74.8,69.3,30.05,NE,38,11.0,19.0,83,0.00,,FEW,0.00,0.00,VWS V14.01,2013-11-13 22:41:00,
2013-11-13 17:42:00,74.7,69.2,30.05,ENE,63,11.0,19.0,83,0.00,,FEW,0.00,0.00,VWS V14.01,2013-11-13 22:42:00,
2013-11-13 17:44:00,74.7,69.2,30.05,NE,36,14.0,19.0,83,0.00,,FEW,0.00,0.00,VWS V14.01,2013-11-13 22:44:00,
2013-11-13 17:45:00,74.7,69.2,30.06,NNE,25,13.0,19.0,83,0.00,,FEW,0.00,0.00,VWS V14.01,2013-11-13 22:45:00,
2013-11-13 17:47:00,74.6,69.1,30.06,NNE,28,13.0,19.0,83,0.00,,FEW,0.00,0.00,VWS V14.01,2013-11-13 22:47:00,
2013-11-13 17:49:00,74.4,68.9,30.06,NE,38,19.0,25.0,83,0.00,,FEW,0.00,0.00,VWS V14.01,2013-11-13 22:49:00,
2013-11-13 17:50:00,74.4,69.3,30.06,NNE,32,11.0,25.0,84,0.00,,FEW,0.00,0.00,VWS V14.01,2013-11-13 22:50:00,
2013-11-13 17:52:00,74.5,69.3,30.06,NNE,29,12.0,19.0,84,0.00,,FEW,0.00,0.00,VWS V14.01,2013-11-13 22:52:00,
2013-11-13 17:53:00,74.4,69.3,30.06,NNW,336,9.0,19.0,84,0.00,,FEW,0.00,0.00,VWS V14.01,2013-11-13 22:53:00,
2013-11-13 17:54:00,74.3,68.8,30.06,ENE,72,12.0,19.0,83,0.00,,FEW,0.00,0.00,VWS V14.01,2013-11-13 22:54:00,
2013-11-13 17:55:00,74.2,68.7,30.06,NE,48,8.0,24.0,83,0.00,,FEW,0.00,0.00,VWS V14.01,2013-11-13 22:55:00,
2013-11-13 17:57:00,74.1,69.0,30.06,NE,42,8.0,24.0,84,0.00,,FEW,0.00,0.00,VWS V14.01,2013-11-13 22:57:00,
2013-11-13 17:58:00,74.2,69.1,30.06,East,82,7.0,24.0,84,0.00,,FEW,0.00,0.00,VWS V14.01,2013-11-13 22:58:00,
2013-11-13 17:59:00,74.2,69.1,30.06,NNE,28,11.0,24.0,84,0.00,,FEW,0.00,0.00,VWS V14.01,2013-11-13 22:59:00,
2013-11-13 18:00:00,74.2,69.1,30.06,NE,34,15.0,24.0,84,0.00,,FEW,0.00,0.00,VWS V14.01,2013-11-13 23:00:00,
2013-11-13 18:02:00,74.2,69.1,30.06,NE,34,22.0,22.0,84,0.00,,FEW,0.00,0.00,VWS V14.01,2013-11-13 23:02:00,
2013-11-13 18:03:00,74.1,69.0,30.06,NE,42,17.0,22.0,84,0.00,,FEW,0.00,0.00,VWS V14.01,2013-11-13 23:03:00,
2013-11-13 18:04:00,74.1,69.0,30.06,NE,37,13.0,22.0,84,0.00,,FEW,0.00,0.00,VWS V14.01,2013-11-13 23:04:00,
2013-11-13 18:05:00,74.1,69.0,30.06,NNE,28,17.0,22.0,84,0.00,,FEW,0.00,0.00,VWS V14.01,2013-11-13 23:05:00,
2013-11-13 18:07:00,74.1,69.0,30.06,NNE,27,9.0,22.0,84,0.00,,FEW,0.00,0.00,VWS V14.01,2013-11-13 23:07:00,
2013-11-13 18:08:00,74.1,69.0,30.06,ENE,62,25.0,25.0,84,0.00,,FEW,0.00,0.00,VWS V14.01,2013-11-13 23:08:00,
2013-11-13 18:09:00,74.1,69.0,30.06,NNE,30,15.0,25.0,84,0.00,,FEW,0.00,0.00,VWS V14.01,2013-11-13 23:09:00,
2013-11-13 18:10:00,74.1,69.0,30.06,NNE,32,13.0,25.0,84,0.00,,FEW,0.00,0.00,VWS V14.01,2013-11-13 23:10:00,
2013-11-13 18:12:00,74.1,69.0,30.06,East,81,13.0,21.0,84,0.00,,FEW,0.00,0.00,VWS V14.01,2013-11-13 23:12:00,
2013-11-13 18:13:00,74.0,68.9,30.06,NNE,17,14.0,21.0,84,0.00,,FEW,0.00,0.00,VWS V14.01,2013-11-13 23:13:00,
2013-11-13 18:14:00,74.1,69.0,30.06,North,360,15.0,23.0,84,0.00,,FEW,0.00,0.00,VWS V14.01,2013-11-13 23:14:00,
2013-11-13 18:15:00,74.1,69.0,30.06,NE,49,14.0,23.0,84,0.00,,FEW,0.00,0.00,VWS V14.01,2013-11-13 23:15:00,
2013-11-13 18:16:00,74.1,69.0,30.06,North,350,18.0,23.0,84,0.00,,FEW,0.00,0.00,VWS V14.01,2013-11-13 23:16:00,
2013-11-13 18:18:00,74.2,69.4,30.06,NNE,29,11.0,23.0,85,0.00,,FEW,0.00,0.00,VWS V14.01,2013-11-13 23:18:00,
2013-11-13 18:19:00,74.2,69.1,30.06,NE,52,15.0,23.0,84,0.00,,FEW,0.00,0.00,VWS V14.01,2013-11-13 23:19:00,
2013-11-13 18:20:00,74.2,69.1,30.06,NNE,30,13.0,13.0,84,0.00,,FEW,0.00,0.00,VWS V14.01,2013-11-13 23:20:00,
2013-11-13 18:21:00,74.2,69.1,30.06,NNE,30,18.0,18.0,84,0.00,,FEW,0.00,0.00,VWS V14.01,2013-11-13 23:21:00,
2013-11-13 18:23:00,74.0,68.9,30.06,NE,54,8.0,22.0,84,0.00,,FEW,0.00,0.00,VWS V14.01,2013-11-13 23:23:00,
2013-11-13 18:24:00,74.0,68.9,30.06,NNE,28,16.0,22.0,84,0.00,,FEW,0.00,0.00,VWS V14.01,2013-11-13 23:24:00,
2013-11-13 18:26:00,73.9,68.8,30.06,NE,44,18.0,22.0,84,0.00,,FEW,0.00,0.00,VWS V14.01,2013-11-13 23:26:00,
2013-11-13 18:28:00,73.8,68.7,30.06,ENE,59,8.0,26.0,84,0.00,,FEW,0.00,0.00,VWS V14.01,2013-11-13 23:28:00,
2013-11-13 18:29:00,73.8,68.7,30.06,NE,39,7.0,26.0,84,0.00,,FEW,0.00,0.00,VWS V14.01,2013-11-13 23:29:00,
2013-11-13 18:30:00,73.9,68.8,30.06,North,11,18.0,26.0,84,0.00,,FEW,0.00,0.00,VWS V14.01,2013-11-13 23:30:00,
2013-11-13 18:31:00,73.9,68.8,30.06,NNE,24,16.0,18.0,84,0.00,,FEW,0.00,0.00,VWS V14.01,2013-11-13 23:31:00,
2013-11-13 18:33:00,73.8,68.7,30.06,NNE,15,7.0,18.0,84,0.00,,FEW,0.00,0.00,VWS V14.01,2013-11-13 23:33:00,
2013-11-13 18:34:00,73.7,68.6,30.06,NE,34,13.0,23.0,84,0.00,,FEW,0.00,0.00,VWS V14.01,2013-11-13 23:34:00,
2013-11-13 18:35:00,73.7,68.6,30.06,NNE,17,19.0,23.0,84,0.00,,FEW,0.00,0.00,VWS V14.01,2013-11-13 23:35:00,
2013-11-13 18:36:00,73.6,68.5,30.06,NE,52,7.0,23.0,84,0.00,,FEW,0.00,0.00,VWS V14.01,2013-11-13 23:36:00,
2013-11-13 18:38:00,73.6,68.5,30.06,NE,34,12.0,23.0,84,0.00,,FEW,0.00,0.00,VWS V14.01,2013-11-13 23:38:00,
2013-11-13 18:39:00,73.6,68.5,30.06,NE,49,23.0,23.0,84,0.00,,FEW,0.00,0.00,VWS V14.01,2013-11-13 23:39:00,
2013-11-13 18:40:00,73.6,68.5,30.06,NE,45,10.0,24.0,84,0.00,,FEW,0.00,0.00,VWS V14.01,2013-11-13 23:40:00,
2013-11-13 18:41:00,73.5,68.4,30.06,NE,37,25.0,25.0,84,0.00,,FEW,0.00,0.00,VWS V14.01,2013-11-13 23:41:00,
2013-11-13 18:42:00,73.5,68.7,30.06,NE,52,13.0,25.0,85,0.00,,FEW,0.00,0.00,VWS V14.01,2013-11-13 23:42:00,
2013-11-13 18:43:00,73.5,68.7,30.06,NNE,27,9.0,25.0,85,0.00,,FEW,0.00,0.00,VWS V14.01,2013-11-13 23:43:00,
2013-11-13 18:44:00,73.5,68.7,30.06,NE,36,17.0,27.0,85,0.00,,FEW,0.00,0.00,VWS V14.01,2013-11-13 23:44:00,
2013-11-13 18:45:00,73.5,68.7,30.07,NNE,17,12.0,27.0,85,0.00,,FEW,0.00,0.00,VWS V14.01,2013-11-13 23:45:00,
2013-11-13 18:46:00,73.5,68.7,30.07,ENE,71,9.0,27.0,85,0.00,,FEW,0.00,0.00,VWS V14.01,2013-11-13 23:46:00,
2013-11-13 18:47:00,73.5,69.1,30.07,NE,41,13.0,27.0,86,0.00,,FEW,0.00,0.00,VWS V14.01,2013-11-13 23:47:00,
2013-11-13 18:48:00,73.6,69.2,30.07,NE,34,15.0,27.0,86,0.00,,FEW,0.00,0.00,VWS V14.01,2013-11-13 23:48:00,
2013-11-13 18:49:00,73.5,68.7,30.07,NE,46,7.0,27.0,85,0.00,,FEW,0.00,0.00,VWS V14.01,2013-11-13 23:49:00,
2013-11-13 18:50:00,73.4,68.6,30.07,NE,43,16.0,27.0,85,0.00,,FEW,0.00,0.00,VWS V14.01,2013-11-13 23:50:00,
2013-11-13 18:51:00,73.4,68.6,30.07,East,86,13.0,20.0,85,0.00,,FEW,0.00,0.00,VWS V14.01,2013-11-13 23:51:00,
2013-11-13 18:52:00,73.4,69.0,30.07,NE,51,4.0,20.0,86,0.00,,FEW,0.00,0.00,VWS V14.01,2013-11-13 23:52:00,
2013-11-13 18:53:00,73.4,69.0,30.07,NNE,24,18.0,21.0,86,0.00,,FEW,0.00,0.00,VWS V14.01,2013-11-13 23:53:00,
2013-11-13 18:54:00,73.4,69.0,30.07,ENE,65,13.0,27.0,86,0.00,,FEW,0.00,0.00,VWS V14.01,2013-11-13 23:54:00,
2013-11-13 18:55:00,73.3,68.9,30.07,ENE,64,25.0,27.0,86,0.00,,FEW,0.00,0.00,VWS V14.01,2013-11-13 23:55:00,
2013-11-13 18:56:00,73.3,68.9,30.07,NNE,19,12.0,27.0,86,0.00,,FEW,0.00,0.00,VWS V14.01,2013-11-13 23:56:00,
2013-11-13 18:57:00,73.3,68.9,30.07,NNE,15,10.0,27.0,86,0.00,,FEW,0.00,0.00,VWS V14.01,2013-11-13 23:57:00,
2013-11-13 18:58:00,73.3,69.2,30.07,NE,48,13.0,27.0,87,0.00,,FEW,0.00,0.00,VWS V14.01,2013-11-13 23:58:00,
2013-11-13 18:59:00,73.4,69.3,30.07,NNE,33,16.0,27.0,87,0.00,,FEW,0.00,0.00,VWS V14.01,2013-11-13 23:59:00,
2013-11-13 19:00:00,73.4,69.3,30.08,ENE,58,7.0,27.0,87,0.00,,FEW,0.00,0.00,VWS V14.01,2013-11-14 00:00:00,
2013-11-13 19:01:00,73.4,69.3,30.08,NE,35,9.0,22.0,87,0.00,,FEW,0.00,0.00,VWS V14.01,2013-11-14 00:01:00,
2013-11-13 19:02:00,73.4,69.3,30.08,ENE,61,11.0,22.0,87,0.00,,FEW,0.00,0.00,VWS V14.01,2013-11-14 00:02:00,
2013-11-13 19:03:00,73.3,69.2,30.08,NNE,28,12.0,22.0,87,0.00,,FEW,0.00,0.00,VWS V14.01,2013-11-14 00:03:00,
2013-11-13 19:04:00,73.3,69.2,30.08,NE,55,20.0,22.0,87,0.00,,FEW,0.00,0.00,VWS V14.01,2013-11-14 00:04:00,
2013-11-13 19:05:00,73.2,69.1,30.08,East,84,22.0,22.0,87,0.00,,FEW,0.00,0.00,VWS V14.01,2013-11-14 00:05:00,
2013-11-13 19:07:00,73.1,69.0,30.08,NE,38,14.0,22.0,87,0.00,,FEW,0.00,0.00,VWS V14.01,2013-11-14 00:07:00,
2013-11-13 19:08:00,73.1,69.0,30.08,NE,34,20.0,22.0,87,0.00,,FEW,0.00,0.00,VWS V14.01,2013-11-14 00:08:00,
2013-11-13 19:09:00,73.2,69.1,30.08,NE,38,11.0,22.0,87,0.00,,FEW,0.00,0.00,VWS V14.01,2013-11-14 00:09:00,
2013-11-13 19:10:00,73.1,69.0,30.08,NE,41,13.0,23.0,87,0.00,,FEW,0.00,0.00,VWS V14.01,2013-11-14 00:10:00,
2013-11-13 19:12:00,73.1,69.0,30.08,NE,40,15.0,25.0,87,0.00,,FEW,0.00,0.00,VWS V14.01,2013-11-14 00:12:00,
2013-11-13 19:13:00,73.2,69.1,30.08,NE,45,9.0,25.0,87,0.00,,FEW,0.00,0.00,VWS V14.01,2013-11-14 00:13:00,
2013-11-13 19:14:00,73.2,69.1,30.08,NE,44,14.0,25.0,87,0.00,,FEW,0.00,0.00,VWS V14.01,2013-11-14 00:14:00,
2013-11-13 19:15:00,73.2,69.1,30.08,NNE,19,15.0,25.0,87,0.00,,FEW,0.00,0.00,VWS V14.01,2013-11-14 00:15:00,
2013-11-13 19:18:00,73.2,69.1,30.08,NE,55,11.0,32.0,87,0.00,,FEW,0.00,0.00,VWS V14.01,2013-11-14 00:18:00,
2013-11-13 19:19:00,73.2,69.1,30.08,NNE,21,21.0,32.0,87,0.00,,FEW,0.00,0.00,VWS V14.01,2013-11-14 00:19:00,
2013-11-13 19:20:00,73.2,69.1,30.08,NE,53,20.0,32.0,87,0.00,,FEW,0.00,0.00,VWS V14.01,2013-11-14 00:20:00,
2013-11-13 19:23:00,73.2,69.1,30.08,North,360,17.0,21.0,87,0.00,,FEW,0.00,0.00,VWS V14.01,2013-11-14 00:23:00,
2013-11-13 19:24:00,73.2,69.1,30.08,NNW,342,14.0,21.0,87,0.00,,FEW,0.00,0.00,VWS V14.01,2013-11-14 00:24:00,
2013-11-13 19:25:00,73.3,69.2,30.08,NNE,23,14.0,21.0,87,0.00,,FEW,0.00,0.00,VWS V14.01,2013-11-14 00:25:00,
2013-11-13 19:28:00,73.1,69.0,30.08,NE,43,13.0,24.0,87,0.00,,FEW,0.00,0.00,VWS V14.01,2013-11-14 00:28:00,
2013-11-13 19:29:00,73.1,69.0,30.08,ENE,67,18.0,24.0,87,0.00,,FEW,0.00,0.00,VWS V14.01,2013-11-14 00:29:00,
2013-11-13 19:30:00,73.2,69.1,30.08,NNE,19,18.0,24.0,87,0.00,,FEW,0.00,0.00,VWS V14.01,2013-11-14 00:30:00,
2013-11-13 19:33:00,73.1,69.0,30.08,NE,37,8.0,23.0,87,0.00,,FEW,0.00,0.00,VWS V14.01,2013-11-14 00:33:00,
2013-11-13 19:34:00,73.1,69.0,30.08,North,5,23.0,23.0,87,0.00,,FEW,0.00,0.00,VWS V14.01,2013-11-14 00:34:00,
2013-11-13 19:35:00,73.0,68.9,30.08,NE,36,8.0,25.0,87,0.00,,FEW,0.00,0.00,VWS V14.01,2013-11-14 00:35:00,
2013-11-13 19:38:00,73.1,69.0,30.08,NE,38,10.0,25.0,87,0.00,,FEW,0.00,0.00,VWS V14.01,2013-11-14 00:38:00,
2013-11-13 19:39:00,73.1,69.0,30.08,NE,53,8.0,25.0,87,0.00,,FEW,0.00,0.00,VWS V14.01,2013-11-14 00:39:00,
2013-11-13 19:40:00,73.1,69.0,30.08,NNE,14,10.0,25.0,87,0.00,,FEW,0.00,0.00,VWS V14.01,2013-11-14 00:40:00,
2013-11-13 19:43:00,73.0,68.9,30.08,North,5,12.0,28.0,87,0.00,,FEW,0.00,0.00,VWS V14.01,2013-11-14 00:43:00,
2013-11-13 19:44:00,73.0,68.9,30.08,North,350,15.0,28.0,87,0.00,,FEW,0.00,0.00,VWS V14.01,2013-11-14 00:44:00,
2013-11-13 19:45:00,73.0,68.9,30.09,NE,44,8.0,28.0,87,0.00,,FEW,0.00,0.00,VWS V14.01,2013-11-14 00:45:00,
2013-11-13 19:46:00,73.1,69.0,30.09,NE,51,18.0,28.0,87,0.00,,FEW,0.00,0.00,VWS V14.01,2013-11-14 00:46:00,
2013-11-13 19:49:00,73.3,69.2,30.09,ENE,65,5.0,28.0,87,0.00,,FEW,0.00,0.00,VWS V14.01,2013-11-14 00:49:00,
2013-11-13 19:50:00,73.3,69.2,30.09,NE,36,15.0,28.0,87,0.00,,FEW,0.00,0.00,VWS V14.01,2013-11-14 00:50:00,
2013-11-13 19:51:00,73.3,69.2,30.09,NNE,24,8.0,28.0,87,0.00,,FEW,0.00,0.00,VWS V14.01,2013-11-14 00:51:00,
2013-11-13 19:54:00,73.3,69.2,30.09,NNE,24,15.0,18.0,87,0.00,,FEW,0.00,0.00,VWS V14.01,2013-11-14 00:54:00,
2013-11-13 19:55:00,73.3,69.2,30.09,NNE,29,14.0,18.0,87,0.00,,FEW,0.00,0.00,VWS V14.01,2013-11-14 00:55:00,
2013-11-13 19:56:00,73.3,68.9,30.09,ENE,61,16.0,18.0,86,0.00,,FEW,0.00,0.00,VWS V14.01,2013-11-14 00:56:00,
2013-11-13 19:59:00,73.3,68.9,30.09,NE,49,6.0,21.0,86,0.00,,FEW,0.00,0.00,VWS V14.01,2013-11-14 00:59:00,
2013-11-13 20:00:00,73.3,68.9,30.10,ENE,60,8.0,21.0,86,0.00,,FEW,0.00,0.00,VWS V14.01,2013-11-14 01:00:00,
2013-11-13 20:01:00,73.3,68.9,30.10,NE,48,9.0,14.0,86,0.00,,FEW,0.00,0.00,VWS V14.01,2013-11-14 01:01:00,
2013-11-13 20:04:00,73.5,69.1,30.10,ENE,57,23.0,23.0,86,0.00,,FEW,0.00,0.00,VWS V14.01,2013-11-14 01:04:00,
2013-11-13 20:05:00,73.5,69.1,30.10,NE,53,16.0,23.0,86,0.00,,FEW,0.00,0.00,VWS V14.01,2013-11-14 01:05:00,
2013-11-13 20:06:00,73.5,69.1,30.10,NE,45,22.0,23.0,86,0.00,,FEW,0.00,0.00,VWS V14.01,2013-11-14 01:06:00,
2013-11-13 20:09:00,73.5,69.1,30.10,North,355,16.0,23.0,86,0.00,,FEW,0.00,0.00,VWS V14.01,2013-11-14 01:09:00,
2013-11-13 20:10:00,73.5,69.1,30.10,NE,36,17.0,23.0,86,0.00,,FEW,0.00,0.00,VWS V14.01,2013-11-14 01:10:00,
2013-11-13 20:11:00,73.5,69.1,30.10,NNE,32,12.0,12.0,86,0.00,,FEW,0.00,0.00,VWS V14.01,2013-11-14 01:11:00,
2013-11-13 20:12:00,73.5,69.4,30.10,ENE,78,15.0,18.0,87,0.00,,FEW,0.00,0.00,VWS V14.01,2013-11-14 01:12:00,
2013-11-13 20:15:00,73.5,69.4,30.10,ENE,63,16.0,19.0,87,0.00,,FEW,0.00,0.00,VWS V14.01,2013-11-14 01:15:00,
2013-11-13 20:16:00,73.5,69.4,30.10,NNE,28,13.0,19.0,87,0.00,,FEW,0.00,0.00,VWS V14.01,2013-11-14 01:16:00,
2013-11-13 20:17:00,73.5,69.4,30.10,ENE,59,16.0,19.0,87,0.00,,FEW,0.00,0.00,VWS V14.01,2013-11-14 01:17:00,
2013-11-13 20:20:00,73.5,69.4,30.10,ENE,57,18.0,21.0,87,0.00,,FEW,0.00,0.00,VWS V14.01,2013-11-14 01:20:00,
2013-11-13 20:21:00,73.5,69.4,30.10,NE,46,15.0,16.0,87,0.00,,FEW,0.00,0.00,VWS V14.01,2013-11-14 01:21:00,
2013-11-13 20:22:00,73.4,69.0,30.10,NNE,32,16.0,22.0,86,0.00,,FEW,0.00,0.00,VWS V14.01,2013-11-14 01:22:00,
2013-11-13 20:25:00,73.4,69.0,30.10,NE,55,6.0,22.0,86,0.00,,FEW,0.00,0.00,VWS V14.01,2013-11-14 01:25:00,
2013-11-13 20:26:00,73.4,69.0,30.10,NE,35,13.0,22.0,86,0.00,,FEW,0.00,0.00,VWS V14.01,2013-11-14 01:26:00,
2013-11-13 20:27:00,73.4,68.6,30.10,ENE,71,15.0,22.0,85,0.00,,FEW,0.00,0.00,VWS V14.01,2013-11-14 01:27:00,
2013-11-13 20:28:00,73.5,69.1,30.10,NNE,17,11.0,22.0,86,0.00,,FEW,0.00,0.00,VWS V14.01,2013-11-14 01:28:00,
2013-11-13 20:30:00,73.6,68.8,30.11,NE,34,11.0,22.0,85,0.00,,FEW,0.00,0.00,VWS V14.01,2013-11-14 01:30:00,
2013-11-13 20:31:00,73.6,68.8,30.11,NE,49,10.0,14.0,85,0.00,,FEW,0.00,0.00,VWS V14.01,2013-11-14 01:31:00,
2013-11-13 20:32:00,73.6,68.8,30.11,NNE,12,13.0,14.0,85,0.00,,FEW,0.00,0.00,VWS V14.01,2013-11-14 01:32:00,
2013-11-13 20:33:00,73.7,68.6,30.11,NE,36,13.0,15.0,84,0.00,,FEW,0.00,0.00,VWS V14.01,2013-11-14 01:33:00,
2013-11-13 20:36:00,73.9,69.1,30.11,NE,44,11.0,18.0,85,0.00,,FEW,0.00,0.00,VWS V14.01,2013-11-14 01:36:00,
2013-11-13 20:37:00,74.0,69.6,30.11,NE,34,15.0,22.0,86,0.00,,FEW,0.00,0.00,VWS V14.01,2013-11-14 01:37:00,
2013-11-13 20:38:00,74.0,69.2,30.11,North,10,11.0,22.0,85,0.00,,FEW,0.00,0.00,VWS V14.01,2013-11-14 01:38:00,
2013-11-13 20:42:00,73.8,69.3,30.11,ENE,58,18.0,18.0,86,0.00,,FEW,0.00,0.00,VWS V14.01,2013-11-14 01:42:00,
2013-11-13 20:43:00,73.7,69.3,30.11,NNE,27,5.0,18.0,86,0.00,,FEW,0.00,0.00,VWS V14.01,2013-11-14 01:43:00,
2013-11-13 20:47:00,73.5,69.4,30.11,NNE,18,15.0,20.0,87,0.00,,FEW,0.00,0.00,VWS V14.01,2013-11-14 01:47:00,
2013-11-13 20:48:00,73.5,69.4,30.11,ENE,57,9.0,20.0,87,0.00,,FEW,0.00,0.00,VWS V14.01,2013-11-14 01:48:00,
2013-11-13 20:49:00,73.4,69.3,30.11,NNE,15,12.0,20.0,87,0.00,,FEW,0.00,0.00,VWS V14.01,2013-11-14 01:49:00,
2013-11-13 20:52:00,73.3,69.5,30.11,NNE,27,13.0,15.0,88,0.00,,FEW,0.00,0.00,VWS V14.01,2013-11-14 01:52:00,
2013-11-13 20:53:00,73.3,69.5,30.11,NNE,31,6.0,15.0,88,0.00,,FEW,0.00,0.00,VWS V14.01,2013-11-14 01:53:00,
2013-11-13 20:54:00,73.3,69.5,30.11,NNE,17,11.0,15.0,88,0.00,,FEW,0.00,0.00,VWS V14.01,2013-11-14 01:54:00,
2013-11-13 20:58:00,73.3,69.5,30.11,NE,48,14.0,18.0,88,0.00,,FEW,0.00,0.00,VWS V14.01,2013-11-14 01:58:00,
2013-11-13 20:59:00,73.3,69.5,30.11,NE,51,8.0,18.0,88,0.00,,FEW,0.00,0.00,VWS V14.01,2013-11-14 01:59:00,
2013-11-13 21:03:00,73.3,69.5,30.12,NNE,24,6.0,17.0,88,0.00,,FEW,0.00,0.00,VWS V14.01,2013-11-14 02:03:00,
2013-11-13 21:04:00,73.3,69.5,30.12,NNE,32,10.0,17.0,88,0.00,,FEW,0.00,0.00,VWS V14.01,2013-11-14 02:04:00,
2013-11-13 21:08:00,73.4,69.6,30.12,NNE,24,19.0,20.0,88,0.00,,FEW,0.00,0.00,VWS V14.01,2013-11-14 02:08:00,
2013-11-13 21:09:00,73.5,69.7,30.12,NE,46,17.0,20.0,88,0.00,,FEW,0.00,0.00,VWS V14.01,2013-11-14 02:09:00,
2013-11-13 21:13:00,73.4,69.3,30.12,NNE,16,8.0,14.0,87,0.00,,FEW,0.00,0.00,VWS V14.01,2013-11-14 02:13:00,
2013-11-13 21:14:00,73.5,69.4,30.12,NE,37,12.0,14.0,87,0.00,,FEW,0.00,0.00,VWS V14.01,2013-11-14 02:14:00,
2013-11-13 21:18:00,73.5,69.4,30.12,NNE,24,10.0,16.0,87,0.00,,FEW,0.00,0.00,VWS V14.01,2013-11-14 02:18:00,
2013-11-13 21:19:00,73.6,69.5,30.12,NE,38,10.0,16.0,87,0.00,,FEW,0.00,0.00,VWS V14.01,2013-11-14 02:19:00,
2013-11-13 21:23:00,73.6,69.5,30.12,NE,42,11.0,16.0,87,0.00,,FEW,0.00,0.00,VWS V14.01,2013-11-14 02:23:00,
2013-11-13 21:24:00,73.6,69.2,30.12,NNE,27,19.0,19.0,86,0.00,,FEW,0.00,0.00,VWS V14.01,2013-11-14 02:24:00,
2013-11-13 21:25:00,73.6,69.5,30.12,NE,53,10.0,19.0,87,0.00,,FEW,0.00,0.00,VWS V14.01,2013-11-14 02:25:00,
2013-11-13 21:28:00,73.6,69.2,30.12,NE,41,11.0,21.0,86,0.00,,FEW,0.00,0.00,VWS V14.01,2013-11-14 02:28:00,
2013-11-13 21:29:00,73.6,69.2,30.12,NE,55,9.0,21.0,86,0.00,,FEW,0.00,0.00,VWS V14.01,2013-11-14 02:29:00,
2013-11-13 21:30:00,73.5,68.4,30.11,NE,54,8.0,9.0,84,0.00,,FEW,0.00,0.00,VWS V14.01,2013-11-14 02:30:00,
2013-11-13 21:33:00,73.7,68.6,30.11,East,98,13.0,13.0,84,0.00,,FEW,0.00,0.00,VWS V14.01,2013-11-14 02:33:00,
2013-11-13 21:34:00,73.7,68.6,30.11,ENE,65,9.0,13.0,84,0.00,,FEW,0.00,0.00,VWS V14.01,2013-11-14 02:34:00,
2013-11-13 21:36:00,73.8,68.3,30.11,NNE,23,8.0,19.0,83,0.00,,FEW,0.00,0.00,VWS V14.01,2013-11-14 02:36:00,
2013-11-13 21:38:00,73.9,68.4,30.11,NNE,13,6.0,20.0,83,0.00,,FEW,0.00,0.00,VWS V14.01,2013-11-14 02:38:00,
2013-11-13 21:39:00,73.9,68.4,30.11,NE,44,5.0,20.0,83,0.00,,FEW,0.00,0.00,VWS V14.01,2013-11-14 02:39:00,
2013-11-13 21:40:00,74.0,68.2,30.11,ENE,61,4.0,20.0,82,0.00,,FEW,0.00,0.00,VWS V14.01,2013-11-14 02:40:00,
2013-11-13 21:41:00,74.1,68.3,30.11,North,5,11.0,11.0,82,0.00,,FEW,0.00,0.00,VWS V14.01,2013-11-14 02:41:00,
2013-11-13 21:44:00,74.2,68.7,30.11,NNE,31,8.0,15.0,83,0.00,,FEW,0.00,0.00,VWS V14.01,2013-11-14 02:44:00,
2013-11-13 21:45:00,74.2,68.7,30.11,NE,34,5.0,15.0,83,0.00,,FEW,0.00,0.00,VWS V14.01,2013-11-14 02:45:00,
2013-11-13 21:47:00,74.3,68.8,30.11,ENE,57,9.0,19.0,83,0.00,,FEW,0.00,0.00,VWS V14.01,2013-11-14 02:47:00,
2013-11-13 21:49:00,74.3,68.4,30.11,North,9,13.0,19.0,82,0.00,,FEW,0.00,0.00,VWS V14.01,2013-11-14 02:49:00,
2013-11-13 21:50:00,74.2,68.4,30.11,ENE,63,13.0,19.0,82,0.00,,FEW,0.00,0.00,VWS V14.01,2013-11-14 02:50:00,
2013-11-13 21:52:00,74.2,68.4,30.11,North,355,15.0,16.0,82,0.00,,FEW,0.00,0.00,VWS V14.01,2013-11-14 02:52:00,
2013-11-13 21:54:00,74.3,68.4,30.11,North,5,10.0,16.0,82,0.00,,FEW,0.00,0.00,VWS V14.01,2013-11-14 02:54:00,
2013-11-13 21:55:00,74.3,68.8,30.11,NE,53,17.0,20.0,83,0.00,,FEW,0.00,0.00,VWS V14.01,2013-11-14 02:55:00,
2013-11-13 21:57:00,74.3,68.4,30.11,North,9,11.0,26.0,82,0.00,,FEW,0.00,0.00,VWS V14.01,2013-11-14 02:57:00,
2013-11-13 21:59:00,74.3,68.4,30.11,ENE,67,17.0,26.0,82,0.00,,FEW,0.00,0.00,VWS V14.01,2013-11-14 02:59:00,
2013-11-13 22:01:00,74.3,68.4,30.12,NE,53,12.0,12.0,82,0.00,,FEW,0.00,0.00,VWS V14.01,2013-11-14 03:01:00,
2013-11-13 22:02:00,74.4,68.6,30.12,NNE,24,19.0,19.0,82,0.00,,FEW,0.00,0.00,VWS V14.01,2013-11-14 03:02:00,
2013-11-13 22:04:00,74.5,69.0,30.12,ENE,61,8.0,19.0,83,0.00,,FEW,0.00,0.00,VWS V14.01,2013-11-14 03:04:00,
2013-11-13 22:06:00,74.4,68.6,30.12,NNE,29,12.0,20.0,82,0.00,,FEW,0.00,0.00,VWS V14.01,2013-11-14 03:06:00,
2013-11-13 22:07:00,74.4,68.6,30.12,NE,40,10.0,20.0,82,0.00,,FEW,0.00,0.00,VWS V14.01,2013-11-14 03:07:00,
2013-11-13 22:09:00,74.4,68.6,30.12,North,355,12.0,20.0,82,0.00,,FEW,0.00,0.00,VWS V14.01,2013-11-14 03:09:00,
2013-11-13 22:11:00,74.3,68.4,30.12,NNE,15,10.0,23.0,82,0.00,,FEW,0.00,0.00,VWS V14.01,2013-11-14 03:11:00,
2013-11-13 22:12:00,74.3,68.4,30.12,ENE,65,15.0,23.0,82,0.00,,FEW,0.00,0.00,VWS V14.01,2013-11-14 03:12:00,
2013-11-13 22:14:00,74.2,68.4,30.12,NE,42,12.0,23.0,82,0.00,,FEW,0.00,0.00,VWS V14.01,2013-11-14 03:14:00,
2013-11-13 22:16:00,74.3,68.4,30.11,NE,39,13.0,23.0,82,0.00,,FEW,0.00,0.00,VWS V14.01,2013-11-14 03:16:00,
2013-11-13 22:17:00,74.3,68.4,30.11,NNE,29,13.0,23.0,82,0.00,,FEW,0.00,0.00,VWS V14.01,2013-11-14 03:17:00,
2013-11-13 22:18:00,74.2,68.4,30.11,East,101,22.0,23.0,82,0.00,,FEW,0.00,0.00,VWS V14.01,2013-11-14 03:18:00,
2013-11-13 22:19:00,74.2,68.4,30.11,NE,38,9.0,23.0,82,0.00,,FEW,0.00,0.00,VWS V14.01,2013-11-14 03:19:00,
2013-11-13 22:21:00,74.2,68.4,30.11,NE,55,16.0,17.0,82,0.00,,FEW,0.00,0.00,VWS V14.01,2013-11-14 03:21:00,
2013-11-13 22:23:00,74.2,68.4,30.11,NNE,24,12.0,28.0,82,0.00,,FEW,0.00,0.00,VWS V14.01,2013-11-14 03:23:00,
2013-11-13 22:24:00,74.1,68.3,30.11,NE,49,18.0,28.0,82,0.00,,FEW,0.00,0.00,VWS V14.01,2013-11-14 03:24:00,
2013-11-13 22:26:00,74.1,68.3,30.11,NNE,22,18.0,28.0,82,0.00,,FEW,0.00,0.00,VWS V14.01,2013-11-14 03:26:00,
2013-11-13 22:28:00,74.0,68.2,30.11,NE,46,9.0,28.0,82,0.00,,FEW,0.00,0.00,VWS V14.01,2013-11-14 03:28:00,
2013-11-13 22:29:00,74.0,68.5,30.11,NE,46,14.0,28.0,83,0.00,,FEW,0.00,0.00,VWS V14.01,2013-11-14 03:29:00,
2013-11-13 22:30:00,74.0,68.5,30.11,North,5,11.0,28.0,83,0.00,,FEW,0.00,0.00,VWS V14.01,2013-11-14 03:30:00,
2013-11-13 22:32:00,74.1,68.6,30.11,NNE,25,12.0,17.0,83,0.00,,FEW,0.00,0.00,VWS V14.01,2013-11-14 03:32:00,
2013-11-13 22:34:00,74.1,68.6,30.11,ENE,62,10.0,17.0,83,0.00,,FEW,0.00,0.00,VWS V14.01,2013-11-14 03:34:00,
2013-11-13 22:35:00,74.1,68.6,30.11,NE,40,9.0,17.0,83,0.00,,FEW,0.00,0.00,VWS V14.01,2013-11-14 03:35:00,
2013-11-13 22:37:00,74.1,68.6,30.11,North,10,7.0,18.0,83,0.00,,FEW,0.00,0.00,VWS V14.01,2013-11-14 03:37:00,
2013-11-13 22:39:00,74.1,68.6,30.11,ENE,61,4.0,18.0,83,0.00,,FEW,0.00,0.00,VWS V14.01,2013-11-14 03:39:00,
2013-11-13 22:40:00,74.1,68.6,30.11,NE,40,18.0,23.0,83,0.00,,FEW,0.00,0.00,VWS V14.01,2013-11-14 03:40:00,
2013-11-13 22:42:00,74.1,68.6,30.11,NE,49,8.0,22.0,83,0.00,,FEW,0.00,0.00,VWS V14.01,2013-11-14 03:42:00,
2013-11-13 22:44:00,74.0,68.5,30.11,NE,48,8.0,22.0,83,0.00,,FEW,0.00,0.00,VWS V14.01,2013-11-14 03:44:00,
2013-11-13 22:45:00,74.0,68.5,30.11,ENE,61,9.0,22.0,83,0.00,,FEW,0.00,0.00,VWS V14.01,2013-11-14 03:45:00,
2013-11-13 22:46:00,74.0,68.5,30.11,NE,51,4.0,22.0,83,0.00,,FEW,0.00,0.00,VWS V14.01,2013-11-14 03:46:00,
2013-11-13 22:47:00,74.0,68.5,30.11,NE,43,17.0,22.0,83,0.00,,FEW,0.00,0.00,VWS V14.01,2013-11-14 03:47:00,
2013-11-13 22:49:00,74.0,68.5,30.11,NE,46,11.0,22.0,83,0.00,,FEW,0.00,0.00,VWS V14.01,2013-11-14 03:49:00,
2013-11-13 22:50:00,74.0,68.5,30.11,ENE,65,7.0,22.0,83,0.00,,FEW,0.00,0.00,VWS V14.01,2013-11-14 03:50:00,
2013-11-13 22:51:00,74.1,68.6,30.11,NNE,30,8.0,23.0,83,0.00,,FEW,0.00,0.00,VWS V14.01,2013-11-14 03:51:00,
2013-11-13 22:52:00,74.1,68.6,30.11,NE,45,14.0,23.0,83,0.00,,FEW,0.00,0.00,VWS V14.01,2013-11-14 03:52:00,
2013-11-13 22:54:00,74.1,68.3,30.11,ENE,68,12.0,23.0,82,0.00,,FEW,0.00,0.00,VWS V14.01,2013-11-14 03:54:00,
2013-11-13 22:55:00,74.2,68.4,30.11,ENE,63,13.0,23.0,82,0.00,,FEW,0.00,0.00,VWS V14.01,2013-11-14 03:55:00,
2013-11-13 22:56:00,74.2,68.4,30.11,East,84,14.0,23.0,82,0.00,,FEW,0.00,0.00,VWS V14.01,2013-11-14 03:56:00,
2013-11-13 22:58:00,74.2,68.0,30.11,ENE,65,7.0,23.0,81,0.00,,FEW,0.00,0.00,VWS V14.01,2013-11-14 03:58:00,
2013-11-13 23:00:00,74.2,68.0,30.11,NE,43,7.0,23.0,81,0.00,,FEW,0.00,0.00,VWS V14.01,2013-11-14 04:00:00,
2013-11-13 23:01:00,74.3,68.1,30.11,ENE,71,18.0,18.0,81,0.00,,FEW,0.00,0.00,VWS V14.01,2013-11-14 04:01:00,
2013-11-13 23:03:00,74.3,67.7,30.11,NE,42,3.0,18.0,80,0.00,,FEW,0.00,0.00,VWS V14.01,2013-11-14 04:03:00,
2013-11-13 23:05:00,74.4,68.2,30.11,ENE,71,17.0,18.0,81,0.00,,FEW,0.00,0.00,VWS V14.01,2013-11-14 04:05:00,
2013-11-13 23:07:00,74.4,67.8,30.11,NE,44,7.0,20.0,80,0.00,,FEW,0.00,0.00,VWS V14.01,2013-11-14 04:07:00,
2013-11-13 23:08:00,74.4,67.8,30.11,NNE,19,8.0,20.0,80,0.00,,FEW,0.00,0.00,VWS V14.01,2013-11-14 04:08:00,
2013-11-13 23:10:00,74.4,68.2,30.11,ENE,59,5.0,20.0,81,0.00,,FEW,0.00,0.00,VWS V14.01,2013-11-14 04:10:00,
2013-11-13 23:11:00,74.5,68.3,30.11,NNE,26,10.0,10.0,81,0.00,,FEW,0.00,0.00,VWS V14.01,2013-11-14 04:11:00,
2013-11-13 23:12:00,74.5,68.3,30.11,ENE,57,8.0,14.0,81,0.00,,FEW,0.00,0.00,VWS V14.01,2013-11-14 04:12:00,
2013-11-13 23:13:00,74.5,68.3,30.11,East,82,10.0,15.0,81,0.00,,FEW,0.00,0.00,VWS V14.01,2013-11-14 04:13:00,
2013-11-13 23:15:00,74.4,68.2,30.11,NNE,30,4.0,15.0,81,0.00,,FEW,0.00,0.00,VWS V14.01,2013-11-14 04:15:00,
2013-11-13 23:16:00,74.4,68.2,30.11,ENE,57,7.0,19.0,81,0.00,,FEW,0.00,0.00,VWS V14.01,2013-11-14 04:16:00,
2013-11-13 23:17:00,74.3,68.1,30.11,ENE,61,11.0,19.0,81,0.00,,FEW,0.00,0.00,VWS V14.01,2013-11-14 04:17:00,
2013-11-13 23:18:00,74.3,68.1,30.11,ENE,57,14.0,19.0,81,0.00,,FEW,0.00,0.00,VWS V14.01,2013-11-14 04:18:00,
2013-11-13 23:20:00,74.3,68.1,30.11,East,98,13.0,19.0,81,0.00,,FEW,0.00,0.00,VWS V14.01,2013-11-14 04:20:00,
2013-11-13 23:21:00,74.3,68.1,30.11,ENE,63,4.0,15.0,81,0.00,,FEW,0.00,0.00,VWS V14.01,2013-11-14 04:21:00,
2013-11-13 23:22:00,74.2,68.0,30.11,NNE,23,4.0,15.0,81,0.00,,FEW,0.00,0.00,VWS V14.01,2013-11-14 04:22:00,
2013-11-13 23:23:00,74.2,68.0,30.11,NE,41,11.0,15.0,81,0.00,,FEW,0.00,0.00,VWS V14.01,2013-11-14 04:23:00,
2013-11-13 23:25:00,74.2,68.4,30.11,NE,34,12.0,17.0,82,0.00,,FEW,0.00,0.00,VWS V14.01,2013-11-14 04:25:00,
2013-11-13 23:26:00,74.2,68.0,30.11,NNE,23,13.0,18.0,81,0.00,,FEW,0.00,0.00,VWS V14.01,2013-11-14 04:26:00,
2013-11-13 23:27:00,74.2,68.0,30.11,NE,47,9.0,18.0,81,0.00,,FEW,0.00,0.00,VWS V14.01,2013-11-14 04:27:00,
2013-11-13 23:28:00,74.2,68.0,30.11,NNE,19,10.0,18.0,81,0.00,,FEW,0.00,0.00,VWS V14.01,2013-11-14 04:28:00,
2013-11-13 23:30:00,74.2,68.0,30.11,NW,323,7.0,18.0,81,0.00,,FEW,0.00,0.00,VWS V14.01,2013-11-14 04:30:00,
2013-11-13 23:31:00,74.2,68.0,30.11,NE,41,9.0,9.0,81,0.00,,FEW,0.00,0.00,VWS V14.01,2013-11-14 04:31:00,
2013-11-13 23:32:00,74.3,68.1,30.11,North,10,13.0,21.0,81,0.00,,FEW,0.00,0.00,VWS V14.01,2013-11-14 04:32:00,
2013-11-13 23:34:00,74.3,68.1,30.11,ENE,58,7.0,21.0,81,0.00,,FEW,0.00,0.00,VWS V14.01,2013-11-14 04:34:00,
2013-11-13 23:35:00,74.4,68.2,30.11,NNE,26,5.0,21.0,81,0.00,,FEW,0.00,0.00,VWS V14.01,2013-11-14 04:35:00,
2013-11-13 23:36:00,74.4,68.2,30.11,NE,43,19.0,21.0,81,0.00,,FEW,0.00,0.00,VWS V14.01,2013-11-14 04:36:00,
2013-11-13 23:37:00,74.3,68.1,30.11,NNE,29,14.0,21.0,81,0.00,,FEW,0.00,0.00,VWS V14.01,2013-11-14 04:37:00,
2013-11-13 23:38:00,74.3,67.7,30.11,NNE,21,17.0,21.0,80,0.00,,FEW,0.00,0.00,VWS V14.01,2013-11-14 04:38:00,
2013-11-13 23:40:00,74.3,67.7,30.11,NNE,21,10.0,21.0,80,0.00,,FEW,0.00,0.00,VWS V14.01,2013-11-14 04:40:00,
2013-11-13 23:41:00,74.3,67.7,30.11,NE,50,11.0,15.0,80,0.00,,FEW,0.00,0.00,VWS V14.01,2013-11-14 04:41:00,
2013-11-13 23:42:00,74.3,67.7,30.11,NNE,30,8.0,15.0,80,0.00,,FEW,0.00,0.00,VWS V14.01,2013-11-14 04:42:00,
2013-11-13 23:43:00,74.3,67.7,30.11,NNE,22,10.0,15.0,80,0.00,,FEW,0.00,0.00,VWS V14.01,2013-11-14 04:43:00,
2013-11-13 23:45:00,74.4,67.8,30.10,ENE,76,5.0,15.0,80,0.00,,FEW,0.00,0.00,VWS V14.01,2013-11-14 04:45:00,
2013-11-13 23:46:00,74.4,68.2,30.10,ENE,57,8.0,15.0,81,0.00,,FEW,0.00,0.00,VWS V14.01,2013-11-14 04:46:00,
2013-11-13 23:47:00,74.4,68.2,30.10,NE,44,9.0,15.0,81,0.00,,FEW,0.00,0.00,VWS V14.01,2013-11-14 04:47:00,
2013-11-13 23:48:00,74.3,67.7,30.10,NE,41,7.0,23.0,80,0.00,,FEW,0.00,0.00,VWS V14.01,2013-11-14 04:48:00,
2013-11-13 23:50:00,74.4,68.2,30.10,ENE,69,11.0,23.0,81,0.00,,FEW,0.00,0.00,VWS V14.01,2013-11-14 04:50:00,
2013-11-13 23:51:00,74.4,68.2,30.10,NE,43,5.0,13.0,81,0.00,,FEW,0.00,0.00,VWS V14.01,2013-11-14 04:51:00,
2013-11-13 23:52:00,74.4,68.2,30.10,NE,49,7.0,13.0,81,0.00,,FEW,0.00,0.00,VWS V14.01,2013-11-14 04:52:00,
2013-11-13 23:53:00,74.5,68.3,30.10,ENE,65,11.0,13.0,81,0.00,,FEW,0.00,0.00,VWS V14.01,2013-11-14 04:53:00,
2013-11-13 23:55:00,74.5,68.3,30.10,NNE,26,6.0,15.0,81,0.00,,FEW,0.00,0.00,VWS V14.01,2013-11-14 04:55:00,
2013-11-13 23:56:00,74.5,68.3,30.10,ENE,58,12.0,15.0,81,0.00,,FEW,0.00,0.00,VWS V14.01,2013-11-14 04:56:00,
2013-11-13 23:57:00,74.5,68.3,30.10,NE,52,12.0,15.0,81,0.00,,FEW,0.00,0.00,VWS V14.01,2013-11-14 04:57:00,
2013-11-13 23:58:00,74.5,68.3,30.10,ENE,57,15.0,15.0,81,0.00,,FEW,0.00,0.00,VWS V14.01,2013-11-14 04:58:00,